<?xml version='1.0' encoding='UTF-8'?><gpx version="1.1" creator="JPX - https://github.com/jenetics/jpx" xmlns="http://www.topografix.com/GPX/1/1"><trk><trkseg><trkpt lat="41.37595792914425" lon="-3.35603961330178"><ele>1017.0</ele><time>2026-03-22T11:56:58.998Z</time></trkpt><trkpt lat="41.37601919747285" lon="-3.356069450773334"><ele>1016.9999999999999</ele><time>2026-03-22T11:56:59.998Z</time></trkpt><trkpt lat="41.3760822768141" lon="-3.3561056394409485"><ele>1017.0</ele><time>2026-03-22T11:57:00.998Z</time></trkpt><trkpt lat="41.376141214957165" lon="-3.356140507856863"><ele>1017.0</ele><time>2026-03-22T11:57:01.998Z</time></trkpt><trkpt lat="41.37621207061219" lon="-3.3561787350760053"><ele>1016.9999999999999</ele><time>2026-03-22T11:57:02.998Z</time></trkpt><trkpt lat="41.376285433461966" lon="-3.356211769737247"><ele>1017.0</ele><time>2026-03-22T11:57:03.998Z</time></trkpt><trkpt lat="41.37635904791264" lon="-3.356243083425898"><ele>1017.0</ele><time>2026-03-22T11:57:04.998Z</time></trkpt><trkpt lat="41.37643033901527" lon="-3.3562791942108676"><ele>1015.25</ele><time>2026-03-22T11:57:05.998Z</time></trkpt><trkpt lat="41.37652342745969" lon="-3.356370765588789"><ele>1013.5</ele><time>2026-03-22T11:57:07.998Z</time></trkpt><trkpt lat="41.376617739586486" lon="-3.3563921370259324"><ele>1011.75</ele><time>2026-03-22T11:57:09.998Z</time></trkpt><trkpt lat="41.37658543754758" lon="-3.3566236662441598"><ele>1010.0</ele><time>2026-03-22T11:57:10.998Z</time></trkpt><trkpt lat="41.376576532221364" lon="-3.3567340172652638"><ele>1010.0</ele><time>2026-03-22T11:57:11.998Z</time></trkpt><trkpt lat="41.37657404795493" lon="-3.3568469113728976"><ele>1010.0</ele><time>2026-03-22T11:57:12.998Z</time></trkpt><trkpt lat="41.37657675402399" lon="-3.3569649957292267"><ele>1010.0</ele><time>2026-03-22T11:57:13.998Z</time></trkpt><trkpt lat="41.37657873372226" lon="-3.3570863693758253"><ele>1010.0</ele><time>2026-03-22T11:57:14.998Z</time></trkpt><trkpt lat="41.37657678269276" lon="-3.357214883553984"><ele>1010.0</ele><time>2026-03-22T11:57:15.998Z</time></trkpt><trkpt lat="41.37657284660833" lon="-3.3573462434075254"><ele>1009.6</ele><time>2026-03-22T11:57:16.998Z</time></trkpt><trkpt lat="41.376568765001025" lon="-3.357480593731889"><ele>1009.2</ele><time>2026-03-22T11:57:17.998Z</time></trkpt><trkpt lat="41.376571835083524" lon="-3.3576194791572194"><ele>1008.8</ele><time>2026-03-22T11:57:18.998Z</time></trkpt><trkpt lat="41.37657365563247" lon="-3.3577589459868467"><ele>1008.4</ele><time>2026-03-22T11:57:19.998Z</time></trkpt><trkpt lat="41.37657267419055" lon="-3.3578985721592023"><ele>1008.0</ele><time>2026-03-22T11:57:20.998Z</time></trkpt><trkpt lat="41.37657489258249" lon="-3.358038807492689"><ele>1009.25</ele><time>2026-03-22T11:57:21.998Z</time></trkpt><trkpt lat="41.376599750152195" lon="-3.3581479591606147"><ele>1010.5</ele><time>2026-03-22T11:57:22.998Z</time></trkpt><trkpt lat="41.37661829186721" lon="-3.3582290137786366"><ele>1011.75</ele><time>2026-03-22T11:57:23.998Z</time></trkpt><trkpt lat="41.37681234849396" lon="-3.358238901776941"><ele>1013.0</ele><time>2026-03-22T11:57:25.998Z</time></trkpt><trkpt lat="41.37692757091693" lon="-3.35824357462873"><ele>1013.0</ele><time>2026-03-22T11:57:27.998Z</time></trkpt><trkpt lat="41.37702192932769" lon="-3.3582772671407004"><ele>1013.0</ele><time>2026-03-22T11:57:29.998Z</time></trkpt><trkpt lat="41.37710890644974" lon="-3.3583092574831483"><ele>1013.0</ele><time>2026-03-22T11:57:31.998Z</time></trkpt><trkpt lat="41.37719834696727" lon="-3.358336177927705"><ele>1013.0</ele><time>2026-03-22T11:57:33.998Z</time></trkpt><trkpt lat="41.377299007310256" lon="-3.358366440486835"><ele>1013.0</ele><time>2026-03-22T11:57:35.999Z</time></trkpt><trkpt lat="41.377395167452946" lon="-3.358417556049129"><ele>1013.5999999999999</ele><time>2026-03-22T11:57:37.999Z</time></trkpt><trkpt lat="41.37749828756087" lon="-3.3584796264604555"><ele>1014.1999999999999</ele><time>2026-03-22T11:57:39.999Z</time></trkpt><trkpt lat="41.37760232696703" lon="-3.358556605545729"><ele>1014.8</ele><time>2026-03-22T11:57:41.999Z</time></trkpt><trkpt lat="41.3777103601515" lon="-3.3586339574894657"><ele>1015.4</ele><time>2026-03-22T11:57:43.999Z</time></trkpt><trkpt lat="41.37776674841593" lon="-3.3586736803977173"><ele>1016.0</ele><time>2026-03-22T11:57:44.999Z</time></trkpt><trkpt lat="41.37782434717974" lon="-3.3587135617426833"><ele>1016.0</ele><time>2026-03-22T11:57:45.999Z</time></trkpt><trkpt lat="41.37788203522634" lon="-3.3587535438065843"><ele>1016.0</ele><time>2026-03-22T11:57:46.999Z</time></trkpt><trkpt lat="41.377941557780304" lon="-3.3587956055684733"><ele>1016.0</ele><time>2026-03-22T11:57:47.999Z</time></trkpt><trkpt lat="41.378000799690945" lon="-3.3588394465238043"><ele>1016.0</ele><time>2026-03-22T11:57:48.999Z</time></trkpt><trkpt lat="41.378062678555544" lon="-3.3588813240069126"><ele>1016.0</ele><time>2026-03-22T11:57:49.999Z</time></trkpt><trkpt lat="41.37812355914839" lon="-3.358925667690705"><ele>1016.0</ele><time>2026-03-22T11:57:50.999Z</time></trkpt><trkpt lat="41.37818616254268" lon="-3.3589688768143287"><ele>1016.0</ele><time>2026-03-22T11:57:51.999Z</time></trkpt><trkpt lat="41.37825036140888" lon="-3.3590102546096468"><ele>1016.8571428571429</ele><time>2026-03-22T11:57:52.999Z</time></trkpt><trkpt lat="41.37831491582549" lon="-3.3590499871804673"><ele>1017.7142857142857</ele><time>2026-03-22T11:57:53.999Z</time></trkpt><trkpt lat="41.378378525869934" lon="-3.359089329413015"><ele>1018.5714285714286</ele><time>2026-03-22T11:57:54.999Z</time></trkpt><trkpt lat="41.378439667461215" lon="-3.3591319209583212"><ele>1019.4285714285714</ele><time>2026-03-22T11:57:55.999Z</time></trkpt><trkpt lat="41.378500840467865" lon="-3.3591712882528046"><ele>1020.2857142857142</ele><time>2026-03-22T11:57:56.999Z</time></trkpt><trkpt lat="41.3785617852628" lon="-3.3592077825150173"><ele>1021.1428571428571</ele><time>2026-03-22T11:57:57.999Z</time></trkpt><trkpt lat="41.37862447227639" lon="-3.3592457458655938"><ele>1022.0</ele><time>2026-03-22T11:57:58.999Z</time></trkpt><trkpt lat="41.378684907347846" lon="-3.3592821841328617"><ele>1022.0</ele><time>2026-03-22T11:57:59.999Z</time></trkpt><trkpt lat="41.37874490376868" lon="-3.3593185983865075"><ele>1022.0</ele><time>2026-03-22T11:58:00.999Z</time></trkpt><trkpt lat="41.37885347353961" lon="-3.3593958427852852"><ele>1022.0</ele><time>2026-03-22T11:58:02.999Z</time></trkpt><trkpt lat="41.37895607418715" lon="-3.3594747516889023"><ele>1022.0</ele><time>2026-03-22T11:58:04.999Z</time></trkpt><trkpt lat="41.379057237783286" lon="-3.3595562187222727"><ele>1022.0</ele><time>2026-03-22T11:58:06.999Z</time></trkpt><trkpt lat="41.37914452002895" lon="-3.3596510942817877"><ele>1023.4000000000001</ele><time>2026-03-22T11:58:08.999Z</time></trkpt><trkpt lat="41.379217040007944" lon="-3.3597544971564868"><ele>1024.8000000000002</ele><time>2026-03-22T11:58:10.999Z</time></trkpt><trkpt lat="41.37928487543946" lon="-3.359855959966406"><ele>1026.2</ele><time>2026-03-22T11:58:12.999Z</time></trkpt><trkpt lat="41.37935311037534" lon="-3.3599549455954465"><ele>1027.6000000000001</ele><time>2026-03-22T11:58:14.999Z</time></trkpt><trkpt lat="41.37942391659491" lon="-3.3600527169818033"><ele>1029.0</ele><time>2026-03-22T11:58:16.999Z</time></trkpt><trkpt lat="41.37949402506543" lon="-3.3601605951885376"><ele>1029.0</ele><time>2026-03-22T11:58:18.999Z</time></trkpt><trkpt lat="41.37956809676336" lon="-3.360268032299068"><ele>1029.0</ele><time>2026-03-22T11:58:20.999Z</time></trkpt><trkpt lat="41.37964437761537" lon="-3.360376488274097"><ele>1029.0</ele><time>2026-03-22T11:58:22.999Z</time></trkpt><trkpt lat="41.379722506378485" lon="-3.360487677120385"><ele>1029.0</ele><time>2026-03-22T11:58:24.999Z</time></trkpt><trkpt lat="41.379800452587574" lon="-3.3606035602865205"><ele>1029.25</ele><time>2026-03-22T11:58:26.999Z</time></trkpt><trkpt lat="41.379877033032" lon="-3.360716790828644"><ele>1029.5</ele><time>2026-03-22T11:58:28.999Z</time></trkpt><trkpt lat="41.37995170530555" lon="-3.360831256013228"><ele>1029.75</ele><time>2026-03-22T11:58:30.999Z</time></trkpt><trkpt lat="41.38003141785997" lon="-3.3609428479182264"><ele>1030.0</ele><time>2026-03-22T11:58:32.999Z</time></trkpt><trkpt lat="41.38011304574924" lon="-3.3610526570235986"><ele>1030.0</ele><time>2026-03-22T11:58:34.999Z</time></trkpt><trkpt lat="41.38019440207226" lon="-3.361169165576562"><ele>1030.0</ele><time>2026-03-22T11:58:36.999Z</time></trkpt><trkpt lat="41.38028290963781" lon="-3.361282594586799"><ele>1030.0</ele><time>2026-03-22T11:58:38.999Z</time></trkpt><trkpt lat="41.380377087315026" lon="-3.361397339030055"><ele>1030.0</ele><time>2026-03-22T11:58:40.999Z</time></trkpt><trkpt lat="41.38042398520819" lon="-3.3614612019303802"><ele>1030.0</ele><time>2026-03-22T11:58:41.999Z</time></trkpt><trkpt lat="41.3804753039015" lon="-3.361528653698243"><ele>1029.6666666666665</ele><time>2026-03-22T11:58:42.999Z</time></trkpt><trkpt lat="41.38052813581468" lon="-3.3615992564660675"><ele>1029.3333333333333</ele><time>2026-03-22T11:58:43.999Z</time></trkpt><trkpt lat="41.38058687201201" lon="-3.361672234257453"><ele>1029.0</ele><time>2026-03-22T11:58:44.999Z</time></trkpt><trkpt lat="41.380645644462824" lon="-3.3617506980472247"><ele>1028.6666666666667</ele><time>2026-03-22T11:58:45.999Z</time></trkpt><trkpt lat="41.380703029613194" lon="-3.3618369701422437"><ele>1028.3333333333335</ele><time>2026-03-22T11:58:46.999Z</time></trkpt><trkpt lat="41.3807612802496" lon="-3.3619316924780978"><ele>1028.0</ele><time>2026-03-22T11:58:47.999Z</time></trkpt><trkpt lat="41.38081517212892" lon="-3.3620439492248053"><ele>1028.0</ele><time>2026-03-22T11:58:48.999Z</time></trkpt><trkpt lat="41.38085057649568" lon="-3.3621777659394327"><ele>1028.0</ele><time>2026-03-22T11:58:49.999Z</time></trkpt><trkpt lat="41.38086397002346" lon="-3.362329588740849"><ele>1028.0</ele><time>2026-03-22T11:58:50.999Z</time></trkpt><trkpt lat="41.38086225234916" lon="-3.362492601157276"><ele>1028.0</ele><time>2026-03-22T11:58:51.999Z</time></trkpt><trkpt lat="41.380848233467866" lon="-3.3626629939736983"><ele>1027.5</ele><time>2026-03-22T11:58:52.999Z</time></trkpt><trkpt lat="41.380837336165975" lon="-3.362837740285488"><ele>1027.0</ele><time>2026-03-22T11:58:53.999Z</time></trkpt><trkpt lat="41.380826743826745" lon="-3.363013525500876"><ele>1026.5</ele><time>2026-03-22T11:58:54.999Z</time></trkpt><trkpt lat="41.38081732545374" lon="-3.3631811603359134"><ele>1026.0</ele><time>2026-03-22T11:58:55.999Z</time></trkpt><trkpt lat="41.38082560490437" lon="-3.3633425603878147"><ele>1025.3999999999999</ele><time>2026-03-22T11:58:56.999Z</time></trkpt><trkpt lat="41.38085665673701" lon="-3.363486949480103"><ele>1024.8</ele><time>2026-03-22T11:58:57.999Z</time></trkpt><trkpt lat="41.380926174369435" lon="-3.3635829658239627"><ele>1024.1999999999998</ele><time>2026-03-22T11:58:58.999Z</time></trkpt><trkpt lat="41.38101570662209" lon="-3.363610884600758"><ele>1023.5999999999999</ele><time>2026-03-22T11:58:59.999Z</time></trkpt><trkpt lat="41.38109687709278" lon="-3.36358279410442"><ele>1023.0</ele><time>2026-03-22T11:59:00.999Z</time></trkpt><trkpt lat="41.38116391019599" lon="-3.363544464977785"><ele>1023.0</ele><time>2026-03-22T11:59:01.999Z</time></trkpt><trkpt lat="41.381282482590954" lon="-3.3635254121843814"><ele>1023.0</ele><time>2026-03-22T11:59:03.999Z</time></trkpt><trkpt lat="41.38138139920884" lon="-3.363542659811838"><ele>1023.0</ele><time>2026-03-22T11:59:05.999Z</time></trkpt><trkpt lat="41.38146763475326" lon="-3.3635652657529995"><ele>1023.0</ele><time>2026-03-22T11:59:07.999Z</time></trkpt><trkpt lat="41.381544208007895" lon="-3.363598299425281"><ele>1023.0</ele><time>2026-03-22T11:59:09.999Z</time></trkpt><trkpt lat="41.38161236623106" lon="-3.3636470500464815"><ele>1024.6</ele><time>2026-03-22T11:59:11.998Z</time></trkpt><trkpt lat="41.38167255675881" lon="-3.363718774001363"><ele>1026.1999999999998</ele><time>2026-03-22T11:59:13.998Z</time></trkpt><trkpt lat="41.381731967036075" lon="-3.3638015723509387"><ele>1027.8</ele><time>2026-03-22T11:59:15.998Z</time></trkpt><trkpt lat="41.38179758201355" lon="-3.363895031462724"><ele>1029.3999999999999</ele><time>2026-03-22T11:59:17.998Z</time></trkpt><trkpt lat="41.38187387638835" lon="-3.363994363587174"><ele>1031.0</ele><time>2026-03-22T11:59:19.998Z</time></trkpt><trkpt lat="41.38196198640265" lon="-3.3641031748647046"><ele>1031.0</ele><time>2026-03-22T11:59:21.998Z</time></trkpt><trkpt lat="41.38200874776067" lon="-3.364161428361255"><ele>1031.0</ele><time>2026-03-22T11:59:22.998Z</time></trkpt><trkpt lat="41.382057940580765" lon="-3.364224850681942"><ele>1031.0</ele><time>2026-03-22T11:59:23.998Z</time></trkpt><trkpt lat="41.38210966668755" lon="-3.364288958712855"><ele>1031.0</ele><time>2026-03-22T11:59:24.998Z</time></trkpt><trkpt lat="41.382165182375786" lon="-3.3643611732769645"><ele>1031.0</ele><time>2026-03-22T11:59:25.998Z</time></trkpt><trkpt lat="41.382224814829854" lon="-3.3644354101485785"><ele>1031.0</ele><time>2026-03-22T11:59:26.998Z</time></trkpt><trkpt lat="41.38229047153038" lon="-3.364513918958048"><ele>1031.0</ele><time>2026-03-22T11:59:28Z</time></trkpt><trkpt lat="41.382359372189235" lon="-3.364599356642336"><ele>1031.0</ele><time>2026-03-22T11:59:29Z</time></trkpt><trkpt lat="41.38243393169703" lon="-3.364688503990088"><ele>1031.0</ele><time>2026-03-22T11:59:30Z</time></trkpt><trkpt lat="41.38251232604508" lon="-3.3647830416403894"><ele>1031.0</ele><time>2026-03-22T11:59:31Z</time></trkpt><trkpt lat="41.38259486268467" lon="-3.3648835005286424"><ele>1031.0</ele><time>2026-03-22T11:59:32Z</time></trkpt><trkpt lat="41.38268259647609" lon="-3.364989286750454"><ele>1030.25</ele><time>2026-03-22T11:59:33Z</time></trkpt><trkpt lat="41.382775864722475" lon="-3.365099959316133"><ele>1029.5</ele><time>2026-03-22T11:59:34Z</time></trkpt><trkpt lat="41.38287159935053" lon="-3.365211894508491"><ele>1028.75</ele><time>2026-03-22T11:59:35Z</time></trkpt><trkpt lat="41.38296881866704" lon="-3.365317523757421"><ele>1028.0</ele><time>2026-03-22T11:59:36Z</time></trkpt><trkpt lat="41.38306118909917" lon="-3.36541900396221"><ele>1028.4</ele><time>2026-03-22T11:59:37Z</time></trkpt><trkpt lat="41.383153852621184" lon="-3.3655109381150043"><ele>1028.8</ele><time>2026-03-22T11:59:38Z</time></trkpt><trkpt lat="41.38324395745365" lon="-3.3655920961983763"><ele>1029.2</ele><time>2026-03-22T11:59:39Z</time></trkpt><trkpt lat="41.383327967901366" lon="-3.365667420699726"><ele>1029.6</ele><time>2026-03-22T11:59:40Z</time></trkpt><trkpt lat="41.383405400270526" lon="-3.3657325255598636"><ele>1030.0</ele><time>2026-03-22T11:59:41Z</time></trkpt><trkpt lat="41.38347804822947" lon="-3.3657878614308188"><ele>1030.0</ele><time>2026-03-22T11:59:42Z</time></trkpt><trkpt lat="41.383547735311296" lon="-3.365828641908648"><ele>1030.0</ele><time>2026-03-22T11:59:43Z</time></trkpt><trkpt lat="41.383609156824896" lon="-3.365854132021818"><ele>1030.0</ele><time>2026-03-22T11:59:44Z</time></trkpt><trkpt lat="41.383719528792355" lon="-3.365891844445197"><ele>1030.0</ele><time>2026-03-22T11:59:46Z</time></trkpt><trkpt lat="41.38380516345766" lon="-3.365930922845864"><ele>1030.0</ele><time>2026-03-22T11:59:48Z</time></trkpt><trkpt lat="41.383884321791946" lon="-3.365959076026575"><ele>1030.0</ele><time>2026-03-22T11:59:50Z</time></trkpt><trkpt lat="41.38395736171019" lon="-3.365984126830148"><ele>1031.1666666666665</ele><time>2026-03-22T11:59:52Z</time></trkpt><trkpt lat="41.38402720037964" lon="-3.366014398849987"><ele>1032.3333333333333</ele><time>2026-03-22T11:59:54Z</time></trkpt><trkpt lat="41.38409695343345" lon="-3.3660424231230186"><ele>1033.5</ele><time>2026-03-22T11:59:56Z</time></trkpt><trkpt lat="41.38416792836758" lon="-3.3660737947855353"><ele>1034.6666666666667</ele><time>2026-03-22T11:59:58Z</time></trkpt><trkpt lat="41.38423028048338" lon="-3.366127594599271"><ele>1035.8333333333335</ele><time>2026-03-22T12:00:00Z</time></trkpt><trkpt lat="41.384289997873466" lon="-3.366194385329732"><ele>1037.0</ele><time>2026-03-22T12:00:02Z</time></trkpt><trkpt lat="41.384350588785345" lon="-3.3662735868421874"><ele>1037.0</ele><time>2026-03-22T12:00:04Z</time></trkpt><trkpt lat="41.384418646499356" lon="-3.366360437919195"><ele>1037.0</ele><time>2026-03-22T12:00:06Z</time></trkpt><trkpt lat="41.3844905793963" lon="-3.3664641187496986"><ele>1037.0</ele><time>2026-03-22T12:00:08Z</time></trkpt><trkpt lat="41.38456435865613" lon="-3.366576787987125"><ele>1037.0</ele><time>2026-03-22T12:00:10Z</time></trkpt><trkpt lat="41.38464228597408" lon="-3.366690140735603"><ele>1037.0</ele><time>2026-03-22T12:00:12Z</time></trkpt><trkpt lat="41.38473050722287" lon="-3.3668018578739636"><ele>1037.142857142857</ele><time>2026-03-22T12:00:14Z</time></trkpt><trkpt lat="41.38478050264097" lon="-3.36685659122228"><ele>1037.2857142857142</ele><time>2026-03-22T12:00:15Z</time></trkpt><trkpt lat="41.38483245690756" lon="-3.366912772461776"><ele>1037.4285714285713</ele><time>2026-03-22T12:00:16Z</time></trkpt><trkpt lat="41.38488705992727" lon="-3.3669714471365406"><ele>1037.5714285714284</ele><time>2026-03-22T12:00:17Z</time></trkpt><trkpt lat="41.38494551167842" lon="-3.367033031002685"><ele>1037.7142857142856</ele><time>2026-03-22T12:00:18Z</time></trkpt><trkpt lat="41.38500836160797" lon="-3.3670928896441064"><ele>1037.857142857143</ele><time>2026-03-22T12:00:19Z</time></trkpt><trkpt lat="41.3850737910811" lon="-3.367154713808536"><ele>1038.0</ele><time>2026-03-22T12:00:20Z</time></trkpt><trkpt lat="41.38513738178242" lon="-3.367219502937526"><ele>1038.6666666666667</ele><time>2026-03-22T12:00:21Z</time></trkpt><trkpt lat="41.38519624179281" lon="-3.3672939731032914"><ele>1039.3333333333333</ele><time>2026-03-22T12:00:22Z</time></trkpt><trkpt lat="41.38524295501371" lon="-3.3673885795875127"><ele>1040.0</ele><time>2026-03-22T12:00:23Z</time></trkpt><trkpt lat="41.38527877973789" lon="-3.3674887886489207"><ele>1040.6666666666665</ele><time>2026-03-22T12:00:24Z</time></trkpt><trkpt lat="41.385295656513215" lon="-3.367594790332748"><ele>1041.3333333333333</ele><time>2026-03-22T12:00:25Z</time></trkpt><trkpt lat="41.38529955292571" lon="-3.367703099274211"><ele>1042.0</ele><time>2026-03-22T12:00:26Z</time></trkpt><trkpt lat="41.38528965592472" lon="-3.367808184243255"><ele>1042.0</ele><time>2026-03-22T12:00:27Z</time></trkpt><trkpt lat="41.385270293237014" lon="-3.3679102743243865"><ele>1042.0</ele><time>2026-03-22T12:00:28Z</time></trkpt><trkpt lat="41.385248399765224" lon="-3.3680123514623035"><ele>1042.0</ele><time>2026-03-22T12:00:29Z</time></trkpt><trkpt lat="41.38523104750391" lon="-3.368116065058593"><ele>1042.0</ele><time>2026-03-22T12:00:30Z</time></trkpt><trkpt lat="41.385217751923605" lon="-3.368224137482906"><ele>1042.0</ele><time>2026-03-22T12:00:31Z</time></trkpt><trkpt lat="41.38521778870162" lon="-3.3683331784188444"><ele>1042.0</ele><time>2026-03-22T12:00:32Z</time></trkpt><trkpt lat="41.38523129959624" lon="-3.368433260618464"><ele>1042.2857142857142</ele><time>2026-03-22T12:00:33Z</time></trkpt><trkpt lat="41.385258299106965" lon="-3.36852444213847"><ele>1042.5714285714287</ele><time>2026-03-22T12:00:34Z</time></trkpt><trkpt lat="41.38528381873362" lon="-3.36861750383153"><ele>1042.857142857143</ele><time>2026-03-22T12:00:35Z</time></trkpt><trkpt lat="41.38531477377894" lon="-3.368706596539946"><ele>1043.142857142857</ele><time>2026-03-22T12:00:35.999Z</time></trkpt><trkpt lat="41.38534916626273" lon="-3.368795990439754"><ele>1043.4285714285713</ele><time>2026-03-22T12:00:36.999Z</time></trkpt><trkpt lat="41.385384640587574" lon="-3.3688837800797935"><ele>1043.7142857142858</ele><time>2026-03-22T12:00:37.999Z</time></trkpt><trkpt lat="41.38541789553328" lon="-3.3689731778539196"><ele>1044.0</ele><time>2026-03-22T12:00:38.999Z</time></trkpt><trkpt lat="41.38545206650248" lon="-3.3690606813077917"><ele>1044.0</ele><time>2026-03-22T12:00:39.999Z</time></trkpt><trkpt lat="41.385487316803584" lon="-3.369147833392034"><ele>1044.0</ele><time>2026-03-22T12:00:40.999Z</time></trkpt><trkpt lat="41.385528933312656" lon="-3.3692287347104273"><ele>1044.0</ele><time>2026-03-22T12:00:41.999Z</time></trkpt><trkpt lat="41.385581811280346" lon="-3.3693030672063564"><ele>1044.0</ele><time>2026-03-22T12:00:42.999Z</time></trkpt><trkpt lat="41.38563930181446" lon="-3.3693737031286166"><ele>1044.0</ele><time>2026-03-22T12:00:43.999Z</time></trkpt><trkpt lat="41.38570236104054" lon="-3.3694437441009866"><ele>1044.0</ele><time>2026-03-22T12:00:44.999Z</time></trkpt><trkpt lat="41.385763993969576" lon="-3.3695185678845103"><ele>1044.0</ele><time>2026-03-22T12:00:45.999Z</time></trkpt><trkpt lat="41.38582041756822" lon="-3.3696061859946056"><ele>1044.0</ele><time>2026-03-22T12:00:46.999Z</time></trkpt><trkpt lat="41.38587066058091" lon="-3.3697004365719834"><ele>1044.0</ele><time>2026-03-22T12:00:47.999Z</time></trkpt><trkpt lat="41.38591151707415" lon="-3.3698045253877544"><ele>1044.0</ele><time>2026-03-22T12:00:48.999Z</time></trkpt><trkpt lat="41.385938942171464" lon="-3.3699151308334008"><ele>1044.0</ele><time>2026-03-22T12:00:49.999Z</time></trkpt><trkpt lat="41.38595526644105" lon="-3.3700309980356526"><ele>1044.0</ele><time>2026-03-22T12:00:50.999Z</time></trkpt><trkpt lat="41.38597387682403" lon="-3.3701463690698"><ele>1044.1666666666667</ele><time>2026-03-22T12:00:51.999Z</time></trkpt><trkpt lat="41.386008604674466" lon="-3.3702524401909564"><ele>1044.3333333333333</ele><time>2026-03-22T12:00:52.999Z</time></trkpt><trkpt lat="41.38605516019888" lon="-3.370350906126801"><ele>1044.5</ele><time>2026-03-22T12:00:53.999Z</time></trkpt><trkpt lat="41.38610147239005" lon="-3.3704477346668753"><ele>1044.6666666666665</ele><time>2026-03-22T12:00:54.999Z</time></trkpt><trkpt lat="41.386146154765456" lon="-3.3705516430293057"><ele>1044.8333333333333</ele><time>2026-03-22T12:00:55.999Z</time></trkpt><trkpt lat="41.386190860649165" lon="-3.370660277799857"><ele>1045.0</ele><time>2026-03-22T12:00:56.999Z</time></trkpt><trkpt lat="41.38623986919231" lon="-3.370757016098887"><ele>1045.0</ele><time>2026-03-22T12:00:57.999Z</time></trkpt><trkpt lat="41.38629456265856" lon="-3.3708493092525558"><ele>1045.0</ele><time>2026-03-22T12:00:58.999Z</time></trkpt><trkpt lat="41.38634907736639" lon="-3.3709086838256366"><ele>1045.0</ele><time>2026-03-22T12:00:59.999Z</time></trkpt><trkpt lat="41.386409075658435" lon="-3.3709745674880565"><ele>1045.0</ele><time>2026-03-22T12:01:01.999Z</time></trkpt><trkpt lat="41.38636990433109" lon="-3.371103122977166"><ele>1045.0</ele><time>2026-03-22T12:01:38Z</time></trkpt><trkpt lat="41.38626859614422" lon="-3.371154603984633"><ele>1045.0</ele><time>2026-03-22T12:01:40Z</time></trkpt><trkpt lat="41.386194553157395" lon="-3.3712145050839526"><ele>1045.0</ele><time>2026-03-22T12:01:42Z</time></trkpt><trkpt lat="41.3861196607254" lon="-3.371254628753041"><ele>1045.0</ele><time>2026-03-22T12:01:45Z</time></trkpt><trkpt lat="41.38606212574571" lon="-3.3713237143434105"><ele>1045.0</ele><time>2026-03-22T12:01:47Z</time></trkpt><trkpt lat="41.38596689887152" lon="-3.371404883508201"><ele>1045.0</ele><time>2026-03-22T12:01:49Z</time></trkpt><trkpt lat="41.38587363107311" lon="-3.371485317221469"><ele>1045.0</ele><time>2026-03-22T12:01:51Z</time></trkpt><trkpt lat="41.385818066308204" lon="-3.371532677899253"><ele>1045.0</ele><time>2026-03-22T12:01:52Z</time></trkpt><trkpt lat="41.38576186473111" lon="-3.371582264158688"><ele>1044.857142857143</ele><time>2026-03-22T12:01:53Z</time></trkpt><trkpt lat="41.38570681663772" lon="-3.3716305615341855"><ele>1044.7142857142856</ele><time>2026-03-22T12:01:54Z</time></trkpt><trkpt lat="41.385649848813706" lon="-3.37167736306079"><ele>1044.5714285714284</ele><time>2026-03-22T12:01:55Z</time></trkpt><trkpt lat="41.3855869820365" lon="-3.371724200757931"><ele>1044.4285714285713</ele><time>2026-03-22T12:01:56Z</time></trkpt><trkpt lat="41.38552832954134" lon="-3.371770974324076"><ele>1044.2857142857142</ele><time>2026-03-22T12:01:57Z</time></trkpt><trkpt lat="41.38547038831428" lon="-3.3718201317403675"><ele>1044.142857142857</ele><time>2026-03-22T12:01:58Z</time></trkpt><trkpt lat="41.38541382958663" lon="-3.3718744531985005"><ele>1044.0</ele><time>2026-03-22T12:01:59Z</time></trkpt><trkpt lat="41.385353773364905" lon="-3.371926583762715"><ele>1044.5714285714287</ele><time>2026-03-22T12:02:00Z</time></trkpt><trkpt lat="41.38529480713171" lon="-3.371981280436009"><ele>1045.142857142857</ele><time>2026-03-22T12:02:01Z</time></trkpt><trkpt lat="41.38523428662866" lon="-3.3720339282327427"><ele>1045.7142857142858</ele><time>2026-03-22T12:02:02Z</time></trkpt><trkpt lat="41.3851743989519" lon="-3.37208406106681"><ele>1046.2857142857142</ele><time>2026-03-22T12:02:03Z</time></trkpt><trkpt lat="41.38511805182874" lon="-3.372139439200328"><ele>1046.857142857143</ele><time>2026-03-22T12:02:04Z</time></trkpt><trkpt lat="41.3850644659402" lon="-3.372201113398468"><ele>1047.4285714285716</ele><time>2026-03-22T12:02:05Z</time></trkpt><trkpt lat="41.385011390629565" lon="-3.372260112634766"><ele>1048.0</ele><time>2026-03-22T12:02:06Z</time></trkpt><trkpt lat="41.384959771918794" lon="-3.3723281553314526"><ele>1048.1666666666665</ele><time>2026-03-22T12:02:07Z</time></trkpt><trkpt lat="41.38491276130237" lon="-3.372400020671223"><ele>1048.3333333333333</ele><time>2026-03-22T12:02:08Z</time></trkpt><trkpt lat="41.38486513792605" lon="-3.372475472851621"><ele>1048.5</ele><time>2026-03-22T12:02:09Z</time></trkpt><trkpt lat="41.38481746807944" lon="-3.372552727819016"><ele>1048.6666666666667</ele><time>2026-03-22T12:02:10Z</time></trkpt><trkpt lat="41.38476699847651" lon="-3.372632057976559"><ele>1048.8333333333335</ele><time>2026-03-22T12:02:11Z</time></trkpt><trkpt lat="41.384718270795375" lon="-3.372711914955015"><ele>1049.0</ele><time>2026-03-22T12:02:12Z</time></trkpt><trkpt lat="41.38466828549663" lon="-3.372795487041573"><ele>1049.5</ele><time>2026-03-22T12:02:13Z</time></trkpt><trkpt lat="41.38462019184842" lon="-3.3728783093619406"><ele>1050.0</ele><time>2026-03-22T12:02:14Z</time></trkpt><trkpt lat="41.38456418273527" lon="-3.3729593773112714"><ele>1050.5</ele><time>2026-03-22T12:02:15Z</time></trkpt><trkpt lat="41.3845181482886" lon="-3.3730443668476497"><ele>1051.0</ele><time>2026-03-22T12:02:16Z</time></trkpt><trkpt lat="41.38447291517145" lon="-3.373137197812455"><ele>1051.5</ele><time>2026-03-22T12:02:17Z</time></trkpt><trkpt lat="41.384425495180224" lon="-3.373228915217495"><ele>1052.0</ele><time>2026-03-22T12:02:18Z</time></trkpt><trkpt lat="41.38437838158438" lon="-3.3733169660925673"><ele>1052.5</ele><time>2026-03-22T12:02:19Z</time></trkpt><trkpt lat="41.38433083244979" lon="-3.3734009597294015"><ele>1053.0</ele><time>2026-03-22T12:02:20Z</time></trkpt><trkpt lat="41.384285187944144" lon="-3.3734905296755016"><ele>1053.5</ele><time>2026-03-22T12:02:21Z</time></trkpt><trkpt lat="41.384243142970476" lon="-3.3735770287541316"><ele>1054.0</ele><time>2026-03-22T12:02:22Z</time></trkpt><trkpt lat="41.38419255556054" lon="-3.3736671548317783"><ele>1054.5</ele><time>2026-03-22T12:02:23Z</time></trkpt><trkpt lat="41.38414627649177" lon="-3.3737503411895675"><ele>1055.0</ele><time>2026-03-22T12:02:24Z</time></trkpt><trkpt lat="41.384103159988115" lon="-3.37383111834793"><ele>1055.1666666666667</ele><time>2026-03-22T12:02:25Z</time></trkpt><trkpt lat="41.384057398545686" lon="-3.3739160161397965"><ele>1055.3333333333335</ele><time>2026-03-22T12:02:26Z</time></trkpt><trkpt lat="41.38401236967398" lon="-3.3740011129037106"><ele>1055.5</ele><time>2026-03-22T12:02:27Z</time></trkpt><trkpt lat="41.38396883360797" lon="-3.3740838384574268"><ele>1055.6666666666667</ele><time>2026-03-22T12:02:28Z</time></trkpt><trkpt lat="41.38392287591043" lon="-3.374171281814389"><ele>1055.8333333333333</ele><time>2026-03-22T12:02:29Z</time></trkpt><trkpt lat="41.38388366227523" lon="-3.3742584397156423"><ele>1056.0</ele><time>2026-03-22T12:02:30Z</time></trkpt><trkpt lat="41.38383970410576" lon="-3.374345069355284"><ele>1056.0</ele><time>2026-03-22T12:02:31Z</time></trkpt><trkpt lat="41.38379762639276" lon="-3.374424802772298"><ele>1056.0</ele><time>2026-03-22T12:02:32Z</time></trkpt><trkpt lat="41.38374619700531" lon="-3.3745148909156315"><ele>1056.0</ele><time>2026-03-22T12:02:33Z</time></trkpt><trkpt lat="41.383701547588714" lon="-3.374603736784983"><ele>1056.0</ele><time>2026-03-22T12:02:34Z</time></trkpt><trkpt lat="41.383651471161464" lon="-3.3746902182891336"><ele>1056.0</ele><time>2026-03-22T12:02:35Z</time></trkpt><trkpt lat="41.38359913452937" lon="-3.3747874825179873"><ele>1056.0</ele><time>2026-03-22T12:02:36Z</time></trkpt><trkpt lat="41.383546954202245" lon="-3.3748853927033053"><ele>1055.6</ele><time>2026-03-22T12:02:37Z</time></trkpt><trkpt lat="41.383487061078974" lon="-3.374985679789006"><ele>1055.1999999999998</ele><time>2026-03-22T12:02:38Z</time></trkpt><trkpt lat="41.38342653262124" lon="-3.3750916627372995"><ele>1054.8000000000002</ele><time>2026-03-22T12:02:39Z</time></trkpt><trkpt lat="41.38336864828556" lon="-3.375198530008991"><ele>1054.4</ele><time>2026-03-22T12:02:40Z</time></trkpt><trkpt lat="41.383309217136166" lon="-3.3753082397790064"><ele>1054.0</ele><time>2026-03-22T12:02:41Z</time></trkpt><trkpt lat="41.38324752111439" lon="-3.375421118898043"><ele>1053.4</ele><time>2026-03-22T12:02:42Z</time></trkpt><trkpt lat="41.383183270738094" lon="-3.3755364754291524"><ele>1052.8000000000002</ele><time>2026-03-22T12:02:43Z</time></trkpt><trkpt lat="41.383116750126206" lon="-3.375656060698666"><ele>1052.1999999999998</ele><time>2026-03-22T12:02:44Z</time></trkpt><trkpt lat="41.383056271473805" lon="-3.3757746409788045"><ele>1051.6</ele><time>2026-03-22T12:02:45Z</time></trkpt><trkpt lat="41.38298548055272" lon="-3.3758969491536153"><ele>1051.0</ele><time>2026-03-22T12:02:46Z</time></trkpt><trkpt lat="41.382917938150385" lon="-3.376015724116276"><ele>1051.0</ele><time>2026-03-22T12:02:47Z</time></trkpt><trkpt lat="41.38284904364545" lon="-3.3761372408110453"><ele>1051.0</ele><time>2026-03-22T12:02:48Z</time></trkpt><trkpt lat="41.38278910076461" lon="-3.3762600952536497"><ele>1051.0</ele><time>2026-03-22T12:02:49Z</time></trkpt><trkpt lat="41.3827231458722" lon="-3.3763780720959984"><ele>1051.0</ele><time>2026-03-22T12:02:50Z</time></trkpt><trkpt lat="41.3826573666165" lon="-3.3764961657270063"><ele>1051.0</ele><time>2026-03-22T12:02:51Z</time></trkpt><trkpt lat="41.38259153094582" lon="-3.376612147130913"><ele>1051.3999999999999</ele><time>2026-03-22T12:02:52Z</time></trkpt><trkpt lat="41.38252896162821" lon="-3.376726429134932"><ele>1051.8</ele><time>2026-03-22T12:02:53Z</time></trkpt><trkpt lat="41.38246497738224" lon="-3.376837899924528"><ele>1052.1999999999998</ele><time>2026-03-22T12:02:54Z</time></trkpt><trkpt lat="41.382403903623796" lon="-3.3769469393244727"><ele>1052.6</ele><time>2026-03-22T12:02:55Z</time></trkpt><trkpt lat="41.382341979616925" lon="-3.3770522538493344"><ele>1053.0</ele><time>2026-03-22T12:02:56Z</time></trkpt><trkpt lat="41.38228272559664" lon="-3.377155872331523"><ele>1054.0</ele><time>2026-03-22T12:02:57Z</time></trkpt><trkpt lat="41.38222685142895" lon="-3.377251806615639"><ele>1055.0</ele><time>2026-03-22T12:02:58Z</time></trkpt><trkpt lat="41.38217529241936" lon="-3.3773483420488666"><ele>1056.0</ele><time>2026-03-22T12:02:59Z</time></trkpt><trkpt lat="41.38212633220901" lon="-3.377440582999678"><ele>1057.0</ele><time>2026-03-22T12:03:00Z</time></trkpt><trkpt lat="41.38208561861346" lon="-3.3775331027153634"><ele>1058.0</ele><time>2026-03-22T12:03:01Z</time></trkpt><trkpt lat="41.38205404184762" lon="-3.3776282905531443"><ele>1059.0</ele><time>2026-03-22T12:03:02Z</time></trkpt><trkpt lat="41.382038269133425" lon="-3.3777252210382183"><ele>1059.3333333333333</ele><time>2026-03-22T12:03:03Z</time></trkpt><trkpt lat="41.38203891487911" lon="-3.377820086834728"><ele>1059.6666666666667</ele><time>2026-03-22T12:03:04Z</time></trkpt><trkpt lat="41.38205698157379" lon="-3.377912082075506"><ele>1060.0</ele><time>2026-03-22T12:03:05Z</time></trkpt><trkpt lat="41.38208017701245" lon="-3.377998147472191"><ele>1060.3333333333335</ele><time>2026-03-22T12:03:05.999Z</time></trkpt><trkpt lat="41.38211139232552" lon="-3.3780785408661296"><ele>1060.6666666666667</ele><time>2026-03-22T12:03:06.999Z</time></trkpt><trkpt lat="41.38218725890104" lon="-3.3781969651795065"><ele>1061.0</ele><time>2026-03-22T12:03:08.999Z</time></trkpt><trkpt lat="41.38224283420766" lon="-3.3782740890339724"><ele>1061.0</ele><time>2026-03-22T12:03:10.999Z</time></trkpt><trkpt lat="41.38226678721163" lon="-3.3783662423875485"><ele>1061.0</ele><time>2026-03-22T12:03:13.999Z</time></trkpt><trkpt lat="41.38228954124563" lon="-3.3784455385834176"><ele>1061.0</ele><time>2026-03-22T12:03:19.999Z</time></trkpt><trkpt lat="41.38235904602843" lon="-3.378542838225297"><ele>1061.0</ele><time>2026-03-22T12:03:40.001Z</time></trkpt><trkpt lat="41.382412271784936" lon="-3.3786458083643"><ele>1061.0</ele><time>2026-03-22T12:03:42.001Z</time></trkpt><trkpt lat="41.382473806603336" lon="-3.3787676947533316"><ele>1061.0</ele><time>2026-03-22T12:03:44.001Z</time></trkpt><trkpt lat="41.38254178842819" lon="-3.378907951430427"><ele>1061.1428571428573</ele><time>2026-03-22T12:03:46.001Z</time></trkpt><trkpt lat="41.382575857948886" lon="-3.37898020778559"><ele>1061.2857142857142</ele><time>2026-03-22T12:03:47.001Z</time></trkpt><trkpt lat="41.38261353477879" lon="-3.3790559276987007"><ele>1061.4285714285716</ele><time>2026-03-22T12:03:48.001Z</time></trkpt><trkpt lat="41.382648463075824" lon="-3.37913032263252"><ele>1061.5714285714287</ele><time>2026-03-22T12:03:49.001Z</time></trkpt><trkpt lat="41.382685935672725" lon="-3.3792061624536758"><ele>1061.7142857142858</ele><time>2026-03-22T12:03:50.001Z</time></trkpt><trkpt lat="41.382724826380795" lon="-3.3792814269525904"><ele>1061.857142857143</ele><time>2026-03-22T12:03:51.001Z</time></trkpt><trkpt lat="41.382763489800375" lon="-3.3793592776432564"><ele>1062.0</ele><time>2026-03-22T12:03:52.001Z</time></trkpt><trkpt lat="41.38280196642305" lon="-3.379438957149226"><ele>1062.0</ele><time>2026-03-22T12:03:53Z</time></trkpt><trkpt lat="41.382841567647986" lon="-3.3795205356833495"><ele>1062.0</ele><time>2026-03-22T12:03:54Z</time></trkpt><trkpt lat="41.38287986845233" lon="-3.379599319765815"><ele>1062.0</ele><time>2026-03-22T12:03:55Z</time></trkpt><trkpt lat="41.382917272926605" lon="-3.3796730478370387"><ele>1062.0</ele><time>2026-03-22T12:03:56Z</time></trkpt><trkpt lat="41.38295417607844" lon="-3.3797484210729647"><ele>1062.0</ele><time>2026-03-22T12:03:57Z</time></trkpt><trkpt lat="41.38299023435308" lon="-3.379822748601435"><ele>1062.0</ele><time>2026-03-22T12:03:58Z</time></trkpt><trkpt lat="41.383027021046495" lon="-3.3798945870577795"><ele>1062.0</ele><time>2026-03-22T12:03:59Z</time></trkpt><trkpt lat="41.383098099722375" lon="-3.380031904443233"><ele>1060.8</ele><time>2026-03-22T12:04:01Z</time></trkpt><trkpt lat="41.38313081319362" lon="-3.380103825546116"><ele>1059.6</ele><time>2026-03-22T12:04:02Z</time></trkpt><trkpt lat="41.383198386143114" lon="-3.3802372481063396"><ele>1058.3999999999999</ele><time>2026-03-22T12:04:04Z</time></trkpt><trkpt lat="41.38325836159457" lon="-3.3803661518013417"><ele>1057.2</ele><time>2026-03-22T12:04:06Z</time></trkpt><trkpt lat="41.38332112007433" lon="-3.3804923989466715"><ele>1056.0</ele><time>2026-03-22T12:04:08Z</time></trkpt><trkpt lat="41.383381627792424" lon="-3.380614755808358"><ele>1056.0</ele><time>2026-03-22T12:04:10Z</time></trkpt><trkpt lat="41.3834397190008" lon="-3.380735794604786"><ele>1056.0</ele><time>2026-03-22T12:04:12Z</time></trkpt><trkpt lat="41.38349504195847" lon="-3.3808560963123595"><ele>1056.0</ele><time>2026-03-22T12:04:14Z</time></trkpt><trkpt lat="41.383555077859164" lon="-3.380972820046979"><ele>1056.0</ele><time>2026-03-22T12:04:16Z</time></trkpt><trkpt lat="41.38361485834675" lon="-3.3810943223693988"><ele>1056.0</ele><time>2026-03-22T12:04:18Z</time></trkpt><trkpt lat="41.38367248557587" lon="-3.381213646932008"><ele>1056.0</ele><time>2026-03-22T12:04:20Z</time></trkpt><trkpt lat="41.38372852658117" lon="-3.381330753204119"><ele>1056.0</ele><time>2026-03-22T12:04:22Z</time></trkpt><trkpt lat="41.38379126794039" lon="-3.3814500675369"><ele>1056.0</ele><time>2026-03-22T12:04:24Z</time></trkpt><trkpt lat="41.38385163673278" lon="-3.3815761963355118"><ele>1056.0</ele><time>2026-03-22T12:04:26Z</time></trkpt><trkpt lat="41.3839131796604" lon="-3.3817126805461335"><ele>1056.0</ele><time>2026-03-22T12:04:28Z</time></trkpt><trkpt lat="41.38394506536523" lon="-3.3817853390900527"><ele>1055.857142857143</ele><time>2026-03-22T12:04:29Z</time></trkpt><trkpt lat="41.38397928370748" lon="-3.381855806775275"><ele>1055.7142857142858</ele><time>2026-03-22T12:04:30Z</time></trkpt><trkpt lat="41.38401515478483" lon="-3.3819282213994235"><ele>1055.5714285714287</ele><time>2026-03-22T12:04:31Z</time></trkpt><trkpt lat="41.38405044239109" lon="-3.3820027309665215"><ele>1055.4285714285716</ele><time>2026-03-22T12:04:32Z</time></trkpt><trkpt lat="41.38408596809407" lon="-3.382076720534984"><ele>1055.2857142857144</ele><time>2026-03-22T12:04:33Z</time></trkpt><trkpt lat="41.38412184939495" lon="-3.3821489067407002"><ele>1055.142857142857</ele><time>2026-03-22T12:04:34Z</time></trkpt><trkpt lat="41.384157102893866" lon="-3.3822218706873297"><ele>1055.0</ele><time>2026-03-22T12:04:35Z</time></trkpt><trkpt lat="41.384191712233736" lon="-3.382296942611333"><ele>1054.8333333333335</ele><time>2026-03-22T12:04:36Z</time></trkpt><trkpt lat="41.38425051126825" lon="-3.382427466239287"><ele>1054.6666666666667</ele><time>2026-03-22T12:04:38Z</time></trkpt><trkpt lat="41.384287979656015" lon="-3.382523326571008"><ele>1054.5</ele><time>2026-03-22T12:04:39Z</time></trkpt><trkpt lat="41.38433149217083" lon="-3.3826033549044556"><ele>1054.3333333333333</ele><time>2026-03-22T12:04:40Z</time></trkpt><trkpt lat="41.38437547435176" lon="-3.3826741012927783"><ele>1054.1666666666665</ele><time>2026-03-22T12:04:41Z</time></trkpt><trkpt lat="41.38440662810419" lon="-3.3827556298875487"><ele>1054.0</ele><time>2026-03-22T12:04:42Z</time></trkpt><trkpt lat="41.384439489254184" lon="-3.382827846403866"><ele>1054.0</ele><time>2026-03-22T12:04:43Z</time></trkpt><trkpt lat="41.38450005906497" lon="-3.3829519145082987"><ele>1054.0</ele><time>2026-03-22T12:04:45Z</time></trkpt><trkpt lat="41.38454798977344" lon="-3.383037530559271"><ele>1054.0</ele><time>2026-03-22T12:04:47Z</time></trkpt><trkpt lat="41.384592941842044" lon="-3.3831360602967653"><ele>1054.0</ele><time>2026-03-22T12:04:50Z</time></trkpt><trkpt lat="41.384623391986004" lon="-3.3832216231037577"><ele>1054.0</ele><time>2026-03-22T12:04:53Z</time></trkpt><trkpt lat="41.3845947630029" lon="-3.3833247330276723"><ele>1054.0</ele><time>2026-03-22T12:05:26.999Z</time></trkpt><trkpt lat="41.38448552093513" lon="-3.3833902360867585"><ele>1053.4</ele><time>2026-03-22T12:05:28.999Z</time></trkpt><trkpt lat="41.38436364207912" lon="-3.383454297460105"><ele>1052.8000000000002</ele><time>2026-03-22T12:05:30.999Z</time></trkpt><trkpt lat="41.384293037313036" lon="-3.3834872555015174"><ele>1052.1999999999998</ele><time>2026-03-22T12:05:31.999Z</time></trkpt><trkpt lat="41.38421678740228" lon="-3.383526740849629"><ele>1051.6</ele><time>2026-03-22T12:05:32.999Z</time></trkpt><trkpt lat="41.38413976399329" lon="-3.38356709600207"><ele>1051.0</ele><time>2026-03-22T12:05:33.999Z</time></trkpt><trkpt lat="41.38406395539296" lon="-3.383610595561741"><ele>1051.0</ele><time>2026-03-22T12:05:34.999Z</time></trkpt><trkpt lat="41.3839867674513" lon="-3.383653301272927"><ele>1051.0</ele><time>2026-03-22T12:05:35.999Z</time></trkpt><trkpt lat="41.38390817833991" lon="-3.383696443099285"><ele>1051.0</ele><time>2026-03-22T12:05:36.999Z</time></trkpt><trkpt lat="41.38382662644684" lon="-3.383737663899837"><ele>1051.0</ele><time>2026-03-22T12:05:37.999Z</time></trkpt><trkpt lat="41.38374522207326" lon="-3.3837777343930973"><ele>1051.0</ele><time>2026-03-22T12:05:38.999Z</time></trkpt><trkpt lat="41.3836591693194" lon="-3.3838105749422565"><ele>1051.0</ele><time>2026-03-22T12:05:39.999Z</time></trkpt><trkpt lat="41.38357217320334" lon="-3.3838420742432573"><ele>1050.3333333333333</ele><time>2026-03-22T12:05:40.999Z</time></trkpt><trkpt lat="41.38348611563619" lon="-3.383876703926006"><ele>1049.6666666666665</ele><time>2026-03-22T12:05:41.999Z</time></trkpt><trkpt lat="41.38339701338675" lon="-3.3839020416820316"><ele>1049.0</ele><time>2026-03-22T12:05:42.999Z</time></trkpt><trkpt lat="41.383311057274405" lon="-3.3839249194773453"><ele>1048.3333333333333</ele><time>2026-03-22T12:05:43.999Z</time></trkpt><trkpt lat="41.38322429871909" lon="-3.3839421269222068"><ele>1047.6666666666667</ele><time>2026-03-22T12:05:45Z</time></trkpt><trkpt lat="41.38313528247659" lon="-3.3839655883974196"><ele>1047.0</ele><time>2026-03-22T12:05:46Z</time></trkpt><trkpt lat="41.383046657301854" lon="-3.3839873134721663"><ele>1046.0</ele><time>2026-03-22T12:05:47Z</time></trkpt><trkpt lat="41.38295537626112" lon="-3.3840104277270897"><ele>1045.0</ele><time>2026-03-22T12:05:48Z</time></trkpt><trkpt lat="41.38285779487588" lon="-3.3840448390331557"><ele>1044.0</ele><time>2026-03-22T12:05:49Z</time></trkpt><trkpt lat="41.382754587631844" lon="-3.384091222422238"><ele>1043.0</ele><time>2026-03-22T12:05:50Z</time></trkpt><trkpt lat="41.38264539401655" lon="-3.384155927049457"><ele>1042.0</ele><time>2026-03-22T12:05:51Z</time></trkpt><trkpt lat="41.38254367610409" lon="-3.384246222830068"><ele>1042.0</ele><time>2026-03-22T12:05:52Z</time></trkpt><trkpt lat="41.382447363366104" lon="-3.3843498126873888"><ele>1042.0</ele><time>2026-03-22T12:05:53Z</time></trkpt><trkpt lat="41.382353522373386" lon="-3.384457398913738"><ele>1042.0</ele><time>2026-03-22T12:05:54Z</time></trkpt><trkpt lat="41.38226827740655" lon="-3.3845757324909678"><ele>1042.0</ele><time>2026-03-22T12:05:55Z</time></trkpt><trkpt lat="41.382162275093705" lon="-3.384657568887575"><ele>1040.25</ele><time>2026-03-22T12:05:56Z</time></trkpt><trkpt lat="41.38204602871168" lon="-3.3847119142331046"><ele>1038.5</ele><time>2026-03-22T12:05:57Z</time></trkpt><trkpt lat="41.38194293253334" lon="-3.3847822453660683"><ele>1036.75</ele><time>2026-03-22T12:05:58Z</time></trkpt><trkpt lat="41.38183803261468" lon="-3.384851163536762"><ele>1035.0</ele><time>2026-03-22T12:05:59Z</time></trkpt><trkpt lat="41.381733175137576" lon="-3.3849143911947293"><ele>1035.0</ele><time>2026-03-22T12:06:00Z</time></trkpt><trkpt lat="41.38163379086508" lon="-3.3849805165097795"><ele>1035.0</ele><time>2026-03-22T12:06:01Z</time></trkpt><trkpt lat="41.38153130589789" lon="-3.385042623779151"><ele>1035.0</ele><time>2026-03-22T12:06:02Z</time></trkpt><trkpt lat="41.38143119357057" lon="-3.3851078252608455"><ele>1035.0</ele><time>2026-03-22T12:06:03Z</time></trkpt><trkpt lat="41.38132847129848" lon="-3.3851748487764755"><ele>1035.0</ele><time>2026-03-22T12:06:04Z</time></trkpt><trkpt lat="41.38122222771407" lon="-3.3852401312357125"><ele>1034.25</ele><time>2026-03-22T12:06:05Z</time></trkpt><trkpt lat="41.38111415159183" lon="-3.385300071202221"><ele>1033.5</ele><time>2026-03-22T12:06:06Z</time></trkpt><trkpt lat="41.38100869488418" lon="-3.385367070834992"><ele>1032.75</ele><time>2026-03-22T12:06:07Z</time></trkpt><trkpt lat="41.380901453141426" lon="-3.3854272011227646"><ele>1032.0</ele><time>2026-03-22T12:06:08Z</time></trkpt><trkpt lat="41.3807897718189" lon="-3.3854789332193165"><ele>1032.0</ele><time>2026-03-22T12:06:09Z</time></trkpt><trkpt lat="41.38067964466019" lon="-3.385523123762522"><ele>1032.0</ele><time>2026-03-22T12:06:10Z</time></trkpt><trkpt lat="41.380570332228345" lon="-3.3855652607797078"><ele>1032.0</ele><time>2026-03-22T12:06:11Z</time></trkpt><trkpt lat="41.38046035217817" lon="-3.3855954702881386"><ele>1032.0</ele><time>2026-03-22T12:06:12Z</time></trkpt><trkpt lat="41.38034930140112" lon="-3.385631687505131"><ele>1030.25</ele><time>2026-03-22T12:06:13Z</time></trkpt><trkpt lat="41.38023884456745" lon="-3.385661105722814"><ele>1028.5</ele><time>2026-03-22T12:06:14Z</time></trkpt><trkpt lat="41.38012715168409" lon="-3.3856961985032656"><ele>1026.75</ele><time>2026-03-22T12:06:15Z</time></trkpt><trkpt lat="41.38000536885846" lon="-3.3857243950140057"><ele>1025.0</ele><time>2026-03-22T12:06:16Z</time></trkpt><trkpt lat="41.37987634957758" lon="-3.3857512627791313"><ele>1025.0</ele><time>2026-03-22T12:06:17Z</time></trkpt><trkpt lat="41.37974259018784" lon="-3.3857683696478373"><ele>1025.0</ele><time>2026-03-22T12:06:18Z</time></trkpt><trkpt lat="41.37960644154413" lon="-3.3857836591266017"><ele>1025.0</ele><time>2026-03-22T12:06:19Z</time></trkpt><trkpt lat="41.3794604419284" lon="-3.385795317713295"><ele>1025.0</ele><time>2026-03-22T12:06:20Z</time></trkpt><trkpt lat="41.3793167072313" lon="-3.3858103241603583"><ele>1023.25</ele><time>2026-03-22T12:06:21Z</time></trkpt><trkpt lat="41.379171138335074" lon="-3.3858194310317518"><ele>1021.5</ele><time>2026-03-22T12:06:22Z</time></trkpt><trkpt lat="41.37902441143339" lon="-3.3858339650037763"><ele>1019.75</ele><time>2026-03-22T12:06:23Z</time></trkpt><trkpt lat="41.37887873305443" lon="-3.385847642158163"><ele>1018.0</ele><time>2026-03-22T12:06:24Z</time></trkpt><trkpt lat="41.378732355679695" lon="-3.3858638421720504"><ele>1017.25</ele><time>2026-03-22T12:06:25Z</time></trkpt><trkpt lat="41.37858612425085" lon="-3.3858733225650615"><ele>1016.5</ele><time>2026-03-22T12:06:26Z</time></trkpt><trkpt lat="41.37844015984001" lon="-3.385888689634601"><ele>1015.75</ele><time>2026-03-22T12:06:27Z</time></trkpt><trkpt lat="41.37830104316404" lon="-3.3859077157738087"><ele>1015.0</ele><time>2026-03-22T12:06:28Z</time></trkpt><trkpt lat="41.378158562710475" lon="-3.3859295996465537"><ele>1015.25</ele><time>2026-03-22T12:06:29Z</time></trkpt><trkpt lat="41.378016566826055" lon="-3.385955670325399"><ele>1015.5</ele><time>2026-03-22T12:06:30Z</time></trkpt><trkpt lat="41.377879726341085" lon="-3.3860197394138885"><ele>1015.75</ele><time>2026-03-22T12:06:31Z</time></trkpt><trkpt lat="41.37774381180034" lon="-3.386070024441429"><ele>1016.0</ele><time>2026-03-22T12:06:32Z</time></trkpt><trkpt lat="41.37760151933896" lon="-3.38610335040336"><ele>1016.0</ele><time>2026-03-22T12:06:33Z</time></trkpt><trkpt lat="41.37746647956407" lon="-3.3861624340003957"><ele>1016.0</ele><time>2026-03-22T12:06:34Z</time></trkpt><trkpt lat="41.3773336388878" lon="-3.3862180321524464"><ele>1016.0</ele><time>2026-03-22T12:06:35Z</time></trkpt><trkpt lat="41.37720252891847" lon="-3.3862798861608967"><ele>1016.0</ele><time>2026-03-22T12:06:36Z</time></trkpt><trkpt lat="41.37707599157104" lon="-3.3863384785982347"><ele>1015.0</ele><time>2026-03-22T12:06:36.999Z</time></trkpt><trkpt lat="41.37695191810195" lon="-3.3864046437166704"><ele>1014.0</ele><time>2026-03-22T12:06:37.999Z</time></trkpt><trkpt lat="41.376824458047636" lon="-3.386461187551995"><ele>1013.0</ele><time>2026-03-22T12:06:38.999Z</time></trkpt><trkpt lat="41.376699425121295" lon="-3.3865237114333175"><ele>1012.0</ele><time>2026-03-22T12:06:39.999Z</time></trkpt><trkpt lat="41.3765785019452" lon="-3.3865867485701715"><ele>1012.0</ele><time>2026-03-22T12:06:40.999Z</time></trkpt><trkpt lat="41.37645732494103" lon="-3.386643024832098"><ele>1012.0</ele><time>2026-03-22T12:06:41.999Z</time></trkpt><trkpt lat="41.3763378800566" lon="-3.386697216152577"><ele>1012.0</ele><time>2026-03-22T12:06:42.999Z</time></trkpt><trkpt lat="41.376220476137156" lon="-3.3867553662858376"><ele>1012.0</ele><time>2026-03-22T12:06:43.999Z</time></trkpt><trkpt lat="41.376105620730065" lon="-3.3868123432079074"><ele>1012.75</ele><time>2026-03-22T12:06:44.999Z</time></trkpt><trkpt lat="41.37599338450693" lon="-3.3868667055334667"><ele>1013.5</ele><time>2026-03-22T12:06:45.999Z</time></trkpt><trkpt lat="41.37588192110682" lon="-3.3869194133554568"><ele>1014.25</ele><time>2026-03-22T12:06:46.999Z</time></trkpt><trkpt lat="41.37577174356795" lon="-3.3869713486830544"><ele>1015.0</ele><time>2026-03-22T12:06:47.999Z</time></trkpt><trkpt lat="41.375665982441156" lon="-3.3870230078806025"><ele>1015.0</ele><time>2026-03-22T12:06:48.999Z</time></trkpt><trkpt lat="41.375570452692365" lon="-3.3870984918413094"><ele>1015.0</ele><time>2026-03-22T12:06:49.999Z</time></trkpt><trkpt lat="41.37547382236669" lon="-3.3871557832851926"><ele>1015.0</ele><time>2026-03-22T12:06:50.999Z</time></trkpt><trkpt lat="41.37538339126615" lon="-3.3872203426345378"><ele>1015.0</ele><time>2026-03-22T12:06:51.999Z</time></trkpt><trkpt lat="41.37529244189877" lon="-3.387287230005127"><ele>1015.0</ele><time>2026-03-22T12:06:52.999Z</time></trkpt><trkpt lat="41.375207566663796" lon="-3.3873564608952917"><ele>1016.2</ele><time>2026-03-22T12:06:53.999Z</time></trkpt><trkpt lat="41.375119502447475" lon="-3.3874287320469896"><ele>1017.4</ele><time>2026-03-22T12:06:54.999Z</time></trkpt><trkpt lat="41.37503318606173" lon="-3.3874976645455095"><ele>1018.5999999999999</ele><time>2026-03-22T12:06:55.999Z</time></trkpt><trkpt lat="41.37494525594308" lon="-3.3875678843714954"><ele>1019.8</ele><time>2026-03-22T12:06:56.999Z</time></trkpt><trkpt lat="41.37485749266711" lon="-3.387637972358949"><ele>1021.0</ele><time>2026-03-22T12:06:57.999Z</time></trkpt><trkpt lat="41.37476920002518" lon="-3.3877079569493955"><ele>1021.1999999999999</ele><time>2026-03-22T12:06:58.999Z</time></trkpt><trkpt lat="41.37467298069088" lon="-3.387759911503947"><ele>1021.3999999999999</ele><time>2026-03-22T12:06:59.999Z</time></trkpt><trkpt lat="41.37458533669843" lon="-3.3878311405317767"><ele>1021.6</ele><time>2026-03-22T12:07:00.999Z</time></trkpt><trkpt lat="41.37449655030952" lon="-3.3878986363327974"><ele>1021.8</ele><time>2026-03-22T12:07:01.999Z</time></trkpt><trkpt lat="41.37440782741073" lon="-3.387970653014558"><ele>1022.0</ele><time>2026-03-22T12:07:02.999Z</time></trkpt><trkpt lat="41.374320466707246" lon="-3.3880438703818503"><ele>1022.2</ele><time>2026-03-22T12:07:03.999Z</time></trkpt><trkpt lat="41.37423337358046" lon="-3.388119186985363"><ele>1022.4000000000001</ele><time>2026-03-22T12:07:04.999Z</time></trkpt><trkpt lat="41.37414394004825" lon="-3.3881934731433745"><ele>1022.5999999999999</ele><time>2026-03-22T12:07:05.999Z</time></trkpt><trkpt lat="41.37405282051633" lon="-3.388263827505743"><ele>1022.8</ele><time>2026-03-22T12:07:06.999Z</time></trkpt><trkpt lat="41.37396100292042" lon="-3.388331049503624"><ele>1023.0</ele><time>2026-03-22T12:07:07.999Z</time></trkpt><trkpt lat="41.37386966951795" lon="-3.388402424681816"><ele>1023.2</ele><time>2026-03-22T12:07:08.999Z</time></trkpt><trkpt lat="41.373778001670225" lon="-3.388477787651531"><ele>1023.4</ele><time>2026-03-22T12:07:09.999Z</time></trkpt><trkpt lat="41.373686886182405" lon="-3.3885500842139287"><ele>1023.6000000000001</ele><time>2026-03-22T12:07:10.999Z</time></trkpt><trkpt lat="41.373598712696044" lon="-3.388623014871688"><ele>1023.8000000000001</ele><time>2026-03-22T12:07:11.999Z</time></trkpt><trkpt lat="41.37351513759574" lon="-3.3886901216144416"><ele>1024.0</ele><time>2026-03-22T12:07:12.999Z</time></trkpt><trkpt lat="41.37343634026932" lon="-3.3887538451101755"><ele>1023.9999999999999</ele><time>2026-03-22T12:07:13.999Z</time></trkpt><trkpt lat="41.37336201774791" lon="-3.388818102054952"><ele>1024.0</ele><time>2026-03-22T12:07:14.999Z</time></trkpt><trkpt lat="41.37329193464437" lon="-3.388875976551847"><ele>1024.0</ele><time>2026-03-22T12:07:15.999Z</time></trkpt><trkpt lat="41.37322390835506" lon="-3.388927482564596"><ele>1024.0</ele><time>2026-03-22T12:07:16.999Z</time></trkpt><trkpt lat="41.37315826466762" lon="-3.388975715482481"><ele>1023.9999999999999</ele><time>2026-03-22T12:07:17.999Z</time></trkpt><trkpt lat="41.37309518752501" lon="-3.389024846577862"><ele>1024.0</ele><time>2026-03-22T12:07:18.999Z</time></trkpt><trkpt lat="41.37303345539251" lon="-3.389073391628684"><ele>1024.6000000000001</ele><time>2026-03-22T12:07:19.999Z</time></trkpt><trkpt lat="41.37297440213296" lon="-3.389119223785885"><ele>1025.2</ele><time>2026-03-22T12:07:20.999Z</time></trkpt><trkpt lat="41.37291849685234" lon="-3.3891614293065935"><ele>1025.8000000000002</ele><time>2026-03-22T12:07:21.999Z</time></trkpt><trkpt lat="41.372826207517235" lon="-3.3892593855830615"><ele>1026.4</ele><time>2026-03-22T12:07:23.999Z</time></trkpt><trkpt lat="41.37274627487967" lon="-3.3893234391508416"><ele>1027.0</ele><time>2026-03-22T12:07:25.999Z</time></trkpt><trkpt lat="41.37263575428272" lon="-3.3892053873787664"><ele>1027.0</ele><time>2026-03-22T12:07:27.999Z</time></trkpt><trkpt lat="41.372594061237514" lon="-3.389058488374899"><ele>1027.0</ele><time>2026-03-22T12:07:29.999Z</time></trkpt><trkpt lat="41.372547802218044" lon="-3.388903472330753"><ele>1027.0</ele><time>2026-03-22T12:07:31.999Z</time></trkpt><trkpt lat="41.37250675968129" lon="-3.3888343851074123"><ele>1027.0</ele><time>2026-03-22T12:07:32.999Z</time></trkpt><trkpt lat="41.37247595330563" lon="-3.3887540986164524"><ele>1027.0</ele><time>2026-03-22T12:07:33.999Z</time></trkpt><trkpt lat="41.37244408112254" lon="-3.3886730278680153"><ele>1027.0</ele><time>2026-03-22T12:07:34.999Z</time></trkpt><trkpt lat="41.372412414659316" lon="-3.38859248039436"><ele>1026.4</ele><time>2026-03-22T12:07:35.999Z</time></trkpt><trkpt lat="41.37238197455804" lon="-3.3885150523304053"><ele>1025.8000000000002</ele><time>2026-03-22T12:07:36.999Z</time></trkpt><trkpt lat="41.3723160226443" lon="-3.3883889828369202"><ele>1025.2</ele><time>2026-03-22T12:07:38.999Z</time></trkpt><trkpt lat="41.37227729064038" lon="-3.388311182813434"><ele>1024.6000000000001</ele><time>2026-03-22T12:08:24Z</time></trkpt><trkpt lat="41.37234236083446" lon="-3.3883361615130636"><ele>1024.0</ele><time>2026-03-22T12:08:26Z</time></trkpt><trkpt lat="41.37240886029205" lon="-3.388554014239097"><ele>1024.0</ele><time>2026-03-22T12:08:29Z</time></trkpt><trkpt lat="41.372438774652366" lon="-3.3886289705616566"><ele>1023.9999999999999</ele><time>2026-03-22T12:08:30Z</time></trkpt><trkpt lat="41.372489174243704" lon="-3.3886921548323805"><ele>1024.0</ele><time>2026-03-22T12:08:31Z</time></trkpt><trkpt lat="41.37252155154031" lon="-3.3887745104613853"><ele>1024.0</ele><time>2026-03-22T12:08:32Z</time></trkpt><trkpt lat="41.37255420647509" lon="-3.388861323898777"><ele>1023.9999999999999</ele><time>2026-03-22T12:08:33Z</time></trkpt><trkpt lat="41.372587857919186" lon="-3.388950371768737"><ele>1024.0</ele><time>2026-03-22T12:08:34Z</time></trkpt><trkpt lat="41.37262179931405" lon="-3.3890401869474345"><ele>1024.0</ele><time>2026-03-22T12:08:35Z</time></trkpt><trkpt lat="41.37266193729863" lon="-3.3891463994481716"><ele>1024.5</ele><time>2026-03-22T12:08:36Z</time></trkpt><trkpt lat="41.37269358046234" lon="-3.3892301330432004"><ele>1025.0</ele><time>2026-03-22T12:08:37Z</time></trkpt><trkpt lat="41.37272922345376" lon="-3.389324450997917"><ele>1025.5</ele><time>2026-03-22T12:08:38Z</time></trkpt><trkpt lat="41.37276648610183" lon="-3.3894215189553303"><ele>1026.0</ele><time>2026-03-22T12:08:39Z</time></trkpt><trkpt lat="41.372803739091935" lon="-3.3895186853296955"><ele>1026.5</ele><time>2026-03-22T12:08:40Z</time></trkpt><trkpt lat="41.3728398604754" lon="-3.3896129001436957"><ele>1027.0</ele><time>2026-03-22T12:08:41Z</time></trkpt><trkpt lat="41.37287752013453" lon="-3.3897111272254987"><ele>1027.0</ele><time>2026-03-22T12:08:42Z</time></trkpt><trkpt lat="41.372915170355526" lon="-3.3898093296777807"><ele>1027.0</ele><time>2026-03-22T12:08:43Z</time></trkpt><trkpt lat="41.37295186485507" lon="-3.3899050393407517"><ele>1027.0</ele><time>2026-03-22T12:08:44Z</time></trkpt><trkpt lat="41.372989980416676" lon="-3.3900044555418067"><ele>1027.0</ele><time>2026-03-22T12:08:45Z</time></trkpt><trkpt lat="41.373031524387365" lon="-3.390109107564744"><ele>1027.0</ele><time>2026-03-22T12:08:46Z</time></trkpt><trkpt lat="41.37306943963769" lon="-3.390201242390055"><ele>1027.0</ele><time>2026-03-22T12:08:47Z</time></trkpt><trkpt lat="41.3731126829529" lon="-3.3903063245383582"><ele>1027.0</ele><time>2026-03-22T12:08:48Z</time></trkpt><trkpt lat="41.37315388128717" lon="-3.3904064373000087"><ele>1027.0</ele><time>2026-03-22T12:08:49Z</time></trkpt><trkpt lat="41.37319950432267" lon="-3.3905110418937174"><ele>1027.0</ele><time>2026-03-22T12:08:49.999Z</time></trkpt><trkpt lat="41.37324297788826" lon="-3.390606353785928"><ele>1027.0</ele><time>2026-03-22T12:08:50.999Z</time></trkpt><trkpt lat="41.37329041529545" lon="-3.3907029792949697"><ele>1027.0</ele><time>2026-03-22T12:08:51.999Z</time></trkpt><trkpt lat="41.37333730830566" lon="-3.390798495934637"><ele>1027.0</ele><time>2026-03-22T12:08:52.999Z</time></trkpt><trkpt lat="41.373382532004136" lon="-3.3908887550114515"><ele>1027.6</ele><time>2026-03-22T12:08:53.999Z</time></trkpt><trkpt lat="41.3734340088242" lon="-3.3909869766096516"><ele>1028.2</ele><time>2026-03-22T12:08:54.999Z</time></trkpt><trkpt lat="41.37348600760624" lon="-3.3910861941604793"><ele>1028.8</ele><time>2026-03-22T12:08:55.999Z</time></trkpt><trkpt lat="41.373537863474816" lon="-3.3911848301681635"><ele>1029.4</ele><time>2026-03-22T12:08:56.999Z</time></trkpt><trkpt lat="41.37359191947219" lon="-3.3912861038835986"><ele>1030.0</ele><time>2026-03-22T12:08:57.999Z</time></trkpt><trkpt lat="41.37364776358125" lon="-3.3913907276062187"><ele>1030.0</ele><time>2026-03-22T12:08:58.999Z</time></trkpt><trkpt lat="41.373701370000916" lon="-3.3914911590128876"><ele>1030.0</ele><time>2026-03-22T12:08:59.999Z</time></trkpt><trkpt lat="41.3737575100645" lon="-3.3915963372322335"><ele>1030.0</ele><time>2026-03-22T12:09:00.999Z</time></trkpt><trkpt lat="41.37380940576407" lon="-3.3916925790051446"><ele>1030.0</ele><time>2026-03-22T12:09:01.999Z</time></trkpt><trkpt lat="41.373850827352136" lon="-3.3918028613629283"><ele>1030.0</ele><time>2026-03-22T12:09:02.999Z</time></trkpt><trkpt lat="41.373909003308164" lon="-3.3919111905874435"><ele>1029.8</ele><time>2026-03-22T12:09:03.999Z</time></trkpt><trkpt lat="41.37397905153911" lon="-3.392002994575354"><ele>1029.6</ele><time>2026-03-22T12:09:04.999Z</time></trkpt><trkpt lat="41.374035441475506" lon="-3.392111077178137"><ele>1029.4</ele><time>2026-03-22T12:09:05.999Z</time></trkpt><trkpt lat="41.374077602162885" lon="-3.39223548707694"><ele>1029.2</ele><time>2026-03-22T12:09:06.999Z</time></trkpt><trkpt lat="41.37413089486739" lon="-3.392352467095784"><ele>1029.0</ele><time>2026-03-22T12:09:07.999Z</time></trkpt><trkpt lat="41.37416893257064" lon="-3.392483916657017"><ele>1029.0</ele><time>2026-03-22T12:09:08.999Z</time></trkpt><trkpt lat="41.374184582649356" lon="-3.3926262865897248"><ele>1029.0</ele><time>2026-03-22T12:09:09.999Z</time></trkpt><trkpt lat="41.374183931415665" lon="-3.3927760679561545"><ele>1029.0</ele><time>2026-03-22T12:09:10.999Z</time></trkpt><trkpt lat="41.37416885267001" lon="-3.3929258882397395"><ele>1029.0</ele><time>2026-03-22T12:09:11.999Z</time></trkpt><trkpt lat="41.37414718702567" lon="-3.393074738777725"><ele>1029.0</ele><time>2026-03-22T12:09:12.999Z</time></trkpt><trkpt lat="41.374136593754294" lon="-3.3932255748480666"><ele>1029.0</ele><time>2026-03-22T12:09:13.999Z</time></trkpt><trkpt lat="41.3741177535644" lon="-3.3933723713406327"><ele>1029.0</ele><time>2026-03-22T12:09:14.999Z</time></trkpt><trkpt lat="41.37409918506864" lon="-3.393517050882731"><ele>1029.0</ele><time>2026-03-22T12:09:15.999Z</time></trkpt><trkpt lat="41.374080256654786" lon="-3.393662230098759"><ele>1029.0</ele><time>2026-03-22T12:09:16.999Z</time></trkpt><trkpt lat="41.37406127560109" lon="-3.3938039205145163"><ele>1029.0</ele><time>2026-03-22T12:09:17.999Z</time></trkpt><trkpt lat="41.37404372451642" lon="-3.393934936378792"><ele>1029.3333333333333</ele><time>2026-03-22T12:09:18.999Z</time></trkpt><trkpt lat="41.37402957958744" lon="-3.3940405259066244"><ele>1029.6666666666667</ele><time>2026-03-22T12:09:19.999Z</time></trkpt><trkpt lat="41.37402389656609" lon="-3.3941259708267437"><ele>1030.0</ele><time>2026-03-22T12:09:20.999Z</time></trkpt><trkpt lat="41.3741752360369" lon="-3.394191310870724"><ele>1030.3333333333335</ele><time>2026-03-22T12:09:22.999Z</time></trkpt><trkpt lat="41.3742389798582" lon="-3.394228680554273"><ele>1030.6666666666667</ele><time>2026-03-22T12:09:23.999Z</time></trkpt><trkpt lat="41.37430601790174" lon="-3.394267981483597"><ele>1031.0</ele><time>2026-03-22T12:09:24.999Z</time></trkpt><trkpt lat="41.37437460888934" lon="-3.3943081928171988"><ele>1031.0</ele><time>2026-03-22T12:09:25.999Z</time></trkpt><trkpt lat="41.374444969993995" lon="-3.3943512056142136"><ele>1031.0</ele><time>2026-03-22T12:09:26.999Z</time></trkpt><trkpt lat="41.374516190081984" lon="-3.3943955180671144"><ele>1031.0</ele><time>2026-03-22T12:09:27.999Z</time></trkpt><trkpt lat="41.37458714353659" lon="-3.394439664622882"><ele>1031.0</ele><time>2026-03-22T12:09:28.999Z</time></trkpt><trkpt lat="41.37466342618164" lon="-3.39448712695183"><ele>1031.0</ele><time>2026-03-22T12:09:29.999Z</time></trkpt><trkpt lat="41.374741636262854" lon="-3.3945357885134113"><ele>1031.0</ele><time>2026-03-22T12:09:30.999Z</time></trkpt><trkpt lat="41.37482131669155" lon="-3.3945853649110087"><ele>1031.0</ele><time>2026-03-22T12:09:31.999Z</time></trkpt><trkpt lat="41.37490568827367" lon="-3.394637860091748"><ele>1031.0</ele><time>2026-03-22T12:09:32.999Z</time></trkpt><trkpt lat="41.374987745476375" lon="-3.3946889153050783"><ele>1031.0</ele><time>2026-03-22T12:09:33.999Z</time></trkpt><trkpt lat="41.37507023412739" lon="-3.394740238952529"><ele>1031.0</ele><time>2026-03-22T12:09:34.999Z</time></trkpt><trkpt lat="41.375156785411704" lon="-3.3947942194976743"><ele>1031.0</ele><time>2026-03-22T12:09:35.999Z</time></trkpt><trkpt lat="41.37524466776614" lon="-3.3948490815377204"><ele>1031.0</ele><time>2026-03-22T12:09:36.999Z</time></trkpt><trkpt lat="41.375330841357496" lon="-3.3949174149586434"><ele>1031.0</ele><time>2026-03-22T12:09:37.999Z</time></trkpt><trkpt lat="41.375415532863016" lon="-3.394977838823917"><ele>1031.0</ele><time>2026-03-22T12:09:38.999Z</time></trkpt><trkpt lat="41.375514864492196" lon="-3.3950228112246923"><ele>1031.0</ele><time>2026-03-22T12:09:39.999Z</time></trkpt><trkpt lat="41.37560936785453" lon="-3.3950900015074605"><ele>1031.0</ele><time>2026-03-22T12:09:40.999Z</time></trkpt><trkpt lat="41.375696230318106" lon="-3.3951689262689504"><ele>1030.8</ele><time>2026-03-22T12:09:41.999Z</time></trkpt><trkpt lat="41.37578766958251" lon="-3.395242269968698"><ele>1030.6</ele><time>2026-03-22T12:09:42.999Z</time></trkpt><trkpt lat="41.375861477904486" lon="-3.3953371960824485"><ele>1030.4</ele><time>2026-03-22T12:09:43.999Z</time></trkpt><trkpt lat="41.37593222400312" lon="-3.3954366205890385"><ele>1030.2</ele><time>2026-03-22T12:09:44.999Z</time></trkpt><trkpt lat="41.37600195853934" lon="-3.395538354001559"><ele>1030.0</ele><time>2026-03-22T12:09:45.999Z</time></trkpt><trkpt lat="41.376076724471766" lon="-3.395637305210344"><ele>1029.8</ele><time>2026-03-22T12:09:46.999Z</time></trkpt><trkpt lat="41.376146670791094" lon="-3.3957394079751175"><ele>1029.6</ele><time>2026-03-22T12:09:47.999Z</time></trkpt><trkpt lat="41.376209909557296" lon="-3.3958542239675578"><ele>1029.4</ele><time>2026-03-22T12:09:48.999Z</time></trkpt><trkpt lat="41.37629400022907" lon="-3.3959515626022982"><ele>1029.2</ele><time>2026-03-22T12:09:49.999Z</time></trkpt><trkpt lat="41.3763501576791" lon="-3.3960760833725456"><ele>1029.0</ele><time>2026-03-22T12:09:50.999Z</time></trkpt><trkpt lat="41.37641269335096" lon="-3.396193997332149"><ele>1029.0</ele><time>2026-03-22T12:09:51.999Z</time></trkpt><trkpt lat="41.37647591114193" lon="-3.396314139032617"><ele>1029.0</ele><time>2026-03-22T12:09:52.999Z</time></trkpt><trkpt lat="41.376535524225645" lon="-3.396436040144891"><ele>1029.0</ele><time>2026-03-22T12:09:53.999Z</time></trkpt><trkpt lat="41.37659457077898" lon="-3.3965613506557646"><ele>1029.0</ele><time>2026-03-22T12:09:54.999Z</time></trkpt><trkpt lat="41.37665441639453" lon="-3.3966853230300464"><ele>1029.0</ele><time>2026-03-22T12:09:55.999Z</time></trkpt><trkpt lat="41.37671443871973" lon="-3.3968121607604784"><ele>1029.0</ele><time>2026-03-22T12:09:57Z</time></trkpt><trkpt lat="41.37677498206922" lon="-3.396938837436085"><ele>1029.0</ele><time>2026-03-22T12:09:58Z</time></trkpt><trkpt lat="41.37683422664939" lon="-3.3970649943815645"><ele>1029.0</ele><time>2026-03-22T12:09:59Z</time></trkpt><trkpt lat="41.37689625327262" lon="-3.397192037605154"><ele>1029.0</ele><time>2026-03-22T12:10:00Z</time></trkpt><trkpt lat="41.37695612837473" lon="-3.397321254521965"><ele>1029.0</ele><time>2026-03-22T12:10:01Z</time></trkpt><trkpt lat="41.37701546325539" lon="-3.397453138002268"><ele>1029.0</ele><time>2026-03-22T12:10:02Z</time></trkpt><trkpt lat="41.3770778266233" lon="-3.397579886596393"><ele>1029.0</ele><time>2026-03-22T12:10:03Z</time></trkpt><trkpt lat="41.37713868943568" lon="-3.3977095631707925"><ele>1029.0</ele><time>2026-03-22T12:10:04Z</time></trkpt><trkpt lat="41.37721079045333" lon="-3.3978273304356112"><ele>1028.25</ele><time>2026-03-22T12:10:05Z</time></trkpt><trkpt lat="41.37725905095287" lon="-3.397968809674065"><ele>1027.5</ele><time>2026-03-22T12:10:06Z</time></trkpt><trkpt lat="41.37732478604763" lon="-3.3980931116119764"><ele>1026.75</ele><time>2026-03-22T12:10:07Z</time></trkpt><trkpt lat="41.377384645546755" lon="-3.398220243475698"><ele>1026.0</ele><time>2026-03-22T12:10:08Z</time></trkpt><trkpt lat="41.377444785397806" lon="-3.398339793624748"><ele>1026.0</ele><time>2026-03-22T12:10:09Z</time></trkpt><trkpt lat="41.37750080023925" lon="-3.3984652835852667"><ele>1026.0</ele><time>2026-03-22T12:10:10Z</time></trkpt><trkpt lat="41.377573775203714" lon="-3.3985728249074425"><ele>1026.0</ele><time>2026-03-22T12:10:11Z</time></trkpt><trkpt lat="41.377631778780284" lon="-3.3986910297206614"><ele>1026.0</ele><time>2026-03-22T12:10:12Z</time></trkpt><trkpt lat="41.37768942036272" lon="-3.398809592398052"><ele>1026.0</ele><time>2026-03-22T12:10:13Z</time></trkpt><trkpt lat="41.37774651703015" lon="-3.398928980599253"><ele>1025.6</ele><time>2026-03-22T12:10:14Z</time></trkpt><trkpt lat="41.37780343565863" lon="-3.399048175000884"><ele>1025.1999999999998</ele><time>2026-03-22T12:10:15Z</time></trkpt><trkpt lat="41.37786010859213" lon="-3.3991668548940153"><ele>1024.8000000000002</ele><time>2026-03-22T12:10:16Z</time></trkpt><trkpt lat="41.37791672392046" lon="-3.3992854141425197"><ele>1024.4</ele><time>2026-03-22T12:10:17Z</time></trkpt><trkpt lat="41.377974503033066" lon="-3.3994064105097355"><ele>1024.0</ele><time>2026-03-22T12:10:18Z</time></trkpt><trkpt lat="41.37803200610223" lon="-3.3995268287949716"><ele>1024.0</ele><time>2026-03-22T12:10:19Z</time></trkpt><trkpt lat="41.37808700644136" lon="-3.3996420060770998"><ele>1024.0</ele><time>2026-03-22T12:10:20Z</time></trkpt><trkpt lat="41.37813228571388" lon="-3.3997694323715626"><ele>1024.0</ele><time>2026-03-22T12:10:21Z</time></trkpt><trkpt lat="41.3782002184531" lon="-3.3998790855373264"><ele>1024.0</ele><time>2026-03-22T12:10:22Z</time></trkpt><trkpt lat="41.378255493631606" lon="-3.399994838358386"><ele>1024.0</ele><time>2026-03-22T12:10:23Z</time></trkpt><trkpt lat="41.378312472327146" lon="-3.400114158550395"><ele>1025.0</ele><time>2026-03-22T12:10:24Z</time></trkpt><trkpt lat="41.37835734638635" lon="-3.400247607422981"><ele>1026.0</ele><time>2026-03-22T12:10:25Z</time></trkpt><trkpt lat="41.37841544689033" lon="-3.4003666164723776"><ele>1027.0</ele><time>2026-03-22T12:10:26Z</time></trkpt><trkpt lat="41.37847570882033" lon="-3.4004869627439858"><ele>1028.0</ele><time>2026-03-22T12:10:27Z</time></trkpt><trkpt lat="41.37853501555066" lon="-3.4006119215117954"><ele>1029.0</ele><time>2026-03-22T12:10:28Z</time></trkpt><trkpt lat="41.378593508447636" lon="-3.4007385516900723"><ele>1029.25</ele><time>2026-03-22T12:10:29Z</time></trkpt><trkpt lat="41.378650674907455" lon="-3.4008710938422677"><ele>1029.5</ele><time>2026-03-22T12:10:30Z</time></trkpt><trkpt lat="41.37872523898424" lon="-3.4009896480439537"><ele>1029.75</ele><time>2026-03-22T12:10:31Z</time></trkpt><trkpt lat="41.37878728614815" lon="-3.4011228642131797"><ele>1030.0</ele><time>2026-03-22T12:10:32Z</time></trkpt><trkpt lat="41.37885132429285" lon="-3.4012563834906357"><ele>1028.25</ele><time>2026-03-22T12:10:33Z</time></trkpt><trkpt lat="41.378918686143074" lon="-3.401388039800762"><ele>1026.5</ele><time>2026-03-22T12:10:34Z</time></trkpt><trkpt lat="41.37899275279165" lon="-3.401519870401827"><ele>1024.75</ele><time>2026-03-22T12:10:35Z</time></trkpt><trkpt lat="41.37907323668922" lon="-3.40164448666071"><ele>1023.0</ele><time>2026-03-22T12:10:36Z</time></trkpt><trkpt lat="41.3791578574573" lon="-3.4017550537761863"><ele>1023.0</ele><time>2026-03-22T12:10:37Z</time></trkpt><trkpt lat="41.379247407986526" lon="-3.401852661701456"><ele>1023.0</ele><time>2026-03-22T12:10:38Z</time></trkpt><trkpt lat="41.37933738251068" lon="-3.401943618092456"><ele>1023.0</ele><time>2026-03-22T12:10:39Z</time></trkpt><trkpt lat="41.37941812555372" lon="-3.4020495796011723"><ele>1023.0</ele><time>2026-03-22T12:10:40Z</time></trkpt><trkpt lat="41.379504068388506" lon="-3.402135311985091"><ele>1023.0</ele><time>2026-03-22T12:10:41Z</time></trkpt><trkpt lat="41.37958964050788" lon="-3.402221919759021"><ele>1023.2</ele><time>2026-03-22T12:10:42Z</time></trkpt><trkpt lat="41.37967040907984" lon="-3.4023115182759742"><ele>1023.4</ele><time>2026-03-22T12:10:43Z</time></trkpt><trkpt lat="41.37974559142804" lon="-3.402390467635937"><ele>1023.6000000000001</ele><time>2026-03-22T12:10:43.999Z</time></trkpt><trkpt lat="41.37980658227154" lon="-3.402457117718489"><ele>1023.8000000000001</ele><time>2026-03-22T12:10:44.999Z</time></trkpt><trkpt lat="41.379889244100184" lon="-3.402545061744741"><ele>1024.0</ele><time>2026-03-22T12:10:46.999Z</time></trkpt><trkpt lat="41.379962709561255" lon="-3.4025947886172716"><ele>1023.75</ele><time>2026-03-22T12:10:49.999Z</time></trkpt><trkpt lat="41.38001978261123" lon="-3.40265465319222"><ele>1023.5</ele><time>2026-03-22T12:10:59.999Z</time></trkpt><trkpt lat="41.380157298179746" lon="-3.4028232024402794"><ele>1023.25</ele><time>2026-03-22T12:11:42.999Z</time></trkpt><trkpt lat="41.38023418707405" lon="-3.4029126491569612"><ele>1023.0</ele><time>2026-03-22T12:11:44.999Z</time></trkpt><trkpt lat="41.3803270376598" lon="-3.4030021999897175"><ele>1023.0</ele><time>2026-03-22T12:11:46.999Z</time></trkpt><trkpt lat="41.38040268062332" lon="-3.4031122506063234"><ele>1023.0</ele><time>2026-03-22T12:11:48.999Z</time></trkpt><trkpt lat="41.380473098675324" lon="-3.4032297494229504"><ele>1023.0</ele><time>2026-03-22T12:11:50.999Z</time></trkpt><trkpt lat="41.38053827119034" lon="-3.403354081250712"><ele>1023.0</ele><time>2026-03-22T12:11:52.999Z</time></trkpt><trkpt lat="41.380601513587564" lon="-3.403495462054497"><ele>1023.3333333333334</ele><time>2026-03-22T12:11:54.999Z</time></trkpt><trkpt lat="41.38066439264341" lon="-3.4036433675236273"><ele>1023.6666666666667</ele><time>2026-03-22T12:11:56.999Z</time></trkpt><trkpt lat="41.38069727182357" lon="-3.403721624020781"><ele>1024.0</ele><time>2026-03-22T12:11:57.999Z</time></trkpt><trkpt lat="41.3807287809114" lon="-3.4037966195618257"><ele>1024.3333333333335</ele><time>2026-03-22T12:11:58.999Z</time></trkpt><trkpt lat="41.38076089173985" lon="-3.4038730473022882"><ele>1024.6666666666667</ele><time>2026-03-22T12:11:59.999Z</time></trkpt><trkpt lat="41.38079280691954" lon="-3.4039490093605203"><ele>1025.0</ele><time>2026-03-22T12:12:00.999Z</time></trkpt><trkpt lat="41.38082420974088" lon="-3.404022552100792"><ele>1024.9999999999998</ele><time>2026-03-22T12:12:01.999Z</time></trkpt><trkpt lat="41.38085635993397" lon="-3.404096263980249"><ele>1025.0</ele><time>2026-03-22T12:12:03Z</time></trkpt><trkpt lat="41.38089020207055" lon="-3.4041738550506664"><ele>1025.0</ele><time>2026-03-22T12:12:04Z</time></trkpt><trkpt lat="41.3809252448385" lon="-3.404251698301334"><ele>1025.0</ele><time>2026-03-22T12:12:05Z</time></trkpt><trkpt lat="41.38096183144833" lon="-3.4043279783072253"><ele>1025.0</ele><time>2026-03-22T12:12:06Z</time></trkpt><trkpt lat="41.381000514717186" lon="-3.404402476289012"><ele>1024.9999999999998</ele><time>2026-03-22T12:12:07Z</time></trkpt><trkpt lat="41.38104204435394" lon="-3.4044676785440053"><ele>1025.0</ele><time>2026-03-22T12:12:08Z</time></trkpt><trkpt lat="41.381087643295835" lon="-3.4045358585218635"><ele>1025.0</ele><time>2026-03-22T12:12:09Z</time></trkpt><trkpt lat="41.38113272015315" lon="-3.4046016091318663"><ele>1025.0</ele><time>2026-03-22T12:12:10Z</time></trkpt><trkpt lat="41.38118496277329" lon="-3.40466197617932"><ele>1025.0</ele><time>2026-03-22T12:12:11Z</time></trkpt><trkpt lat="41.38124354040255" lon="-3.40472660716639"><ele>1025.0</ele><time>2026-03-22T12:12:12Z</time></trkpt><trkpt lat="41.38130237972945" lon="-3.4047915268669233"><ele>1025.0</ele><time>2026-03-22T12:12:13Z</time></trkpt><trkpt lat="41.381352530545215" lon="-3.4048753493358315"><ele>1025.0</ele><time>2026-03-22T12:12:14Z</time></trkpt><trkpt lat="41.381415825042424" lon="-3.404944043715398"><ele>1024.6</ele><time>2026-03-22T12:12:15Z</time></trkpt><trkpt lat="41.381491212262354" lon="-3.4049972243171736"><ele>1024.2</ele><time>2026-03-22T12:12:16Z</time></trkpt><trkpt lat="41.3815601366492" lon="-3.405069592155879"><ele>1023.8</ele><time>2026-03-22T12:12:17Z</time></trkpt><trkpt lat="41.381623411920245" lon="-3.4051558108865794"><ele>1023.4</ele><time>2026-03-22T12:12:18Z</time></trkpt><trkpt lat="41.38170215719643" lon="-3.4052187080154197"><ele>1023.0</ele><time>2026-03-22T12:12:19Z</time></trkpt><trkpt lat="41.38176648606638" lon="-3.405310928184747"><ele>1023.0</ele><time>2026-03-22T12:12:20Z</time></trkpt><trkpt lat="41.38183841174661" lon="-3.4053899961096086"><ele>1023.0</ele><time>2026-03-22T12:12:21Z</time></trkpt><trkpt lat="41.38191461496301" lon="-3.405472412637846"><ele>1023.0</ele><time>2026-03-22T12:12:22Z</time></trkpt><trkpt lat="41.38200066262102" lon="-3.405538085623731"><ele>1023.0</ele><time>2026-03-22T12:12:23Z</time></trkpt><trkpt lat="41.3820758700172" lon="-3.4056244775715037"><ele>1023.0</ele><time>2026-03-22T12:12:24Z</time></trkpt><trkpt lat="41.382146379994175" lon="-3.4057203812990378"><ele>1023.4</ele><time>2026-03-22T12:12:25Z</time></trkpt><trkpt lat="41.382200662314226" lon="-3.4058446444702244"><ele>1023.8</ele><time>2026-03-22T12:12:26Z</time></trkpt><trkpt lat="41.38224857272654" lon="-3.405958007238238"><ele>1024.2</ele><time>2026-03-22T12:12:27Z</time></trkpt><trkpt lat="41.38230994863752" lon="-3.4060692867561757"><ele>1024.6</ele><time>2026-03-22T12:12:28Z</time></trkpt><trkpt lat="41.38235265042058" lon="-3.4061916621095283"><ele>1025.0</ele><time>2026-03-22T12:12:29Z</time></trkpt><trkpt lat="41.38238991484235" lon="-3.406315652452529"><ele>1025.0</ele><time>2026-03-22T12:12:30Z</time></trkpt><trkpt lat="41.38242380604217" lon="-3.406436389798253"><ele>1025.0</ele><time>2026-03-22T12:12:31Z</time></trkpt><trkpt lat="41.38245759480623" lon="-3.406556762332383"><ele>1025.0</ele><time>2026-03-22T12:12:32Z</time></trkpt><trkpt lat="41.382489123860566" lon="-3.4066753641173815"><ele>1025.0</ele><time>2026-03-22T12:12:33Z</time></trkpt><trkpt lat="41.382516682467894" lon="-3.4067953557030446"><ele>1025.0</ele><time>2026-03-22T12:12:33.999Z</time></trkpt><trkpt lat="41.38254131039614" lon="-3.4069148561378184"><ele>1025.0</ele><time>2026-03-22T12:12:34.999Z</time></trkpt><trkpt lat="41.382564786685876" lon="-3.407033055805915"><ele>1025.0</ele><time>2026-03-22T12:12:35.999Z</time></trkpt><trkpt lat="41.38258591209136" lon="-3.4071498739270205"><ele>1025.0</ele><time>2026-03-22T12:12:36.999Z</time></trkpt><trkpt lat="41.38260710631847" lon="-3.4072687600381264"><ele>1025.0</ele><time>2026-03-22T12:12:37.999Z</time></trkpt><trkpt lat="41.38262603240095" lon="-3.4073877901808185"><ele>1025.0</ele><time>2026-03-22T12:12:38.999Z</time></trkpt><trkpt lat="41.38264129826089" lon="-3.4075047969071797"><ele>1025.8</ele><time>2026-03-22T12:12:39.999Z</time></trkpt><trkpt lat="41.38265548094346" lon="-3.4076274463941316"><ele>1026.6</ele><time>2026-03-22T12:12:40.999Z</time></trkpt><trkpt lat="41.38266881199556" lon="-3.407747911260669"><ele>1027.4</ele><time>2026-03-22T12:12:41.999Z</time></trkpt><trkpt lat="41.38268051970188" lon="-3.4078690073928386"><ele>1028.2</ele><time>2026-03-22T12:12:42.999Z</time></trkpt><trkpt lat="41.382691509205095" lon="-3.4079932381475766"><ele>1029.0</ele><time>2026-03-22T12:12:43.999Z</time></trkpt><trkpt lat="41.38270171661435" lon="-3.408116577694439"><ele>1029.0</ele><time>2026-03-22T12:12:44.999Z</time></trkpt><trkpt lat="41.38271164816445" lon="-3.408241521963689"><ele>1029.0</ele><time>2026-03-22T12:12:45.999Z</time></trkpt><trkpt lat="41.38271898436834" lon="-3.4083677657930953"><ele>1029.0</ele><time>2026-03-22T12:12:46.999Z</time></trkpt><trkpt lat="41.382725766063885" lon="-3.408494850419828"><ele>1029.0</ele><time>2026-03-22T12:12:47.999Z</time></trkpt><trkpt lat="41.38273068999781" lon="-3.4086275889410813"><ele>1029.0</ele><time>2026-03-22T12:12:48.999Z</time></trkpt><trkpt lat="41.382734972729665" lon="-3.408750535944462"><ele>1029.0</ele><time>2026-03-22T12:12:49.999Z</time></trkpt><trkpt lat="41.382739528381805" lon="-3.4088813177698496"><ele>1029.0</ele><time>2026-03-22T12:12:50.999Z</time></trkpt><trkpt lat="41.382744080005395" lon="-3.4090119839766597"><ele>1029.0</ele><time>2026-03-22T12:12:51.999Z</time></trkpt><trkpt lat="41.38274725324873" lon="-3.4091421919028515"><ele>1029.0</ele><time>2026-03-22T12:12:52.999Z</time></trkpt><trkpt lat="41.382750211774116" lon="-3.40927822255125"><ele>1029.0</ele><time>2026-03-22T12:12:53.999Z</time></trkpt><trkpt lat="41.3827527889" lon="-3.4094155833355777"><ele>1029.0</ele><time>2026-03-22T12:12:54.999Z</time></trkpt><trkpt lat="41.38275407047906" lon="-3.4095498559413793"><ele>1029.0</ele><time>2026-03-22T12:12:55.999Z</time></trkpt><trkpt lat="41.38275529556552" lon="-3.409687425944759"><ele>1029.0</ele><time>2026-03-22T12:12:56.999Z</time></trkpt><trkpt lat="41.3827565271842" lon="-3.4098257295545356"><ele>1029.0</ele><time>2026-03-22T12:12:57.999Z</time></trkpt><trkpt lat="41.38275776945653" lon="-3.4099652294215206"><ele>1029.0</ele><time>2026-03-22T12:12:58.999Z</time></trkpt><trkpt lat="41.38275871769084" lon="-3.4101066919329712"><ele>1029.2</ele><time>2026-03-22T12:12:59.999Z</time></trkpt><trkpt lat="41.382759564369636" lon="-3.4102463937219554"><ele>1029.4</ele><time>2026-03-22T12:13:00.999Z</time></trkpt><trkpt lat="41.3827596023002" lon="-3.410383929060368"><ele>1029.6</ele><time>2026-03-22T12:13:01.999Z</time></trkpt><trkpt lat="41.38275848312376" lon="-3.410523459126948"><ele>1029.8</ele><time>2026-03-22T12:13:02.999Z</time></trkpt><trkpt lat="41.38275735700055" lon="-3.4106638552796555"><ele>1030.0</ele><time>2026-03-22T12:13:03.999Z</time></trkpt><trkpt lat="41.382756221366414" lon="-3.4108054371727077"><ele>1030.0</ele><time>2026-03-22T12:13:04.999Z</time></trkpt><trkpt lat="41.38275507676342" lon="-3.410948137228797"><ele>1030.0</ele><time>2026-03-22T12:13:05.999Z</time></trkpt><trkpt lat="41.382753936518526" lon="-3.411090293968077"><ele>1030.0</ele><time>2026-03-22T12:13:06.999Z</time></trkpt><trkpt lat="41.38275120223384" lon="-3.4112353706765814"><ele>1030.0</ele><time>2026-03-22T12:13:07.999Z</time></trkpt><trkpt lat="41.38274150402059" lon="-3.4113828808987687"><ele>1030.0</ele><time>2026-03-22T12:13:08.999Z</time></trkpt><trkpt lat="41.382722492589586" lon="-3.411529899640585"><ele>1029.25</ele><time>2026-03-22T12:13:09.999Z</time></trkpt><trkpt lat="41.38269233970791" lon="-3.411679476269595"><ele>1028.5</ele><time>2026-03-22T12:13:10.999Z</time></trkpt><trkpt lat="41.38265528618499" lon="-3.411827544632734"><ele>1027.75</ele><time>2026-03-22T12:13:11.999Z</time></trkpt><trkpt lat="41.38260679320516" lon="-3.4119801077430116"><ele>1027.0</ele><time>2026-03-22T12:13:12.999Z</time></trkpt><trkpt lat="41.38255436264739" lon="-3.412124360628487"><ele>1026.75</ele><time>2026-03-22T12:13:13.999Z</time></trkpt><trkpt lat="41.382502437825536" lon="-3.4122667282939303"><ele>1026.5</ele><time>2026-03-22T12:13:14.999Z</time></trkpt><trkpt lat="41.38245049909052" lon="-3.4124102704014474"><ele>1026.25</ele><time>2026-03-22T12:13:15.999Z</time></trkpt><trkpt lat="41.38239942552295" lon="-3.4125556628418767"><ele>1026.0</ele><time>2026-03-22T12:13:16.999Z</time></trkpt><trkpt lat="41.38234778053477" lon="-3.4127026819260253"><ele>1026.0</ele><time>2026-03-22T12:13:17.999Z</time></trkpt><trkpt lat="41.38229768441319" lon="-3.4128452918426095"><ele>1026.0</ele><time>2026-03-22T12:13:18.999Z</time></trkpt><trkpt lat="41.382246564721605" lon="-3.41299033460958"><ele>1026.0</ele><time>2026-03-22T12:13:19.999Z</time></trkpt><trkpt lat="41.38219348883369" lon="-3.413131750547621"><ele>1026.0</ele><time>2026-03-22T12:13:20.999Z</time></trkpt><trkpt lat="41.382139892616955" lon="-3.413274552735998"><ele>1025.5</ele><time>2026-03-22T12:13:21.999Z</time></trkpt><trkpt lat="41.38208707927501" lon="-3.4134163064910936"><ele>1025.0</ele><time>2026-03-22T12:13:22.999Z</time></trkpt><trkpt lat="41.38203468813932" lon="-3.413557762561971"><ele>1024.5</ele><time>2026-03-22T12:13:23.999Z</time></trkpt><trkpt lat="41.381980322544194" lon="-3.4137045496730773"><ele>1024.0</ele><time>2026-03-22T12:13:24.999Z</time></trkpt><trkpt lat="41.381923272858984" lon="-3.413853269076308"><ele>1023.25</ele><time>2026-03-22T12:13:25.999Z</time></trkpt><trkpt lat="41.38186572756608" lon="-3.414000119640439"><ele>1022.5</ele><time>2026-03-22T12:13:26.999Z</time></trkpt><trkpt lat="41.38180824089915" lon="-3.414146820577845"><ele>1021.75</ele><time>2026-03-22T12:13:27.999Z</time></trkpt><trkpt lat="41.381753611210605" lon="-3.4142873033782988"><ele>1021.0</ele><time>2026-03-22T12:13:28.999Z</time></trkpt><trkpt lat="41.38170690306641" lon="-3.4144300286182103"><ele>1021.0</ele><time>2026-03-22T12:13:29.999Z</time></trkpt><trkpt lat="41.38167032533846" lon="-3.4145796784854503"><ele>1021.0</ele><time>2026-03-22T12:13:30.999Z</time></trkpt><trkpt lat="41.38164495373159" lon="-3.4147342879631304"><ele>1021.0</ele><time>2026-03-22T12:13:31.999Z</time></trkpt><trkpt lat="41.38162547474581" lon="-3.4148972381940847"><ele>1021.0</ele><time>2026-03-22T12:13:32.999Z</time></trkpt><trkpt lat="41.381612258207774" lon="-3.415068718051943"><ele>1019.25</ele><time>2026-03-22T12:13:33.999Z</time></trkpt><trkpt lat="41.38161157998678" lon="-3.415245143400763"><ele>1017.5</ele><time>2026-03-22T12:13:34.999Z</time></trkpt><trkpt lat="41.38161664311844" lon="-3.4154294219409396"><ele>1015.75</ele><time>2026-03-22T12:13:35.999Z</time></trkpt><trkpt lat="41.381641395419805" lon="-3.4156120588763628"><ele>1014.0</ele><time>2026-03-22T12:13:36.999Z</time></trkpt><trkpt lat="41.38169159576031" lon="-3.415783452763231"><ele>1012.75</ele><time>2026-03-22T12:13:37.999Z</time></trkpt><trkpt lat="41.38175752187477" lon="-3.4159522826355437"><ele>1011.5</ele><time>2026-03-22T12:13:38.999Z</time></trkpt><trkpt lat="41.381831556974795" lon="-3.4161147398147036"><ele>1010.25</ele><time>2026-03-22T12:13:39.999Z</time></trkpt><trkpt lat="41.38190905899076" lon="-3.416281712530411"><ele>1009.0</ele><time>2026-03-22T12:13:40.999Z</time></trkpt><trkpt lat="41.381985489311866" lon="-3.4164426763000835"><ele>1007.75</ele><time>2026-03-22T12:13:41.999Z</time></trkpt><trkpt lat="41.382063504915166" lon="-3.416603572658948"><ele>1006.5</ele><time>2026-03-22T12:13:42.999Z</time></trkpt><trkpt lat="41.38214287510798" lon="-3.416759688574238"><ele>1005.25</ele><time>2026-03-22T12:13:43.999Z</time></trkpt><trkpt lat="41.38222486158241" lon="-3.4169154014660763"><ele>1004.0</ele><time>2026-03-22T12:13:44.999Z</time></trkpt><trkpt lat="41.38230556150108" lon="-3.417068546231774"><ele>1003.0</ele><time>2026-03-22T12:13:45.999Z</time></trkpt><trkpt lat="41.382385009122146" lon="-3.4172184685876066"><ele>1002.0</ele><time>2026-03-22T12:13:46.999Z</time></trkpt><trkpt lat="41.38246426617887" lon="-3.4173679925332987"><ele>1001.0</ele><time>2026-03-22T12:13:47.999Z</time></trkpt><trkpt lat="41.38254229842326" lon="-3.4175144462315616"><ele>1000.0</ele><time>2026-03-22T12:13:48.999Z</time></trkpt><trkpt lat="41.38262073910226" lon="-3.41765736244912"><ele>1000.0</ele><time>2026-03-22T12:13:49.999Z</time></trkpt><trkpt lat="41.382696463310744" lon="-3.417795329321984"><ele>1000.0</ele><time>2026-03-22T12:13:50.999Z</time></trkpt><trkpt lat="41.38276965694266" lon="-3.417936662369193"><ele>1000.0</ele><time>2026-03-22T12:13:51.999Z</time></trkpt><trkpt lat="41.382826817001494" lon="-3.41808636820105"><ele>1000.0</ele><time>2026-03-22T12:13:52.999Z</time></trkpt><trkpt lat="41.38291090731412" lon="-3.4182110747344447"><ele>999.5</ele><time>2026-03-22T12:13:53.999Z</time></trkpt><trkpt lat="41.38298078837001" lon="-3.418346835256641"><ele>999.0</ele><time>2026-03-22T12:13:54.999Z</time></trkpt><trkpt lat="41.38305075714315" lon="-3.4184827661957256"><ele>998.5</ele><time>2026-03-22T12:13:55.999Z</time></trkpt><trkpt lat="41.383120285242605" lon="-3.418617841002967"><ele>998.0</ele><time>2026-03-22T12:13:56.999Z</time></trkpt><trkpt lat="41.38318938914874" lon="-3.4187520917360548"><ele>997.0</ele><time>2026-03-22T12:13:57.999Z</time></trkpt><trkpt lat="41.38325831363061" lon="-3.4188859939345977"><ele>996.0</ele><time>2026-03-22T12:13:58.999Z</time></trkpt><trkpt lat="41.38332777012686" lon="-3.4190209296008423"><ele>995.0</ele><time>2026-03-22T12:13:59.999Z</time></trkpt><trkpt lat="41.38339655140038" lon="-3.4191545535634136"><ele>994.0</ele><time>2026-03-22T12:14:00.999Z</time></trkpt><trkpt lat="41.383465638382354" lon="-3.4192880485759587"><ele>994.0</ele><time>2026-03-22T12:14:01.999Z</time></trkpt><trkpt lat="41.38353485696237" lon="-3.4194203678049235"><ele>994.0</ele><time>2026-03-22T12:14:02.999Z</time></trkpt><trkpt lat="41.38360423035121" lon="-3.4195529829114144"><ele>994.0</ele><time>2026-03-22T12:14:03.999Z</time></trkpt><trkpt lat="41.383674032356616" lon="-3.419686417366603"><ele>994.0</ele><time>2026-03-22T12:14:04.999Z</time></trkpt><trkpt lat="41.38374348312007" lon="-3.4198196452277814"><ele>994.0</ele><time>2026-03-22T12:14:05.999Z</time></trkpt><trkpt lat="41.383812041540864" lon="-3.419954187128666"><ele>994.0</ele><time>2026-03-22T12:14:06.999Z</time></trkpt><trkpt lat="41.38386628558516" lon="-3.420099840403799"><ele>994.0</ele><time>2026-03-22T12:14:07.999Z</time></trkpt><trkpt lat="41.383947957190706" lon="-3.420220913608817"><ele>994.0</ele><time>2026-03-22T12:14:09Z</time></trkpt><trkpt lat="41.38401675661454" lon="-3.4203549745965094"><ele>994.0</ele><time>2026-03-22T12:14:10Z</time></trkpt><trkpt lat="41.384085640800286" lon="-3.4204877039753527"><ele>994.0</ele><time>2026-03-22T12:14:11Z</time></trkpt><trkpt lat="41.38415467876521" lon="-3.420620730391119"><ele>994.0</ele><time>2026-03-22T12:14:12Z</time></trkpt><trkpt lat="41.38422356512104" lon="-3.4207534632361924"><ele>994.0</ele><time>2026-03-22T12:14:13Z</time></trkpt><trkpt lat="41.38427875272605" lon="-3.4208956467696905"><ele>994.0</ele><time>2026-03-22T12:14:14Z</time></trkpt><trkpt lat="41.38435660819319" lon="-3.4210098176466337"><ele>994.0000000000001</ele><time>2026-03-22T12:14:15Z</time></trkpt><trkpt lat="41.3844042053616" lon="-3.4211419394521636"><ele>994.0000000000001</ele><time>2026-03-22T12:14:16Z</time></trkpt><trkpt lat="41.38446054859192" lon="-3.4212507075762595"><ele>994.0</ele><time>2026-03-22T12:14:17Z</time></trkpt><trkpt lat="41.384505264084915" lon="-3.4213637481507777"><ele>994.0</ele><time>2026-03-22T12:14:18Z</time></trkpt><trkpt lat="41.38453523627096" lon="-3.421488286400402"><ele>994.0</ele><time>2026-03-22T12:14:19Z</time></trkpt><trkpt lat="41.38456787462062" lon="-3.421613038221563"><ele>994.0000000000001</ele><time>2026-03-22T12:14:20Z</time></trkpt><trkpt lat="41.38458787753751" lon="-3.4217443271146926"><ele>994.0000000000001</ele><time>2026-03-22T12:14:21Z</time></trkpt><trkpt lat="41.38460885872058" lon="-3.421869609791353"><ele>994.0</ele><time>2026-03-22T12:14:22Z</time></trkpt><trkpt lat="41.38463035993147" lon="-3.421992893574359"><ele>994.0</ele><time>2026-03-22T12:14:23Z</time></trkpt><trkpt lat="41.38463899900242" lon="-3.422117908847103"><ele>994.1666666666666</ele><time>2026-03-22T12:14:24Z</time></trkpt><trkpt lat="41.38463624311259" lon="-3.4222341326182764"><ele>994.3333333333333</ele><time>2026-03-22T12:14:25Z</time></trkpt><trkpt lat="41.38464843754394" lon="-3.4223418386152176"><ele>994.5</ele><time>2026-03-22T12:14:26Z</time></trkpt><trkpt lat="41.38468274929824" lon="-3.422434746015077"><ele>994.6666666666667</ele><time>2026-03-22T12:14:27Z</time></trkpt><trkpt lat="41.38473066650544" lon="-3.4225229436022704"><ele>994.8333333333334</ele><time>2026-03-22T12:14:28Z</time></trkpt><trkpt lat="41.38478631354923" lon="-3.4226062469219953"><ele>995.0</ele><time>2026-03-22T12:14:29Z</time></trkpt><trkpt lat="41.38484377094742" lon="-3.4226855552263586"><ele>995.1666666666667</ele><time>2026-03-22T12:14:30Z</time></trkpt><trkpt lat="41.384904435915516" lon="-3.4227583882516117"><ele>995.3333333333334</ele><time>2026-03-22T12:14:31Z</time></trkpt><trkpt lat="41.384967125423046" lon="-3.4228213663275655"><ele>995.5</ele><time>2026-03-22T12:14:32Z</time></trkpt><trkpt lat="41.38502466173215" lon="-3.422883148897992"><ele>995.6666666666667</ele><time>2026-03-22T12:14:33Z</time></trkpt><trkpt lat="41.38506344387789" lon="-3.4229522862207378"><ele>995.8333333333334</ele><time>2026-03-22T12:14:34Z</time></trkpt><trkpt lat="41.38515111381944" lon="-3.423037454577765"><ele>996.0</ele><time>2026-03-22T12:14:36Z</time></trkpt><trkpt lat="41.385069913949" lon="-3.423159717972096"><ele>996.0</ele><time>2026-03-22T12:14:39Z</time></trkpt><trkpt lat="41.38512245485288" lon="-3.4230604414620505"><ele>996.0</ele><time>2026-03-22T12:14:45Z</time></trkpt><trkpt lat="41.38518735378212" lon="-3.42307933453393"><ele>996.0</ele><time>2026-03-22T12:14:49Z</time></trkpt><trkpt lat="41.38523955114109" lon="-3.4229977893972614"><ele>996.0</ele><time>2026-03-22T12:14:53Z</time></trkpt><trkpt lat="41.385314964993185" lon="-3.4229462232859813"><ele>996.0</ele><time>2026-03-22T12:14:55.999Z</time></trkpt><trkpt lat="41.38536652733311" lon="-3.4228656292927204"><ele>996.0</ele><time>2026-03-22T12:14:59.999Z</time></trkpt><trkpt lat="41.38540567790518" lon="-3.4227548371296876"><ele>996.0</ele><time>2026-03-22T12:15:02.999Z</time></trkpt><trkpt lat="41.38543619197071" lon="-3.422641967220529"><ele>996.0</ele><time>2026-03-22T12:15:05.999Z</time></trkpt><trkpt lat="41.38548760747583" lon="-3.4225738325255515"><ele>996.0</ele><time>2026-03-22T12:15:07.999Z</time></trkpt><trkpt lat="41.385552289627185" lon="-3.4225235135097947"><ele>996.0</ele><time>2026-03-22T12:15:09.999Z</time></trkpt><trkpt lat="41.38561085828648" lon="-3.4224720430877644"><ele>996.0</ele><time>2026-03-22T12:15:11.999Z</time></trkpt><trkpt lat="41.38567436329172" lon="-3.42243370621398"><ele>996.0</ele><time>2026-03-22T12:15:13.999Z</time></trkpt><trkpt lat="41.38574362366404" lon="-3.4224057056704082"><ele>996.3333333333334</ele><time>2026-03-22T12:15:15.999Z</time></trkpt><trkpt lat="41.38583725360102" lon="-3.422376032503891"><ele>996.6666666666667</ele><time>2026-03-22T12:15:18.999Z</time></trkpt><trkpt lat="41.385902026817355" lon="-3.422352085562626"><ele>997.0</ele><time>2026-03-22T12:15:20.999Z</time></trkpt><trkpt lat="41.38596750413478" lon="-3.4223448593376933"><ele>997.3333333333334</ele><time>2026-03-22T12:15:22.999Z</time></trkpt><trkpt lat="41.38603971769648" lon="-3.422407918497227"><ele>997.6666666666667</ele><time>2026-03-22T12:15:25.999Z</time></trkpt><trkpt lat="41.38604844384439" lon="-3.4225285982103353"><ele>998.0</ele><time>2026-03-22T12:15:27.999Z</time></trkpt><trkpt lat="41.386071282381245" lon="-3.4226646146152153"><ele>998.0000000000001</ele><time>2026-03-22T12:15:29.999Z</time></trkpt><trkpt lat="41.386149550250096" lon="-3.422743100123061"><ele>998.0</ele><time>2026-03-22T12:15:31.999Z</time></trkpt><trkpt lat="41.38618513145669" lon="-3.42285409810262"><ele>998.0</ele><time>2026-03-22T12:15:34.999Z</time></trkpt><trkpt lat="41.38616789341306" lon="-3.422977478810683"><ele>998.0</ele><time>2026-03-22T12:15:36.999Z</time></trkpt><trkpt lat="41.38613822647998" lon="-3.4230755793168504"><ele>998.0000000000001</ele><time>2026-03-22T12:15:38.999Z</time></trkpt><trkpt lat="41.38611345769094" lon="-3.4231583915346118"><ele>998.0</ele><time>2026-03-22T12:15:40.999Z</time></trkpt><trkpt lat="41.386064889506606" lon="-3.4232642177369996"><ele>998.1666666666667</ele><time>2026-03-22T12:15:43.999Z</time></trkpt><trkpt lat="41.38611188376427" lon="-3.4233422894036103"><ele>998.3333333333334</ele><time>2026-03-22T12:15:45.999Z</time></trkpt><trkpt lat="41.38614559069418" lon="-3.4234393890220027"><ele>998.5</ele><time>2026-03-22T12:15:47.999Z</time></trkpt><trkpt lat="41.38618056734543" lon="-3.4235389544655606"><ele>998.6666666666667</ele><time>2026-03-22T12:15:49.999Z</time></trkpt><trkpt lat="41.386202535029355" lon="-3.4236363060059327"><ele>998.8333333333334</ele><time>2026-03-22T12:15:51.999Z</time></trkpt><trkpt lat="41.386248726764215" lon="-3.4237296522265948"><ele>999.0</ele><time>2026-03-22T12:15:54.999Z</time></trkpt><trkpt lat="41.386157716575134" lon="-3.4238753041742673"><ele>999.0</ele><time>2026-03-22T12:15:57.999Z</time></trkpt><trkpt lat="41.38609515621176" lon="-3.423955230322485"><ele>999.0000000000001</ele><time>2026-03-22T12:15:59.999Z</time></trkpt><trkpt lat="41.38605137883608" lon="-3.4238855166658957"><ele>999.0000000000001</ele><time>2026-03-22T12:16:03.999Z</time></trkpt><trkpt lat="41.38615060378586" lon="-3.4238172707734367"><ele>999.0</ele><time>2026-03-22T12:16:05.999Z</time></trkpt><trkpt lat="41.38625510476535" lon="-3.4237285551161025"><ele>999.0</ele><time>2026-03-22T12:16:07.999Z</time></trkpt><trkpt lat="41.38636006568151" lon="-3.4236444688080705"><ele>999.0</ele><time>2026-03-22T12:16:09.999Z</time></trkpt><trkpt lat="41.38646466762461" lon="-3.423558877177144"><ele>999.0</ele><time>2026-03-22T12:16:11.999Z</time></trkpt><trkpt lat="41.386568683509125" lon="-3.4234792094293436"><ele>999.0</ele><time>2026-03-22T12:16:13.999Z</time></trkpt><trkpt lat="41.386663222974796" lon="-3.4234126347011067"><ele>999.0</ele><time>2026-03-22T12:16:16Z</time></trkpt><trkpt lat="41.38675690523847" lon="-3.4233304262460744"><ele>999.0</ele><time>2026-03-22T12:16:18Z</time></trkpt><trkpt lat="41.38682122083091" lon="-3.4232767392828554"><ele>999.0</ele><time>2026-03-22T12:16:20Z</time></trkpt><trkpt lat="41.386891713507914" lon="-3.423230105779019"><ele>999.0</ele><time>2026-03-22T12:16:22Z</time></trkpt><trkpt lat="41.386942856424575" lon="-3.4231753852003934"><ele>999.0</ele><time>2026-03-22T12:16:24Z</time></trkpt><trkpt lat="41.38689410540081" lon="-3.423080983147593"><ele>999.0</ele><time>2026-03-22T12:16:26Z</time></trkpt><trkpt lat="41.3868662730161" lon="-3.422963785963892"><ele>999.0</ele><time>2026-03-22T12:16:28Z</time></trkpt><trkpt lat="41.38682555334388" lon="-3.422864954558289"><ele>998.6666666666666</ele><time>2026-03-22T12:16:30Z</time></trkpt><trkpt lat="41.38679119726934" lon="-3.422786786001816"><ele>998.3333333333333</ele><time>2026-03-22T12:16:32Z</time></trkpt><trkpt lat="41.386762635121" lon="-3.4226952257096057"><ele>998.0</ele><time>2026-03-22T12:16:46Z</time></trkpt><trkpt lat="41.386722160524805" lon="-3.4226143253513506"><ele>997.6666666666666</ele><time>2026-03-22T12:16:49Z</time></trkpt><trkpt lat="41.38669466117879" lon="-3.4225143699105334"><ele>997.3333333333333</ele><time>2026-03-22T12:16:52Z</time></trkpt><trkpt lat="41.38662465062928" lon="-3.4224364174285906"><ele>997.0</ele><time>2026-03-22T12:16:56Z</time></trkpt><trkpt lat="41.38659031734543" lon="-3.422349244135375"><ele>996.9999999999999</ele><time>2026-03-22T12:16:59Z</time></trkpt><trkpt lat="41.38657307747952" lon="-3.42226085260502"><ele>997.0</ele><time>2026-03-22T12:17:02Z</time></trkpt><trkpt lat="41.38655710725486" lon="-3.4221743047863"><ele>996.9999999999999</ele><time>2026-03-22T12:17:05.999Z</time></trkpt><trkpt lat="41.38652397453972" lon="-3.422101960093138"><ele>996.9999999999999</ele><time>2026-03-22T12:17:08.999Z</time></trkpt><trkpt lat="41.386502858013095" lon="-3.422004425291168"><ele>997.0</ele><time>2026-03-22T12:17:11.999Z</time></trkpt><trkpt lat="41.38649314371698" lon="-3.421907601428504"><ele>996.9999999999999</ele><time>2026-03-22T12:17:15.999Z</time></trkpt><trkpt lat="41.386509971796976" lon="-3.4217972299977872"><ele>996.9999999999999</ele><time>2026-03-22T12:17:18.999Z</time></trkpt><trkpt lat="41.38659236340656" lon="-3.421747025926752"><ele>996.6666666666666</ele><time>2026-03-22T12:17:21.999Z</time></trkpt><trkpt lat="41.38666093657468" lon="-3.4217590686270754"><ele>996.3333333333333</ele><time>2026-03-22T12:17:23.999Z</time></trkpt><trkpt lat="41.38672240848549" lon="-3.4217339363901593"><ele>996.0</ele><time>2026-03-22T12:17:26.999Z</time></trkpt><trkpt lat="41.38680351438585" lon="-3.421694718928025"><ele>995.6666666666667</ele><time>2026-03-22T12:17:29.999Z</time></trkpt><trkpt lat="41.38687569894011" lon="-3.4216328446770596"><ele>995.3333333333334</ele><time>2026-03-22T12:17:32.999Z</time></trkpt><trkpt lat="41.38695695383546" lon="-3.421656364316984"><ele>995.0</ele><time>2026-03-22T12:17:36.999Z</time></trkpt><trkpt lat="41.38699188414541" lon="-3.421732868039473"><ele>995.0000000000001</ele><time>2026-03-22T12:17:38.999Z</time></trkpt><trkpt lat="41.38703398015874" lon="-3.4218408671286324"><ele>995.0</ele><time>2026-03-22T12:17:40.999Z</time></trkpt><trkpt lat="41.3870593501764" lon="-3.421949514631627"><ele>995.0</ele><time>2026-03-22T12:17:42.999Z</time></trkpt><trkpt lat="41.387078461853825" lon="-3.422056397096873"><ele>995.0</ele><time>2026-03-22T12:17:44.999Z</time></trkpt><trkpt lat="41.387092210021805" lon="-3.422155683853402"><ele>995.0000000000001</ele><time>2026-03-22T12:17:46.999Z</time></trkpt><trkpt lat="41.38710474816462" lon="-3.4222502091215232"><ele>995.0</ele><time>2026-03-22T12:17:48.999Z</time></trkpt><trkpt lat="41.387105575267086" lon="-3.422339130827085"><ele>995.3333333333334</ele><time>2026-03-22T12:17:50.999Z</time></trkpt><trkpt lat="41.38706438607597" lon="-3.422439881671763"><ele>995.6666666666667</ele><time>2026-03-22T12:17:53.999Z</time></trkpt><trkpt lat="41.386999496044794" lon="-3.4224820287015865"><ele>996.0</ele><time>2026-03-22T12:17:56.999Z</time></trkpt><trkpt lat="41.386933835683735" lon="-3.422528077017297"><ele>996.3333333333333</ele><time>2026-03-22T12:18:00.999Z</time></trkpt><trkpt lat="41.38687676442031" lon="-3.422583264211541"><ele>996.6666666666666</ele><time>2026-03-22T12:18:03.999Z</time></trkpt><trkpt lat="41.3868131687242" lon="-3.422619034875087"><ele>997.0</ele><time>2026-03-22T12:18:06.999Z</time></trkpt><trkpt lat="41.386761474666855" lon="-3.4226968250022747"><ele>996.9999999999999</ele><time>2026-03-22T12:18:10.999Z</time></trkpt><trkpt lat="41.38671166654824" lon="-3.4226126884193175"><ele>997.0</ele><time>2026-03-22T12:18:13.999Z</time></trkpt><trkpt lat="41.386675545580964" lon="-3.422516060298328"><ele>997.0</ele><time>2026-03-22T12:18:15.999Z</time></trkpt><trkpt lat="41.386630126232326" lon="-3.422440826025618"><ele>997.0</ele><time>2026-03-22T12:18:17.999Z</time></trkpt><trkpt lat="41.38659877191228" lon="-3.422356941047603"><ele>996.9999999999999</ele><time>2026-03-22T12:18:19.999Z</time></trkpt><trkpt lat="41.38656569352691" lon="-3.4222550800231986"><ele>997.0</ele><time>2026-03-22T12:18:23Z</time></trkpt><trkpt lat="41.386499436588146" lon="-3.4222264513218272"><ele>996.9999999999999</ele><time>2026-03-22T12:18:26Z</time></trkpt><trkpt lat="41.38641595986149" lon="-3.4222328117859186"><ele>997.0</ele><time>2026-03-22T12:18:29Z</time></trkpt><trkpt lat="41.38635321354459" lon="-3.422260505063869"><ele>996.9999999999999</ele><time>2026-03-22T12:18:31Z</time></trkpt><trkpt lat="41.38628557726927" lon="-3.422270026715851"><ele>996.9999999999999</ele><time>2026-03-22T12:18:33Z</time></trkpt><trkpt lat="41.386211210099376" lon="-3.4222793301412286"><ele>997.0</ele><time>2026-03-22T12:18:35Z</time></trkpt><trkpt lat="41.38614093235201" lon="-3.422299066211839"><ele>996.9999999999999</ele><time>2026-03-22T12:18:37Z</time></trkpt><trkpt lat="41.386068100739635" lon="-3.4223070021584827"><ele>996.9999999999999</ele><time>2026-03-22T12:18:40Z</time></trkpt><trkpt lat="41.38599744708991" lon="-3.4223338246730806"><ele>997.2</ele><time>2026-03-22T12:18:44Z</time></trkpt><trkpt lat="41.38590677870143" lon="-3.422342725306137"><ele>997.4000000000001</ele><time>2026-03-22T12:18:48Z</time></trkpt><trkpt lat="41.38584051958733" lon="-3.422360660637382"><ele>997.5999999999999</ele><time>2026-03-22T12:18:50Z</time></trkpt><trkpt lat="41.38575979311355" lon="-3.4223875148245715"><ele>997.8</ele><time>2026-03-22T12:18:52Z</time></trkpt><trkpt lat="41.3856543014125" lon="-3.422428352588185"><ele>998.0</ele><time>2026-03-22T12:18:54Z</time></trkpt><trkpt lat="41.38558198045774" lon="-3.4225231882332614"><ele>998.0000000000001</ele><time>2026-03-22T12:18:56Z</time></trkpt><trkpt lat="41.38550284235091" lon="-3.4225671173378944"><ele>998.0</ele><time>2026-03-22T12:18:58Z</time></trkpt><trkpt lat="41.38543835662952" lon="-3.4226134190409825"><ele>998.0</ele><time>2026-03-22T12:19:00Z</time></trkpt><trkpt lat="41.3854068729358" lon="-3.4227267940546264"><ele>998.0</ele><time>2026-03-22T12:19:03Z</time></trkpt><trkpt lat="41.38544288557821" lon="-3.422802080204511"><ele>998.0000000000001</ele><time>2026-03-22T12:19:05Z</time></trkpt><trkpt lat="41.385457335997046" lon="-3.422895528266307"><ele>998.0</ele><time>2026-03-22T12:19:06.999Z</time></trkpt><trkpt lat="41.385545348397294" lon="-3.4229036371393162"><ele>998.0000000000001</ele><time>2026-03-22T12:19:09.999Z</time></trkpt><trkpt lat="41.3856083592584" lon="-3.42286361247972"><ele>998.0</ele><time>2026-03-22T12:19:12.999Z</time></trkpt><trkpt lat="41.385677819281206" lon="-3.4228229824976633"><ele>998.0000000000001</ele><time>2026-03-22T12:19:16.999Z</time></trkpt><trkpt lat="41.385687803576936" lon="-3.422738457026455"><ele>998.0000000000001</ele><time>2026-03-22T12:19:25.999Z</time></trkpt><trkpt lat="41.38564389510081" lon="-3.4226534222400535"><ele>998.0</ele><time>2026-03-22T12:19:31.999Z</time></trkpt><trkpt lat="41.385607557317066" lon="-3.4225682797121064"><ele>998.0000000000001</ele><time>2026-03-22T12:19:35.999Z</time></trkpt><trkpt lat="41.38552319953783" lon="-3.422544217651335"><ele>998.0000000000001</ele><time>2026-03-22T12:19:40.999Z</time></trkpt><trkpt lat="41.38544534402085" lon="-3.4226092425545778"><ele>997.5999999999999</ele><time>2026-03-22T12:19:42.999Z</time></trkpt><trkpt lat="41.38535138765725" lon="-3.42268177580341"><ele>997.1999999999999</ele><time>2026-03-22T12:19:44.999Z</time></trkpt><trkpt lat="41.38527642969142" lon="-3.422720119065441"><ele>996.8</ele><time>2026-03-22T12:19:46.999Z</time></trkpt><trkpt lat="41.38532112726176" lon="-3.422652451453822"><ele>996.4</ele><time>2026-03-22T12:20:13.999Z</time></trkpt><trkpt lat="41.385325736289964" lon="-3.422758328797594"><ele>996.0</ele><time>2026-03-22T12:20:24.998Z</time></trkpt><trkpt lat="41.3853008107902" lon="-3.422908397604675"><ele>996.6666666666666</ele><time>2026-03-22T12:20:27Z</time></trkpt><trkpt lat="41.385249135809985" lon="-3.422989799064757"><ele>997.3333333333333</ele><time>2026-03-22T12:20:29Z</time></trkpt><trkpt lat="41.38519136782396" lon="-3.4230616923582486"><ele>998.0</ele><time>2026-03-22T12:20:32Z</time></trkpt><trkpt lat="41.38512579845708" lon="-3.4230974914099677"><ele>998.6666666666666</ele><time>2026-03-22T12:20:46Z</time></trkpt><trkpt lat="41.38505356160373" lon="-3.423137025077869"><ele>999.3333333333333</ele><time>2026-03-22T12:20:49Z</time></trkpt><trkpt lat="41.38500326270783" lon="-3.4231983796734764"><ele>1000.0</ele><time>2026-03-22T12:20:51Z</time></trkpt><trkpt lat="41.38496182042824" lon="-3.423287700619549"><ele>999.9999999999999</ele><time>2026-03-22T12:20:53Z</time></trkpt><trkpt lat="41.38493950023045" lon="-3.423380658399009"><ele>1000.0</ele><time>2026-03-22T12:20:55Z</time></trkpt><trkpt lat="41.38488449103646" lon="-3.4234683229505225"><ele>1000.0</ele><time>2026-03-22T12:20:59Z</time></trkpt><trkpt lat="41.38481452290964" lon="-3.42350818597476"><ele>1000.0</ele><time>2026-03-22T12:21:01Z</time></trkpt><trkpt lat="41.38476048276917" lon="-3.423558178163051"><ele>999.9999999999999</ele><time>2026-03-22T12:21:03Z</time></trkpt><trkpt lat="41.384742765991746" lon="-3.423661307663166"><ele>1000.0</ele><time>2026-03-22T12:21:05.999Z</time></trkpt><trkpt lat="41.38477442136172" lon="-3.423554655676158"><ele>999.9999999999999</ele><time>2026-03-22T12:21:10.999Z</time></trkpt><trkpt lat="41.38485458369161" lon="-3.4234947485837166"><ele>1000.0</ele><time>2026-03-22T12:21:12.999Z</time></trkpt><trkpt lat="41.384912494263865" lon="-3.4234393400029566"><ele>1000.0</ele><time>2026-03-22T12:21:14.999Z</time></trkpt><trkpt lat="41.38495632138335" lon="-3.423365308982834"><ele>1000.0</ele><time>2026-03-22T12:21:16.999Z</time></trkpt><trkpt lat="41.38497622180631" lon="-3.4232723883188103"><ele>999.9999999999999</ele><time>2026-03-22T12:21:18.999Z</time></trkpt><trkpt lat="41.38503070572981" lon="-3.4231904334160803"><ele>1000.0</ele><time>2026-03-22T12:21:21Z</time></trkpt><trkpt lat="41.38506733968278" lon="-3.423112642006913"><ele>999.9999999999999</ele><time>2026-03-22T12:21:23Z</time></trkpt><trkpt lat="41.38507997771796" lon="-3.423023140936552"><ele>1000.0</ele><time>2026-03-22T12:21:26Z</time></trkpt><trkpt lat="41.38514859663673" lon="-3.423041130268884"><ele>1000.0</ele><time>2026-03-22T12:21:28Z</time></trkpt><trkpt lat="41.38511400046267" lon="-3.423143064361089"><ele>1000.0</ele><time>2026-03-22T12:21:30Z</time></trkpt><trkpt lat="41.384994345156834" lon="-3.4232090803271693"><ele>999.9999999999999</ele><time>2026-03-22T12:21:32Z</time></trkpt><trkpt lat="41.38495493172827" lon="-3.423295076172104"><ele>1000.0</ele><time>2026-03-22T12:21:33Z</time></trkpt><trkpt lat="41.38492133009942" lon="-3.423369298072899"><ele>1000.0</ele><time>2026-03-22T12:21:34Z</time></trkpt><trkpt lat="41.3848436881335" lon="-3.4234960964039907"><ele>1000.0</ele><time>2026-03-22T12:21:36Z</time></trkpt><trkpt lat="41.3847514105276" lon="-3.4236056902036913"><ele>1000.0</ele><time>2026-03-22T12:21:38Z</time></trkpt><trkpt lat="41.384664733406126" lon="-3.4236928436924114"><ele>1000.0</ele><time>2026-03-22T12:21:40Z</time></trkpt><trkpt lat="41.38458150970682" lon="-3.4237727795766135"><ele>1000.1666666666666</ele><time>2026-03-22T12:21:42Z</time></trkpt><trkpt lat="41.38449655454805" lon="-3.42385039732168"><ele>1000.3333333333333</ele><time>2026-03-22T12:21:44Z</time></trkpt><trkpt lat="41.38441593043105" lon="-3.4239041280854363"><ele>1000.5</ele><time>2026-03-22T12:21:46Z</time></trkpt><trkpt lat="41.384348929650365" lon="-3.4239765955617516"><ele>1000.6666666666667</ele><time>2026-03-22T12:21:48Z</time></trkpt><trkpt lat="41.38428551130603" lon="-3.4240303149050786"><ele>1000.8333333333334</ele><time>2026-03-22T12:21:50Z</time></trkpt><trkpt lat="41.38422125852019" lon="-3.424084741073148"><ele>1001.0</ele><time>2026-03-22T12:21:52Z</time></trkpt><trkpt lat="41.38416774307243" lon="-3.424132394804364"><ele>1001.0000000000001</ele><time>2026-03-22T12:21:54Z</time></trkpt><trkpt lat="41.384118601652794" lon="-3.424184948445712"><ele>1001.0</ele><time>2026-03-22T12:21:57Z</time></trkpt><trkpt lat="41.38404607269096" lon="-3.4242771880947966"><ele>1001.0</ele><time>2026-03-22T12:22:00Z</time></trkpt><trkpt lat="41.38399618135124" lon="-3.4243399968616957"><ele>1001.0</ele><time>2026-03-22T12:22:02Z</time></trkpt><trkpt lat="41.38394343066631" lon="-3.424406405293874"><ele>1001.0000000000001</ele><time>2026-03-22T12:22:04Z</time></trkpt><trkpt lat="41.38386408821268" lon="-3.424418242935692"><ele>1001.0</ele><time>2026-03-22T12:22:06Z</time></trkpt><trkpt lat="41.38383560363014" lon="-3.424520613134083"><ele>1001.0000000000001</ele><time>2026-03-22T12:22:08Z</time></trkpt><trkpt lat="41.383809553898246" lon="-3.424631642206613"><ele>1001.0</ele><time>2026-03-22T12:22:10Z</time></trkpt><trkpt lat="41.383795729240774" lon="-3.424746206255"><ele>1001.0</ele><time>2026-03-22T12:22:12Z</time></trkpt><trkpt lat="41.38378840817141" lon="-3.424854470169533"><ele>1001.0</ele><time>2026-03-22T12:22:13.999Z</time></trkpt><trkpt lat="41.38378639588397" lon="-3.4249576605928898"><ele>1001.0000000000001</ele><time>2026-03-22T12:22:15.999Z</time></trkpt><trkpt lat="41.38378745917073" lon="-3.4250514717645"><ele>1001.0</ele><time>2026-03-22T12:22:17.999Z</time></trkpt><trkpt lat="41.38378604295929" lon="-3.4251565686222176"><ele>1001.0000000000001</ele><time>2026-03-22T12:22:20.999Z</time></trkpt><trkpt lat="41.38376440839006" lon="-3.4252575016194653"><ele>1001.0</ele><time>2026-03-22T12:22:23.999Z</time></trkpt><trkpt lat="41.383776778029805" lon="-3.425352301241252"><ele>1001.0</ele><time>2026-03-22T12:22:26.999Z</time></trkpt><trkpt lat="41.38374360932174" lon="-3.425430561792607"><ele>1001.0</ele><time>2026-03-22T12:22:28.999Z</time></trkpt><trkpt lat="41.38380336834011" lon="-3.425486326565364"><ele>1001.0000000000001</ele><time>2026-03-22T12:22:30.999Z</time></trkpt><trkpt lat="41.383849658337255" lon="-3.425370993626192"><ele>1001.0</ele><time>2026-03-22T12:22:33.001Z</time></trkpt><trkpt lat="41.383808331481376" lon="-3.4252406261606336"><ele>1001.3333333333334</ele><time>2026-03-22T12:22:35.001Z</time></trkpt><trkpt lat="41.38378859381657" lon="-3.4251386084112747"><ele>1001.6666666666667</ele><time>2026-03-22T12:22:38.001Z</time></trkpt><trkpt lat="41.38370876530581" lon="-3.425152887232334"><ele>1002.0</ele><time>2026-03-22T12:22:42.001Z</time></trkpt><trkpt lat="41.38365173279464" lon="-3.425235038174135"><ele>1002.3333333333333</ele><time>2026-03-22T12:22:45.001Z</time></trkpt><trkpt lat="41.383607432311265" lon="-3.425306323663941"><ele>1002.6666666666666</ele><time>2026-03-22T12:22:48.001Z</time></trkpt><trkpt lat="41.383546699066144" lon="-3.4253401371210677"><ele>1003.0</ele><time>2026-03-22T12:22:52.001Z</time></trkpt><trkpt lat="41.38360208560966" lon="-3.4252739478155503"><ele>1003.0</ele><time>2026-03-22T12:24:22.999Z</time></trkpt><trkpt lat="41.38365660412363" lon="-3.4252276737330742"><ele>1003.0</ele><time>2026-03-22T12:24:24.999Z</time></trkpt><trkpt lat="41.383714426137175" lon="-3.4251517897456396"><ele>1003.0</ele><time>2026-03-22T12:24:26.999Z</time></trkpt><trkpt lat="41.38376139732896" lon="-3.425025023872701"><ele>1003.0</ele><time>2026-03-22T12:24:28.999Z</time></trkpt><trkpt lat="41.38380436122043" lon="-3.424882068992179"><ele>1003.0</ele><time>2026-03-22T12:24:30.999Z</time></trkpt><trkpt lat="41.38379857496669" lon="-3.424720202506686"><ele>1002.6666666666666</ele><time>2026-03-22T12:24:32.999Z</time></trkpt><trkpt lat="41.38381709032598" lon="-3.4245904074439157"><ele>1002.3333333333333</ele><time>2026-03-22T12:24:34.999Z</time></trkpt><trkpt lat="41.38386137995387" lon="-3.4244922546977454"><ele>1002.0</ele><time>2026-03-22T12:24:36.999Z</time></trkpt><trkpt lat="41.383917118176036" lon="-3.4244065378849156"><ele>1001.6666666666667</ele><time>2026-03-22T12:24:39.001Z</time></trkpt><trkpt lat="41.38396040630743" lon="-3.4243240872401968"><ele>1001.3333333333334</ele><time>2026-03-22T12:24:41.001Z</time></trkpt><trkpt lat="41.384019299476975" lon="-3.4242777314340738"><ele>1001.0</ele><time>2026-03-22T12:24:43.001Z</time></trkpt><trkpt lat="41.38406010773595" lon="-3.4241985719881503"><ele>1001.0000000000001</ele><time>2026-03-22T12:24:46.001Z</time></trkpt><trkpt lat="41.38416613672556" lon="-3.424221662362201"><ele>1001.0</ele><time>2026-03-22T12:24:59.001Z</time></trkpt><trkpt lat="41.38420849308294" lon="-3.4243094557894405"><ele>1001.0</ele><time>2026-03-22T12:25:01Z</time></trkpt><trkpt lat="41.384248739178965" lon="-3.4243816685944606"><ele>1001.0</ele><time>2026-03-22T12:25:04Z</time></trkpt><trkpt lat="41.38429741087075" lon="-3.4244415302848847"><ele>1001.0000000000001</ele><time>2026-03-22T12:25:28Z</time></trkpt><trkpt lat="41.38436653176137" lon="-3.4244938765915824"><ele>1001.0</ele><time>2026-03-22T12:25:39Z</time></trkpt><trkpt lat="41.384426779398986" lon="-3.4245322641225204"><ele>1001.0</ele><time>2026-03-22T12:25:42Z</time></trkpt><trkpt lat="41.38448166969004" lon="-3.4245800777733844"><ele>1001.0</ele><time>2026-03-22T12:25:46Z</time></trkpt><trkpt lat="41.38453704789753" lon="-3.4246529594412016"><ele>1001.0</ele><time>2026-03-22T12:25:51Z</time></trkpt><trkpt lat="41.38457657397866" lon="-3.424726153109525"><ele>1001.0</ele><time>2026-03-22T12:26:17.999Z</time></trkpt><trkpt lat="41.38462263331686" lon="-3.4248067267649276"><ele>1001.0</ele><time>2026-03-22T12:26:21.999Z</time></trkpt><trkpt lat="41.384675106540016" lon="-3.4248865496639413"><ele>1001.0</ele><time>2026-03-22T12:26:25.999Z</time></trkpt><trkpt lat="41.38474211158806" lon="-3.4249199673759487"><ele>1001.0</ele><time>2026-03-22T12:26:31.999Z</time></trkpt><trkpt lat="41.384829865915414" lon="-3.424887953936161"><ele>1000.8571428571429</ele><time>2026-03-22T12:26:37.999Z</time></trkpt><trkpt lat="41.384886385726" lon="-3.4248451431355718"><ele>1000.7142857142858</ele><time>2026-03-22T12:26:39.999Z</time></trkpt><trkpt lat="41.384948893976194" lon="-3.4248055008884775"><ele>1000.5714285714286</ele><time>2026-03-22T12:26:42.999Z</time></trkpt><trkpt lat="41.38501739380312" lon="-3.4247528535403053"><ele>1000.4285714285714</ele><time>2026-03-22T12:26:46.001Z</time></trkpt><trkpt lat="41.384953540910935" lon="-3.4248147100591204"><ele>1000.2857142857143</ele><time>2026-03-22T12:26:54Z</time></trkpt><trkpt lat="41.384876255983876" lon="-3.4248671245953575"><ele>1000.1428571428571</ele><time>2026-03-22T12:26:57Z</time></trkpt><trkpt lat="41.38482023555627" lon="-3.4249109566093403"><ele>1000.0</ele><time>2026-03-22T12:27:01Z</time></trkpt><trkpt lat="41.384755370430064" lon="-3.424960303168023"><ele>1000.0</ele><time>2026-03-22T12:27:04Z</time></trkpt><trkpt lat="41.38480729878873" lon="-3.4248685672950185"><ele>1000.0</ele><time>2026-03-22T12:27:07Z</time></trkpt><trkpt lat="41.384923239506726" lon="-3.4248204903338437"><ele>1000.0</ele><time>2026-03-22T12:27:09Z</time></trkpt><trkpt lat="41.38501975790821" lon="-3.424765923957545"><ele>1000.0</ele><time>2026-03-22T12:27:11Z</time></trkpt><trkpt lat="41.38509888160802" lon="-3.424710102705275"><ele>1000.0</ele><time>2026-03-22T12:27:13Z</time></trkpt><trkpt lat="41.38516176926671" lon="-3.4246546762995855"><ele>1000.1666666666666</ele><time>2026-03-22T12:27:15Z</time></trkpt><trkpt lat="41.385215226544794" lon="-3.4246063068589314"><ele>1000.3333333333333</ele><time>2026-03-22T12:27:19Z</time></trkpt><trkpt lat="41.38529488444365" lon="-3.4245629732195075"><ele>1000.5</ele><time>2026-03-22T12:27:22Z</time></trkpt><trkpt lat="41.38535420562722" lon="-3.424533440629257"><ele>1000.6666666666667</ele><time>2026-03-22T12:27:24Z</time></trkpt><trkpt lat="41.3854343814362" lon="-3.4244760252621242"><ele>1000.8333333333334</ele><time>2026-03-22T12:27:27Z</time></trkpt><trkpt lat="41.38550170917076" lon="-3.424434990145545"><ele>1001.0</ele><time>2026-03-22T12:27:30Z</time></trkpt><trkpt lat="41.38557297373041" lon="-3.4244014279919925"><ele>1000.6666666666667</ele><time>2026-03-22T12:27:33Z</time></trkpt><trkpt lat="41.38564448254783" lon="-3.4243736686960142"><ele>1000.3333333333334</ele><time>2026-03-22T12:27:37Z</time></trkpt><trkpt lat="41.38570812675113" lon="-3.4243467095868807"><ele>1000.0</ele><time>2026-03-22T12:27:41Z</time></trkpt><trkpt lat="41.38578154508455" lon="-3.4243309178960364"><ele>999.6666666666667</ele><time>2026-03-22T12:27:46Z</time></trkpt><trkpt lat="41.38585224907558" lon="-3.424368141605"><ele>999.3333333333334</ele><time>2026-03-22T12:27:50Z</time></trkpt><trkpt lat="41.385854574595115" lon="-3.4245029899174906"><ele>999.0</ele><time>2026-03-22T12:27:52Z</time></trkpt><trkpt lat="41.385897133584685" lon="-3.424603200806309"><ele>999.0</ele><time>2026-03-22T12:27:54Z</time></trkpt><trkpt lat="41.38593069761736" lon="-3.424696740108742"><ele>999.0</ele><time>2026-03-22T12:27:56Z</time></trkpt><trkpt lat="41.38596411565525" lon="-3.424783773366537"><ele>999.0</ele><time>2026-03-22T12:27:57.999Z</time></trkpt><trkpt lat="41.38600426073098" lon="-3.424891109886906"><ele>999.0</ele><time>2026-03-22T12:27:59.999Z</time></trkpt><trkpt lat="41.38603365352138" lon="-3.424974780172542"><ele>999.0</ele><time>2026-03-22T12:28:01.999Z</time></trkpt><trkpt lat="41.38606976136617" lon="-3.425077565694231"><ele>999.0</ele><time>2026-03-22T12:28:03.999Z</time></trkpt><trkpt lat="41.38610033955579" lon="-3.4251695711918364"><ele>999.0</ele><time>2026-03-22T12:28:05.999Z</time></trkpt><trkpt lat="41.3861285485321" lon="-3.4252552830842418"><ele>999.0000000000001</ele><time>2026-03-22T12:28:07.999Z</time></trkpt><trkpt lat="41.3861548843839" lon="-3.4253353035556957"><ele>999.0</ele><time>2026-03-22T12:28:09.999Z</time></trkpt><trkpt lat="41.38619102601961" lon="-3.4254502651573997"><ele>999.0</ele><time>2026-03-22T12:28:12.999Z</time></trkpt><trkpt lat="41.386215417187216" lon="-3.4255311946221685"><ele>999.0000000000001</ele><time>2026-03-22T12:28:14.999Z</time></trkpt><trkpt lat="41.38624110039421" lon="-3.425618831215203"><ele>999.0</ele><time>2026-03-22T12:28:16.999Z</time></trkpt><trkpt lat="41.38628403472538" lon="-3.425690326574255"><ele>999.0</ele><time>2026-03-22T12:28:18.999Z</time></trkpt><trkpt lat="41.3863828353846" lon="-3.425671913989691"><ele>999.8000000000001</ele><time>2026-03-22T12:28:20.999Z</time></trkpt><trkpt lat="41.38648013282651" lon="-3.425712852982242"><ele>1000.6000000000001</ele><time>2026-03-22T12:28:22.999Z</time></trkpt><trkpt lat="41.38659815743665" lon="-3.425713705534645"><ele>1001.4</ele><time>2026-03-22T12:28:24.999Z</time></trkpt><trkpt lat="41.3867057050124" lon="-3.4257067783651363"><ele>1002.2</ele><time>2026-03-22T12:28:26.999Z</time></trkpt><trkpt lat="41.38681244668171" lon="-3.425723687461459"><ele>1003.0</ele><time>2026-03-22T12:28:28.999Z</time></trkpt><trkpt lat="41.386933118147944" lon="-3.4257449111460723"><ele>1002.9999999999999</ele><time>2026-03-22T12:28:30.999Z</time></trkpt><trkpt lat="41.3870250717647" lon="-3.4257812384586726"><ele>1003.0</ele><time>2026-03-22T12:28:32.999Z</time></trkpt><trkpt lat="41.387086485369" lon="-3.4258226750244805"><ele>1003.0</ele><time>2026-03-22T12:28:34.999Z</time></trkpt><trkpt lat="41.38715646733576" lon="-3.4258686501272226"><ele>1003.0</ele><time>2026-03-22T12:28:36.999Z</time></trkpt><trkpt lat="41.387231326362944" lon="-3.425935681703919"><ele>1002.9999999999999</ele><time>2026-03-22T12:28:39.999Z</time></trkpt><trkpt lat="41.38729648919956" lon="-3.4259983457907937"><ele>1003.0</ele><time>2026-03-22T12:28:42.999Z</time></trkpt><trkpt lat="41.38735667126198" lon="-3.4260593907832773"><ele>1002.9999999999999</ele><time>2026-03-22T12:28:46.999Z</time></trkpt><trkpt lat="41.38741673403599" lon="-3.4261134254885013"><ele>1003.0</ele><time>2026-03-22T12:28:50Z</time></trkpt><trkpt lat="41.38748186194856" lon="-3.42618806050528"><ele>1003.0</ele><time>2026-03-22T12:28:53Z</time></trkpt><trkpt lat="41.38752858399994" lon="-3.42628047241014"><ele>1003.0</ele><time>2026-03-22T12:28:56Z</time></trkpt><trkpt lat="41.38748108217842" lon="-3.426346321404624"><ele>1002.9999999999999</ele><time>2026-03-22T12:28:58Z</time></trkpt><trkpt lat="41.387417749988174" lon="-3.4264635401667753"><ele>1003.0</ele><time>2026-03-22T12:29:00Z</time></trkpt><trkpt lat="41.387343542108816" lon="-3.4266006285317814"><ele>1003.1428571428571</ele><time>2026-03-22T12:29:02Z</time></trkpt><trkpt lat="41.38729446276641" lon="-3.4266644116454805"><ele>1003.2857142857142</ele><time>2026-03-22T12:29:03Z</time></trkpt><trkpt lat="41.387237645803154" lon="-3.426727889440223"><ele>1003.4285714285713</ele><time>2026-03-22T12:29:04Z</time></trkpt><trkpt lat="41.38717569236432" lon="-3.4267842925552876"><ele>1003.5714285714284</ele><time>2026-03-22T12:29:05Z</time></trkpt><trkpt lat="41.3871102562019" lon="-3.4268372560343243"><ele>1003.7142857142857</ele><time>2026-03-22T12:29:06Z</time></trkpt><trkpt lat="41.387044857007425" lon="-3.4268853449922227"><ele>1003.8571428571427</ele><time>2026-03-22T12:29:07Z</time></trkpt><trkpt lat="41.3869834047965" lon="-3.4269358958631457"><ele>1003.9999999999999</ele><time>2026-03-22T12:29:08Z</time></trkpt><trkpt lat="41.38692774318985" lon="-3.426984936676246"><ele>1004.1666666666667</ele><time>2026-03-22T12:29:09Z</time></trkpt><trkpt lat="41.386867272022954" lon="-3.427064531687358"><ele>1004.3333333333334</ele><time>2026-03-22T12:29:11Z</time></trkpt><trkpt lat="41.38681917661485" lon="-3.4271202010532966"><ele>1004.5</ele><time>2026-03-22T12:29:15Z</time></trkpt><trkpt lat="41.386735955100534" lon="-3.4271475563981006"><ele>1004.6666666666667</ele><time>2026-03-22T12:29:21Z</time></trkpt><trkpt lat="41.38665940647958" lon="-3.4271387468703307"><ele>1004.8333333333334</ele><time>2026-03-22T12:29:25Z</time></trkpt><trkpt lat="41.38658472765956" lon="-3.42714909400897"><ele>1005.0</ele><time>2026-03-22T12:29:58.999Z</time></trkpt><trkpt lat="41.38650967735439" lon="-3.4270863221950583"><ele>1005.0</ele><time>2026-03-22T12:30:01.999Z</time></trkpt><trkpt lat="41.38645162997532" lon="-3.4270377684846687"><ele>1005.0</ele><time>2026-03-22T12:30:03.999Z</time></trkpt><trkpt lat="41.38636131266151" lon="-3.4270356396793304"><ele>1005.0</ele><time>2026-03-22T12:30:06.999Z</time></trkpt><trkpt lat="41.386326676759786" lon="-3.4269510132130145"><ele>1005.0</ele><time>2026-03-22T12:30:09.999Z</time></trkpt><trkpt lat="41.386254484938945" lon="-3.4268827970211664"><ele>1005.0</ele><time>2026-03-22T12:30:12.999Z</time></trkpt><trkpt lat="41.386197526980965" lon="-3.426823703799002"><ele>1005.0</ele><time>2026-03-22T12:30:18.999Z</time></trkpt><trkpt lat="41.38618583819994" lon="-3.426736653490115"><ele>1005.1666666666666</ele><time>2026-03-22T12:30:22.999Z</time></trkpt><trkpt lat="41.38626791114772" lon="-3.426654167169205"><ele>1005.3333333333333</ele><time>2026-03-22T12:30:50.999Z</time></trkpt><trkpt lat="41.386307295425524" lon="-3.4267242902792345"><ele>1005.5</ele><time>2026-03-22T12:30:53.999Z</time></trkpt><trkpt lat="41.38627690219496" lon="-3.426805231690644"><ele>1005.6666666666666</ele><time>2026-03-22T12:30:56Z</time></trkpt><trkpt lat="41.38623151453864" lon="-3.4268734066848516"><ele>1005.8333333333333</ele><time>2026-03-22T12:30:58Z</time></trkpt><trkpt lat="41.38618721346294" lon="-3.4269496528152366"><ele>1006.0</ele><time>2026-03-22T12:31:00Z</time></trkpt><trkpt lat="41.386104913637105" lon="-3.4270224485518743"><ele>1005.9999999999999</ele><time>2026-03-22T12:31:03Z</time></trkpt><trkpt lat="41.38603001614833" lon="-3.427043666914379"><ele>1006.0</ele><time>2026-03-22T12:31:05Z</time></trkpt><trkpt lat="41.38594912689998" lon="-3.4270907005977747"><ele>1006.0</ele><time>2026-03-22T12:31:08Z</time></trkpt><trkpt lat="41.385887933143366" lon="-3.427166422151613"><ele>1006.0</ele><time>2026-03-22T12:31:11Z</time></trkpt><trkpt lat="41.385803291281114" lon="-3.427204237981989"><ele>1005.9999999999999</ele><time>2026-03-22T12:31:14Z</time></trkpt><trkpt lat="41.38574142460441" lon="-3.4272347219440618"><ele>1006.0</ele><time>2026-03-22T12:31:16Z</time></trkpt><trkpt lat="41.38566723979115" lon="-3.427275936471603"><ele>1006.3333333333333</ele><time>2026-03-22T12:31:19Z</time></trkpt><trkpt lat="41.38558083430072" lon="-3.4273051099397343"><ele>1006.6666666666666</ele><time>2026-03-22T12:31:22Z</time></trkpt><trkpt lat="41.3854909257807" lon="-3.4273026843899204"><ele>1007.0</ele><time>2026-03-22T12:31:25Z</time></trkpt><trkpt lat="41.38540455812627" lon="-3.427334175554918"><ele>1007.3333333333333</ele><time>2026-03-22T12:31:28Z</time></trkpt><trkpt lat="41.385318990461236" lon="-3.427363242920382"><ele>1007.6666666666666</ele><time>2026-03-22T12:31:31Z</time></trkpt><trkpt lat="41.38525187572461" lon="-3.4274059836637214"><ele>1008.0</ele><time>2026-03-22T12:31:33Z</time></trkpt><trkpt lat="41.38518099544563" lon="-3.4274650252938312"><ele>1008.0</ele><time>2026-03-22T12:31:35Z</time></trkpt><trkpt lat="41.385091011661665" lon="-3.42749834556309"><ele>1008.0</ele><time>2026-03-22T12:31:37Z</time></trkpt><trkpt lat="41.384992895889795" lon="-3.4275672117919513"><ele>1008.0</ele><time>2026-03-22T12:31:39Z</time></trkpt><trkpt lat="41.384902562833915" lon="-3.4276257475655716"><ele>1008.0</ele><time>2026-03-22T12:31:41Z</time></trkpt><trkpt lat="41.384818126285836" lon="-3.427702894184393"><ele>1008.0</ele><time>2026-03-22T12:31:43Z</time></trkpt><trkpt lat="41.38473914906122" lon="-3.4277844149536136"><ele>1008.0</ele><time>2026-03-22T12:31:45Z</time></trkpt><trkpt lat="41.384680069392935" lon="-3.4278819811988392"><ele>1008.0</ele><time>2026-03-22T12:31:47Z</time></trkpt><trkpt lat="41.38463263495324" lon="-3.427961935419889"><ele>1008.0</ele><time>2026-03-22T12:31:49Z</time></trkpt><trkpt lat="41.38457396704858" lon="-3.428038065912282"><ele>1008.0</ele><time>2026-03-22T12:31:51Z</time></trkpt><trkpt lat="41.38451898537315" lon="-3.428124245442574"><ele>1008.0</ele><time>2026-03-22T12:31:52.999Z</time></trkpt><trkpt lat="41.38445836507531" lon="-3.4282073956706656"><ele>1008.0</ele><time>2026-03-22T12:31:54.999Z</time></trkpt><trkpt lat="41.38436878561847" lon="-3.428250272123061"><ele>1008.75</ele><time>2026-03-22T12:31:56.999Z</time></trkpt><trkpt lat="41.38426855740745" lon="-3.428319301267328"><ele>1009.5</ele><time>2026-03-22T12:31:58.999Z</time></trkpt><trkpt lat="41.384317509794194" lon="-3.4285642251671695"><ele>1010.25</ele><time>2026-03-22T12:31:59.999Z</time></trkpt><trkpt lat="41.384230633441845" lon="-3.4286355880879062"><ele>1011.0</ele><time>2026-03-22T12:32:01.999Z</time></trkpt><trkpt lat="41.38415024518853" lon="-3.4287028401411357"><ele>1011.0</ele><time>2026-03-22T12:32:03.999Z</time></trkpt><trkpt lat="41.38406626707163" lon="-3.4287730954370184"><ele>1011.0</ele><time>2026-03-22T12:32:05.999Z</time></trkpt><trkpt lat="41.38399796747319" lon="-3.4288299879735904"><ele>1011.0</ele><time>2026-03-22T12:32:07.999Z</time></trkpt><trkpt lat="41.383931007644584" lon="-3.4288855399567364"><ele>1011.0</ele><time>2026-03-22T12:32:09.999Z</time></trkpt><trkpt lat="41.38387561238419" lon="-3.4289314975974885"><ele>1011.0</ele><time>2026-03-22T12:32:11.999Z</time></trkpt><trkpt lat="41.38379799237069" lon="-3.4289958935959466"><ele>1011.0</ele><time>2026-03-22T12:32:14.999Z</time></trkpt><trkpt lat="41.383737087953826" lon="-3.429046421815686"><ele>1011.0</ele><time>2026-03-22T12:32:16.999Z</time></trkpt><trkpt lat="41.383677134408025" lon="-3.429096161162832"><ele>1011.0</ele><time>2026-03-22T12:32:18.999Z</time></trkpt><trkpt lat="41.38362299648291" lon="-3.429141075686296"><ele>1011.0</ele><time>2026-03-22T12:32:20.999Z</time></trkpt><trkpt lat="41.38356005946075" lon="-3.429193290217925"><ele>1011.0</ele><time>2026-03-22T12:32:22.999Z</time></trkpt><trkpt lat="41.383501438536975" lon="-3.4292419239743674"><ele>1011.0</ele><time>2026-03-22T12:32:24.999Z</time></trkpt><trkpt lat="41.383422716829514" lon="-3.429307233979838"><ele>1011.0</ele><time>2026-03-22T12:32:27.999Z</time></trkpt><trkpt lat="41.383133064109366" lon="-3.4287680513901244"><ele>1011.1666666666666</ele><time>2026-03-22T12:32:28.999Z</time></trkpt><trkpt lat="41.38306311469333" lon="-3.428781996153634"><ele>1011.3333333333333</ele><time>2026-03-22T12:32:30.999Z</time></trkpt><trkpt lat="41.383001188657154" lon="-3.428817095220474"><ele>1011.5</ele><time>2026-03-22T12:32:32.999Z</time></trkpt><trkpt lat="41.38292009965687" lon="-3.4288422728886028"><ele>1011.6666666666666</ele><time>2026-03-22T12:32:35.999Z</time></trkpt><trkpt lat="41.38283063177623" lon="-3.4288380986841878"><ele>1011.8333333333333</ele><time>2026-03-22T12:32:38.999Z</time></trkpt><trkpt lat="41.38275295544805" lon="-3.428825913543487"><ele>1012.0</ele><time>2026-03-22T12:32:40.999Z</time></trkpt><trkpt lat="41.38265405870635" lon="-3.4288198672073156"><ele>1012.0</ele><time>2026-03-22T12:32:42.999Z</time></trkpt><trkpt lat="41.382553546695355" lon="-3.428823362869513"><ele>1012.0</ele><time>2026-03-22T12:32:44.999Z</time></trkpt><trkpt lat="41.38246297710618" lon="-3.4288577805671068"><ele>1012.0</ele><time>2026-03-22T12:32:46.999Z</time></trkpt><trkpt lat="41.38237829995091" lon="-3.4289047862936073"><ele>1012.0</ele><time>2026-03-22T12:32:48.999Z</time></trkpt><trkpt lat="41.382298097721524" lon="-3.4289463459869576"><ele>1012.0</ele><time>2026-03-22T12:32:50.999Z</time></trkpt><trkpt lat="41.38222368977371" lon="-3.428983374400767"><ele>1011.8333333333333</ele><time>2026-03-22T12:32:52.999Z</time></trkpt><trkpt lat="41.382150140881286" lon="-3.4290219861446634"><ele>1011.6666666666666</ele><time>2026-03-22T12:32:54.999Z</time></trkpt><trkpt lat="41.38207120039402" lon="-3.4290659320129304"><ele>1011.5</ele><time>2026-03-22T12:32:56.999Z</time></trkpt><trkpt lat="41.38200070803097" lon="-3.429145338422025"><ele>1011.3333333333333</ele><time>2026-03-22T12:32:58.999Z</time></trkpt><trkpt lat="41.38192490787193" lon="-3.429210731546563"><ele>1011.1666666666666</ele><time>2026-03-22T12:33:00.999Z</time></trkpt><trkpt lat="41.3818487279342" lon="-3.429276607339886"><ele>1011.0</ele><time>2026-03-22T12:33:03Z</time></trkpt><trkpt lat="41.38177954764627" lon="-3.4293398524613092"><ele>1011.0</ele><time>2026-03-22T12:33:05Z</time></trkpt><trkpt lat="41.38171627519542" lon="-3.429392918633562"><ele>1011.0</ele><time>2026-03-22T12:33:07Z</time></trkpt><trkpt lat="41.38166297683189" lon="-3.4294747363569162"><ele>1011.0</ele><time>2026-03-22T12:33:09Z</time></trkpt><trkpt lat="41.3815988979276" lon="-3.4295330917114013"><ele>1011.0</ele><time>2026-03-22T12:33:11Z</time></trkpt><trkpt lat="41.381516714468" lon="-3.4295717154328855"><ele>1011.0</ele><time>2026-03-22T12:33:13Z</time></trkpt><trkpt lat="41.38143413299136" lon="-3.42961788258081"><ele>1011.0</ele><time>2026-03-22T12:33:15Z</time></trkpt><trkpt lat="41.3813518539744" lon="-3.4296736718202534"><ele>1011.4</ele><time>2026-03-22T12:33:17Z</time></trkpt><trkpt lat="41.381267516443764" lon="-3.4297254634114185"><ele>1011.8</ele><time>2026-03-22T12:33:19Z</time></trkpt><trkpt lat="41.38117356744845" lon="-3.429746933563449"><ele>1012.1999999999999</ele><time>2026-03-22T12:33:21Z</time></trkpt><trkpt lat="41.381072744531025" lon="-3.4297724123301765"><ele>1012.5999999999999</ele><time>2026-03-22T12:33:23Z</time></trkpt><trkpt lat="41.380966317915586" lon="-3.429797753389388"><ele>1013.0</ele><time>2026-03-22T12:33:25Z</time></trkpt><trkpt lat="41.38085903017928" lon="-3.429820897323268"><ele>1013.0</ele><time>2026-03-22T12:33:27Z</time></trkpt><trkpt lat="41.380745526118105" lon="-3.4298786098447023"><ele>1013.0</ele><time>2026-03-22T12:33:29Z</time></trkpt><trkpt lat="41.38064307084972" lon="-3.4299583571915595"><ele>1013.0</ele><time>2026-03-22T12:33:31Z</time></trkpt><trkpt lat="41.38054936926564" lon="-3.4300490327627835"><ele>1013.0</ele><time>2026-03-22T12:33:33Z</time></trkpt><trkpt lat="41.38045141426132" lon="-3.430139632453436"><ele>1012.8</ele><time>2026-03-22T12:33:35Z</time></trkpt><trkpt lat="41.380353896763346" lon="-3.430225157034434"><ele>1012.5999999999999</ele><time>2026-03-22T12:33:37Z</time></trkpt><trkpt lat="41.3802642740817" lon="-3.430304494404033"><ele>1012.4000000000001</ele><time>2026-03-22T12:33:39Z</time></trkpt><trkpt lat="41.38016510017545" lon="-3.43037934393991"><ele>1012.2</ele><time>2026-03-22T12:33:41Z</time></trkpt><trkpt lat="41.38006833216595" lon="-3.430448078046942"><ele>1012.0</ele><time>2026-03-22T12:33:43Z</time></trkpt><trkpt lat="41.379967192343216" lon="-3.43052191104393"><ele>1012.2</ele><time>2026-03-22T12:33:45Z</time></trkpt><trkpt lat="41.3798680229228" lon="-3.430596183503497"><ele>1012.4000000000001</ele><time>2026-03-22T12:33:47Z</time></trkpt><trkpt lat="41.37978833442605" lon="-3.4307175646808723"><ele>1012.5999999999999</ele><time>2026-03-22T12:33:49Z</time></trkpt><trkpt lat="41.379716541524566" lon="-3.4308266069472304"><ele>1012.8</ele><time>2026-03-22T12:33:51Z</time></trkpt><trkpt lat="41.37964710557226" lon="-3.4308948927498006"><ele>1013.0</ele><time>2026-03-22T12:33:53Z</time></trkpt><trkpt lat="41.37958907873394" lon="-3.430941431506026"><ele>1013.0</ele><time>2026-03-22T12:33:56Z</time></trkpt><trkpt lat="41.37953378852279" lon="-3.4308583248013376"><ele>1013.0</ele><time>2026-03-22T12:34:22.999Z</time></trkpt><trkpt lat="41.37957382540732" lon="-3.430737044645479"><ele>1013.0</ele><time>2026-03-22T12:34:24.999Z</time></trkpt><trkpt lat="41.37961908827231" lon="-3.430606045172763"><ele>1013.0</ele><time>2026-03-22T12:34:26.999Z</time></trkpt><trkpt lat="41.37965883778306" lon="-3.4304790155120872"><ele>1013.0</ele><time>2026-03-22T12:34:28.999Z</time></trkpt><trkpt lat="41.3796923805556" lon="-3.4303643785402285"><ele>1012.8333333333334</ele><time>2026-03-22T12:34:30.999Z</time></trkpt><trkpt lat="41.379730540043404" lon="-3.4302843855703684"><ele>1012.6666666666667</ele><time>2026-03-22T12:34:32.999Z</time></trkpt><trkpt lat="41.37971639698581" lon="-3.430150068261831"><ele>1012.5</ele><time>2026-03-22T12:34:34.999Z</time></trkpt><trkpt lat="41.37966145721771" lon="-3.4300752626870428"><ele>1012.3333333333333</ele><time>2026-03-22T12:34:35.999Z</time></trkpt><trkpt lat="41.37963332047251" lon="-3.4299750853441155"><ele>1012.1666666666666</ele><time>2026-03-22T12:34:36.999Z</time></trkpt><trkpt lat="41.37961866730424" lon="-3.429864603899944"><ele>1012.0</ele><time>2026-03-22T12:34:37.999Z</time></trkpt><trkpt lat="41.37962131306962" lon="-3.429739606427862"><ele>1010.4000000000001</ele><time>2026-03-22T12:34:38.999Z</time></trkpt><trkpt lat="41.37963216121083" lon="-3.4296058229234445"><ele>1008.8000000000001</ele><time>2026-03-22T12:34:39.999Z</time></trkpt><trkpt lat="41.37966018277288" lon="-3.4294790637212924"><ele>1007.2</ele><time>2026-03-22T12:34:40.999Z</time></trkpt><trkpt lat="41.379710133120156" lon="-3.42936260135523"><ele>1005.6</ele><time>2026-03-22T12:34:41.999Z</time></trkpt><trkpt lat="41.37979083329996" lon="-3.4292639846401336"><ele>1004.0</ele><time>2026-03-22T12:34:42.999Z</time></trkpt><trkpt lat="41.37986599010743" lon="-3.429159804898537"><ele>1004.0</ele><time>2026-03-22T12:34:43.999Z</time></trkpt><trkpt lat="41.379937743982104" lon="-3.429067263057804"><ele>1004.0000000000001</ele><time>2026-03-22T12:34:44.999Z</time></trkpt><trkpt lat="41.38001590265351" lon="-3.428959751153377"><ele>1004.0000000000001</ele><time>2026-03-22T12:34:45.999Z</time></trkpt><trkpt lat="41.380082830120976" lon="-3.4288567169349538"><ele>1004.0</ele><time>2026-03-22T12:34:46.999Z</time></trkpt><trkpt lat="41.38013280609777" lon="-3.4287435292040906"><ele>1004.0</ele><time>2026-03-22T12:34:47.999Z</time></trkpt><trkpt lat="41.380136864175896" lon="-3.4286068865732204"><ele>1004.0</ele><time>2026-03-22T12:34:48.999Z</time></trkpt><trkpt lat="41.38016037271771" lon="-3.4284472360244997"><ele>1004.0000000000001</ele><time>2026-03-22T12:34:49.999Z</time></trkpt><trkpt lat="41.380214896065795" lon="-3.428341706330917"><ele>1004.0000000000001</ele><time>2026-03-22T12:34:50.999Z</time></trkpt><trkpt lat="41.38028562153993" lon="-3.4282390535142597"><ele>1004.0</ele><time>2026-03-22T12:34:51.999Z</time></trkpt><trkpt lat="41.38035492327783" lon="-3.4281312688136514"><ele>1004.0</ele><time>2026-03-22T12:34:52.999Z</time></trkpt><trkpt lat="41.38043040632719" lon="-3.4280310074102958"><ele>1004.0</ele><time>2026-03-22T12:34:53.999Z</time></trkpt><trkpt lat="41.380505110384476" lon="-3.4279266948129976"><ele>1004.0000000000001</ele><time>2026-03-22T12:34:54.999Z</time></trkpt><trkpt lat="41.380590489658935" lon="-3.4278342041133767"><ele>1004.0000000000001</ele><time>2026-03-22T12:34:55.999Z</time></trkpt><trkpt lat="41.38067416292764" lon="-3.427741615168513"><ele>1004.0</ele><time>2026-03-22T12:34:56.999Z</time></trkpt><trkpt lat="41.38076785099857" lon="-3.4276659476201687"><ele>1004.0</ele><time>2026-03-22T12:34:57.999Z</time></trkpt><trkpt lat="41.380866935008896" lon="-3.4276016445712023"><ele>1004.2</ele><time>2026-03-22T12:34:58.999Z</time></trkpt><trkpt lat="41.38097106924013" lon="-3.427543243204547"><ele>1004.4000000000001</ele><time>2026-03-22T12:34:59.999Z</time></trkpt><trkpt lat="41.38106701934666" lon="-3.427468200551443"><ele>1004.6</ele><time>2026-03-22T12:35:00.999Z</time></trkpt><trkpt lat="41.381170544863444" lon="-3.427437996298223"><ele>1004.8</ele><time>2026-03-22T12:35:01.999Z</time></trkpt><trkpt lat="41.381271636735875" lon="-3.42737887619282"><ele>1005.0</ele><time>2026-03-22T12:35:02.999Z</time></trkpt><trkpt lat="41.38137603045108" lon="-3.427329877057793"><ele>1004.6</ele><time>2026-03-22T12:35:03.999Z</time></trkpt><trkpt lat="41.381479564660225" lon="-3.4272854920458053"><ele>1004.2</ele><time>2026-03-22T12:35:04.999Z</time></trkpt><trkpt lat="41.38157748059118" lon="-3.427216262912546"><ele>1003.8</ele><time>2026-03-22T12:35:05.999Z</time></trkpt><trkpt lat="41.38167989490921" lon="-3.4271641685312524"><ele>1003.4</ele><time>2026-03-22T12:35:06.999Z</time></trkpt><trkpt lat="41.38177339514425" lon="-3.4271156629168034"><ele>1003.0</ele><time>2026-03-22T12:35:08Z</time></trkpt><trkpt lat="41.38186238614795" lon="-3.4270649436122493"><ele>1003.0</ele><time>2026-03-22T12:35:09Z</time></trkpt><trkpt lat="41.38195135230112" lon="-3.427010516742989"><ele>1003.0</ele><time>2026-03-22T12:35:10Z</time></trkpt><trkpt lat="41.38203876803745" lon="-3.4269559045333655"><ele>1003.0</ele><time>2026-03-22T12:35:11Z</time></trkpt><trkpt lat="41.38212524902383" lon="-3.4269025594603404"><ele>1003.0</ele><time>2026-03-22T12:35:12Z</time></trkpt><trkpt lat="41.38221631871449" lon="-3.4268628429324215"><ele>1003.0</ele><time>2026-03-22T12:35:13Z</time></trkpt><trkpt lat="41.38229882834438" lon="-3.4268015942083703"><ele>1002.5999999999999</ele><time>2026-03-22T12:35:14Z</time></trkpt><trkpt lat="41.382391348438276" lon="-3.4267570276258796"><ele>1002.1999999999999</ele><time>2026-03-22T12:35:15Z</time></trkpt><trkpt lat="41.38247757790763" lon="-3.426703092147097"><ele>1001.8</ele><time>2026-03-22T12:35:16Z</time></trkpt><trkpt lat="41.38257010570451" lon="-3.4266465271208593"><ele>1001.4</ele><time>2026-03-22T12:35:17Z</time></trkpt><trkpt lat="41.38265896658632" lon="-3.4265975893089684"><ele>1001.0</ele><time>2026-03-22T12:35:18Z</time></trkpt><trkpt lat="41.38274740013709" lon="-3.426559284074159"><ele>1001.0</ele><time>2026-03-22T12:35:19Z</time></trkpt><trkpt lat="41.382826813107336" lon="-3.426495413608559"><ele>1000.9999999999999</ele><time>2026-03-22T12:35:20Z</time></trkpt><trkpt lat="41.38291009943161" lon="-3.4264445344341876"><ele>1000.9999999999999</ele><time>2026-03-22T12:35:21Z</time></trkpt><trkpt lat="41.38298656051277" lon="-3.4263945332035153"><ele>1001.0</ele><time>2026-03-22T12:35:22Z</time></trkpt><trkpt lat="41.38307196109774" lon="-3.4263490998871826"><ele>1001.0</ele><time>2026-03-22T12:35:23Z</time></trkpt><trkpt lat="41.38316051763921" lon="-3.426270658002377"><ele>1001.1999999999999</ele><time>2026-03-22T12:35:24Z</time></trkpt><trkpt lat="41.38325117990109" lon="-3.426206766144046"><ele>1001.3999999999999</ele><time>2026-03-22T12:35:25Z</time></trkpt><trkpt lat="41.38333541319684" lon="-3.4261479405748605"><ele>1001.6</ele><time>2026-03-22T12:35:26Z</time></trkpt><trkpt lat="41.38342561869438" lon="-3.426084944225792"><ele>1001.8</ele><time>2026-03-22T12:35:27Z</time></trkpt><trkpt lat="41.38351797158749" lon="-3.426020448214531"><ele>1002.0</ele><time>2026-03-22T12:35:28Z</time></trkpt><trkpt lat="41.383615536795894" lon="-3.4259523120589805"><ele>1002.0</ele><time>2026-03-22T12:35:29Z</time></trkpt><trkpt lat="41.38371224006807" lon="-3.4258790732553366"><ele>1002.0</ele><time>2026-03-22T12:35:30Z</time></trkpt><trkpt lat="41.38380226609758" lon="-3.4257994022938147"><ele>1002.0</ele><time>2026-03-22T12:35:31Z</time></trkpt><trkpt lat="41.383903729877105" lon="-3.425725645915858"><ele>1002.0</ele><time>2026-03-22T12:35:32Z</time></trkpt><trkpt lat="41.383994028924555" lon="-3.4256306716205644"><ele>1001.75</ele><time>2026-03-22T12:35:33Z</time></trkpt><trkpt lat="41.384076183317006" lon="-3.425523084800998"><ele>1001.5</ele><time>2026-03-22T12:35:34Z</time></trkpt><trkpt lat="41.38417887543038" lon="-3.4254584614618198"><ele>1001.25</ele><time>2026-03-22T12:35:35Z</time></trkpt><trkpt lat="41.38427804492117" lon="-3.425387642561067"><ele>1001.0</ele><time>2026-03-22T12:35:36Z</time></trkpt><trkpt lat="41.38436711994057" lon="-3.4252910032801402"><ele>1001.0</ele><time>2026-03-22T12:35:37Z</time></trkpt><trkpt lat="41.3844621158686" lon="-3.4252098556010586"><ele>1000.9999999999999</ele><time>2026-03-22T12:35:38Z</time></trkpt><trkpt lat="41.38455579152579" lon="-3.4251487298490533"><ele>1000.9999999999999</ele><time>2026-03-22T12:35:39Z</time></trkpt><trkpt lat="41.384640044670675" lon="-3.425075390952358"><ele>1001.0</ele><time>2026-03-22T12:35:40Z</time></trkpt><trkpt lat="41.384709511687234" lon="-3.4249863643029226"><ele>1001.0</ele><time>2026-03-22T12:35:41Z</time></trkpt><trkpt lat="41.38478346279214" lon="-3.4249176160645387"><ele>1001.0</ele><time>2026-03-22T12:35:42Z</time></trkpt><trkpt lat="41.384859564135" lon="-3.4248441217525474"><ele>1000.9999999999999</ele><time>2026-03-22T12:35:43Z</time></trkpt><trkpt lat="41.384936810148695" lon="-3.4247682190955957"><ele>1000.9999999999999</ele><time>2026-03-22T12:35:44Z</time></trkpt><trkpt lat="41.385039031526276" lon="-3.4247312183074765"><ele>1001.0</ele><time>2026-03-22T12:35:45Z</time></trkpt><trkpt lat="41.38512552002112" lon="-3.4246698585927873"><ele>1001.0</ele><time>2026-03-22T12:35:46Z</time></trkpt><trkpt lat="41.38520897665589" lon="-3.4246152521246125"><ele>1001.0000000000001</ele><time>2026-03-22T12:35:47Z</time></trkpt><trkpt lat="41.385292851768604" lon="-3.424568494593173"><ele>1001.0</ele><time>2026-03-22T12:35:48Z</time></trkpt><trkpt lat="41.38537515245169" lon="-3.4245262903627025"><ele>1001.0</ele><time>2026-03-22T12:35:49Z</time></trkpt><trkpt lat="41.385454521878906" lon="-3.424475833556219"><ele>1001.0</ele><time>2026-03-22T12:35:50Z</time></trkpt><trkpt lat="41.385526149342724" lon="-3.424434276913605"><ele>1001.0000000000001</ele><time>2026-03-22T12:35:51Z</time></trkpt><trkpt lat="41.38559385944065" lon="-3.424405748480912"><ele>1001.0</ele><time>2026-03-22T12:35:52Z</time></trkpt><trkpt lat="41.38565010064531" lon="-3.424357382186743"><ele>1000.5999999999999</ele><time>2026-03-22T12:35:53Z</time></trkpt><trkpt lat="41.385708801526874" lon="-3.424326208709557"><ele>1000.1999999999999</ele><time>2026-03-22T12:35:54Z</time></trkpt><trkpt lat="41.38579452745781" lon="-3.4243636780707174"><ele>999.8000000000001</ele><time>2026-03-22T12:35:55Z</time></trkpt><trkpt lat="41.3858837717832" lon="-3.4245675682688477"><ele>999.4000000000001</ele><time>2026-03-22T12:35:57Z</time></trkpt><trkpt lat="41.38590561207421" lon="-3.4246633465790555"><ele>999.0</ele><time>2026-03-22T12:35:57.999Z</time></trkpt><trkpt lat="41.38594842075518" lon="-3.424742897873105"><ele>999.0</ele><time>2026-03-22T12:35:58.999Z</time></trkpt><trkpt lat="41.385981591089774" lon="-3.4248292860171863"><ele>999.0000000000001</ele><time>2026-03-22T12:35:59.999Z</time></trkpt><trkpt lat="41.38601370364763" lon="-3.424917990333848"><ele>999.0</ele><time>2026-03-22T12:36:00.999Z</time></trkpt><trkpt lat="41.38604439389383" lon="-3.425005353978915"><ele>999.0</ele><time>2026-03-22T12:36:01.999Z</time></trkpt><trkpt lat="41.38607592161957" lon="-3.425095101617249"><ele>999.0000000000001</ele><time>2026-03-22T12:36:02.999Z</time></trkpt><trkpt lat="41.38610606381971" lon="-3.4251869641354507"><ele>999.0</ele><time>2026-03-22T12:36:03.999Z</time></trkpt><trkpt lat="41.38613661245091" lon="-3.4252797849778593"><ele>999.0</ele><time>2026-03-22T12:36:04.999Z</time></trkpt><trkpt lat="41.38616738718263" lon="-3.4253732928172993"><ele>999.0</ele><time>2026-03-22T12:36:05.999Z</time></trkpt><trkpt lat="41.3861966287712" lon="-3.425468554754074"><ele>999.0000000000001</ele><time>2026-03-22T12:36:06.999Z</time></trkpt><trkpt lat="41.386225569928605" lon="-3.4255658379314005"><ele>999.0</ele><time>2026-03-22T12:36:07.999Z</time></trkpt><trkpt lat="41.38625296230726" lon="-3.4256593066187144"><ele>999.0</ele><time>2026-03-22T12:36:08.999Z</time></trkpt><trkpt lat="41.38627799619101" lon="-3.4257526862452043"><ele>999.0000000000001</ele><time>2026-03-22T12:36:09.999Z</time></trkpt><trkpt lat="41.38630238610428" lon="-3.425841974872585"><ele>999.0</ele><time>2026-03-22T12:36:10.999Z</time></trkpt><trkpt lat="41.38632540818666" lon="-3.425932839154355"><ele>999.0</ele><time>2026-03-22T12:36:11.999Z</time></trkpt><trkpt lat="41.386343514140094" lon="-3.426020189208846"><ele>999.8000000000001</ele><time>2026-03-22T12:36:12.999Z</time></trkpt><trkpt lat="41.386345595306935" lon="-3.426108451942697"><ele>1000.6000000000001</ele><time>2026-03-22T12:36:13.999Z</time></trkpt><trkpt lat="41.38636965260754" lon="-3.4262699551029185"><ele>1001.4</ele><time>2026-03-22T12:36:15.999Z</time></trkpt><trkpt lat="41.38638105468084" lon="-3.4264292369826626"><ele>1002.2</ele><time>2026-03-22T12:36:17.999Z</time></trkpt><trkpt lat="41.38638447399146" lon="-3.426600792276789"><ele>1003.0</ele><time>2026-03-22T12:36:19.999Z</time></trkpt><trkpt lat="41.38636689456995" lon="-3.426750182934307"><ele>1003.4</ele><time>2026-03-22T12:36:21.999Z</time></trkpt><trkpt lat="41.38635851598989" lon="-3.426905874319073"><ele>1003.8</ele><time>2026-03-22T12:36:23.999Z</time></trkpt><trkpt lat="41.386348341890425" lon="-3.4270460428458236"><ele>1004.2</ele><time>2026-03-22T12:36:25.999Z</time></trkpt><trkpt lat="41.38634099544427" lon="-3.427170528646276"><ele>1004.6</ele><time>2026-03-22T12:36:27.999Z</time></trkpt><trkpt lat="41.386337779521114" lon="-3.427283948937025"><ele>1005.0</ele><time>2026-03-22T12:36:29.999Z</time></trkpt><trkpt lat="41.38634378040753" lon="-3.427397834781034"><ele>1005.5</ele><time>2026-03-22T12:36:31.999Z</time></trkpt><trkpt lat="41.386324375988806" lon="-3.427499037254189"><ele>1006.0</ele><time>2026-03-22T12:36:33.999Z</time></trkpt><trkpt lat="41.38632921152218" lon="-3.427597645292966"><ele>1006.5</ele><time>2026-03-22T12:36:35.999Z</time></trkpt><trkpt lat="41.38633825114331" lon="-3.4276811364427062"><ele>1007.0</ele><time>2026-03-22T12:36:37.999Z</time></trkpt><trkpt lat="41.38638542474761" lon="-3.4277646270138287"><ele>1007.5</ele><time>2026-03-22T12:36:41.999Z</time></trkpt><trkpt lat="41.38644934176122" lon="-3.4278229954299375"><ele>1008.0</ele><time>2026-03-22T12:36:43.999Z</time></trkpt><trkpt lat="41.38654842042004" lon="-3.4279020031556833"><ele>1008.5999999999999</ele><time>2026-03-22T12:36:45.999Z</time></trkpt><trkpt lat="41.38661200598155" lon="-3.428020324572399"><ele>1009.1999999999999</ele><time>2026-03-22T12:36:47.999Z</time></trkpt><trkpt lat="41.38664660168714" lon="-3.4281179701299145"><ele>1009.8</ele><time>2026-03-22T12:36:49.999Z</time></trkpt><trkpt lat="41.38663414492703" lon="-3.4282143848516307"><ele>1010.4</ele><time>2026-03-22T12:36:52.999Z</time></trkpt><trkpt lat="41.38658399890737" lon="-3.4283209704938398"><ele>1011.0</ele><time>2026-03-22T12:36:54.999Z</time></trkpt><trkpt lat="41.386558399928276" lon="-3.428456293184135"><ele>1011.0</ele><time>2026-03-22T12:36:56.999Z</time></trkpt><trkpt lat="41.386543199584914" lon="-3.428621152724779"><ele>1011.0</ele><time>2026-03-22T12:36:58.999Z</time></trkpt><trkpt lat="41.38654293323633" lon="-3.428711482467138"><ele>1011.0</ele><time>2026-03-22T12:36:59.999Z</time></trkpt><trkpt lat="41.38652392085617" lon="-3.428802365990991"><ele>1011.0</ele><time>2026-03-22T12:37:00.999Z</time></trkpt><trkpt lat="41.386496824689935" lon="-3.428888125582284"><ele>1011.0</ele><time>2026-03-22T12:37:01.999Z</time></trkpt><trkpt lat="41.38647226693802" lon="-3.4289780477918446"><ele>1011.0</ele><time>2026-03-22T12:37:02.999Z</time></trkpt><trkpt lat="41.386463417605306" lon="-3.4290755065386125"><ele>1011.1666666666666</ele><time>2026-03-22T12:37:03.999Z</time></trkpt><trkpt lat="41.3864615308762" lon="-3.429173281480193"><ele>1011.3333333333333</ele><time>2026-03-22T12:37:04.999Z</time></trkpt><trkpt lat="41.38644584151748" lon="-3.4292718642212847"><ele>1011.5</ele><time>2026-03-22T12:37:05.999Z</time></trkpt><trkpt lat="41.38641605910035" lon="-3.4293685612875295"><ele>1011.6666666666666</ele><time>2026-03-22T12:37:06.999Z</time></trkpt><trkpt lat="41.386382828314936" lon="-3.429457956813202"><ele>1011.8333333333333</ele><time>2026-03-22T12:37:07.999Z</time></trkpt><trkpt lat="41.38634058040565" lon="-3.4295453164161156"><ele>1012.0</ele><time>2026-03-22T12:37:08.998Z</time></trkpt><trkpt lat="41.38632213160041" lon="-3.429636061338803"><ele>1012.1666666666666</ele><time>2026-03-22T12:37:09.998Z</time></trkpt><trkpt lat="41.38631290475641" lon="-3.429772649838922"><ele>1012.3333333333333</ele><time>2026-03-22T12:37:11.998Z</time></trkpt><trkpt lat="41.38629931619065" lon="-3.429856083561086"><ele>1012.5</ele><time>2026-03-22T12:37:14Z</time></trkpt><trkpt lat="41.38627698673164" lon="-3.429959775945297"><ele>1012.6666666666667</ele><time>2026-03-22T12:37:17Z</time></trkpt><trkpt lat="41.3862481165749" lon="-3.4300497764365154"><ele>1012.8333333333334</ele><time>2026-03-22T12:37:20Z</time></trkpt><trkpt lat="41.38621346365253" lon="-3.43016525471016"><ele>1013.0</ele><time>2026-03-22T12:37:23Z</time></trkpt><trkpt lat="41.38619729182956" lon="-3.4302503873992656"><ele>1013.0</ele><time>2026-03-22T12:37:25Z</time></trkpt><trkpt lat="41.38617025832311" lon="-3.4303672550045383"><ele>1013.0000000000001</ele><time>2026-03-22T12:37:28Z</time></trkpt><trkpt lat="41.38616260459513" lon="-3.430463658791762"><ele>1013.0</ele><time>2026-03-22T12:37:31Z</time></trkpt><trkpt lat="41.38615851189863" lon="-3.430547858264804"><ele>1013.0</ele><time>2026-03-22T12:37:33Z</time></trkpt><trkpt lat="41.386148135363776" lon="-3.4306559656266833"><ele>1013.0000000000001</ele><time>2026-03-22T12:37:36Z</time></trkpt><trkpt lat="41.38613923736151" lon="-3.4307454616439683"><ele>1013.0</ele><time>2026-03-22T12:37:38Z</time></trkpt><trkpt lat="41.38613318551056" lon="-3.430832368488488"><ele>1013.0</ele><time>2026-03-22T12:37:40Z</time></trkpt><trkpt lat="41.38612690948985" lon="-3.4309199785724127"><ele>1012.5714285714287</ele><time>2026-03-22T12:37:42Z</time></trkpt><trkpt lat="41.386122119276244" lon="-3.431005356398708"><ele>1012.1428571428572</ele><time>2026-03-22T12:37:44Z</time></trkpt><trkpt lat="41.38610022760113" lon="-3.4311006919579636"><ele>1011.7142857142858</ele><time>2026-03-22T12:37:47Z</time></trkpt><trkpt lat="41.38607858939213" lon="-3.4311835591981197"><ele>1011.2857142857142</ele><time>2026-03-22T12:37:54Z</time></trkpt><trkpt lat="41.38608508033462" lon="-3.431275275214878"><ele>1010.8571428571428</ele><time>2026-03-22T12:38:27.999Z</time></trkpt><trkpt lat="41.386076244329026" lon="-3.4313852143356645"><ele>1010.4285714285713</ele><time>2026-03-22T12:38:30.999Z</time></trkpt><trkpt lat="41.38606332162038" lon="-3.4314923908203583"><ele>1010.0</ele><time>2026-03-22T12:38:33.999Z</time></trkpt><trkpt lat="41.386043617651204" lon="-3.431584764759913"><ele>1010.0000000000001</ele><time>2026-03-22T12:38:36.999Z</time></trkpt><trkpt lat="41.38602595292854" lon="-3.431669152586804"><ele>1010.0</ele><time>2026-03-22T12:38:39.999Z</time></trkpt><trkpt lat="41.38600650275866" lon="-3.4317884550393014"><ele>1010.0</ele><time>2026-03-22T12:38:42.999Z</time></trkpt><trkpt lat="41.38598915323508" lon="-3.4319002915552708"><ele>1010.0</ele><time>2026-03-22T12:38:44.999Z</time></trkpt><trkpt lat="41.38597004077548" lon="-3.432032999660647"><ele>1010.0000000000001</ele><time>2026-03-22T12:38:46.999Z</time></trkpt><trkpt lat="41.38595875924989" lon="-3.4321173304583183"><ele>1010.0</ele><time>2026-03-22T12:38:47.999Z</time></trkpt><trkpt lat="41.38595312258229" lon="-3.432203241892482"><ele>1009.8571428571428</ele><time>2026-03-22T12:38:48.999Z</time></trkpt><trkpt lat="41.38595518564597" lon="-3.4322901829718955"><ele>1009.7142857142856</ele><time>2026-03-22T12:38:49.999Z</time></trkpt><trkpt lat="41.38595647938983" lon="-3.4323832719202225"><ele>1009.5714285714286</ele><time>2026-03-22T12:38:50.999Z</time></trkpt><trkpt lat="41.38596402738279" lon="-3.4324791001073534"><ele>1009.4285714285713</ele><time>2026-03-22T12:38:51.999Z</time></trkpt><trkpt lat="41.38596537592173" lon="-3.432575719249622"><ele>1009.2857142857142</ele><time>2026-03-22T12:38:52.999Z</time></trkpt><trkpt lat="41.385953874526585" lon="-3.4326818745449037"><ele>1009.1428571428571</ele><time>2026-03-22T12:38:53.999Z</time></trkpt><trkpt lat="41.385944530507636" lon="-3.4327780421480063"><ele>1009.0</ele><time>2026-03-22T12:38:54.999Z</time></trkpt><trkpt lat="41.385931467132856" lon="-3.432861694577234"><ele>1008.9999999999999</ele><time>2026-03-22T12:38:55.999Z</time></trkpt><trkpt lat="41.38590710674793" lon="-3.4329801669910576"><ele>1009.0</ele><time>2026-03-22T12:38:56.999Z</time></trkpt><trkpt lat="41.38588912611638" lon="-3.4330865669387114"><ele>1009.0</ele><time>2026-03-22T12:38:57.999Z</time></trkpt><trkpt lat="41.385871824901486" lon="-3.4331891646843875"><ele>1009.0</ele><time>2026-03-22T12:38:58.999Z</time></trkpt><trkpt lat="41.385875832184226" lon="-3.4332946937143105"><ele>1008.9999999999999</ele><time>2026-03-22T12:38:59.999Z</time></trkpt><trkpt lat="41.385854605322656" lon="-3.4334028301457225"><ele>1009.0</ele><time>2026-03-22T12:39:00.999Z</time></trkpt><trkpt lat="41.38583699918068" lon="-3.4334992541543103"><ele>1009.0</ele><time>2026-03-22T12:39:01.999Z</time></trkpt><trkpt lat="41.38582802836963" lon="-3.433600444641866"><ele>1009.0</ele><time>2026-03-22T12:39:02.999Z</time></trkpt><trkpt lat="41.3858251671287" lon="-3.4337049534785837"><ele>1009.0</ele><time>2026-03-22T12:39:03.999Z</time></trkpt><trkpt lat="41.3858353709771" lon="-3.433801134793377"><ele>1009.0</ele><time>2026-03-22T12:39:04.999Z</time></trkpt><trkpt lat="41.38584689241769" lon="-3.433897720409382"><ele>1009.0</ele><time>2026-03-22T12:39:05.999Z</time></trkpt><trkpt lat="41.38584880938708" lon="-3.4339873259216698"><ele>1009.0</ele><time>2026-03-22T12:39:06.999Z</time></trkpt><trkpt lat="41.38583727510166" lon="-3.4340807065965095"><ele>1009.0</ele><time>2026-03-22T12:39:07.999Z</time></trkpt><trkpt lat="41.385821676128444" lon="-3.4341813421175194"><ele>1009.0</ele><time>2026-03-22T12:39:08.999Z</time></trkpt><trkpt lat="41.3858194565665" lon="-3.43433803510176"><ele>1009.0</ele><time>2026-03-22T12:39:10.999Z</time></trkpt><trkpt lat="41.38580868257192" lon="-3.434494101323713"><ele>1009.0</ele><time>2026-03-22T12:39:12.999Z</time></trkpt><trkpt lat="41.385801426541754" lon="-3.434642936148027"><ele>1009.0</ele><time>2026-03-22T12:39:14.999Z</time></trkpt><trkpt lat="41.385791231061894" lon="-3.4347868731229476"><ele>1009.0</ele><time>2026-03-22T12:39:16.999Z</time></trkpt><trkpt lat="41.38571074818458" lon="-3.4347727991260992"><ele>1009.0000000000001</ele><time>2026-03-22T12:39:20Z</time></trkpt><trkpt lat="41.385717918636864" lon="-3.434643728498915"><ele>1009.0000000000001</ele><time>2026-03-22T12:39:22Z</time></trkpt><trkpt lat="41.385736916740164" lon="-3.434511233763297"><ele>1009.0</ele><time>2026-03-22T12:39:24Z</time></trkpt><trkpt lat="41.38574379332236" lon="-3.4343807434679747"><ele>1009.0</ele><time>2026-03-22T12:39:26Z</time></trkpt><trkpt lat="41.385754596167466" lon="-3.4342685106511643"><ele>1008.6666666666666</ele><time>2026-03-22T12:39:28Z</time></trkpt><trkpt lat="41.38576383546659" lon="-3.434164328478771"><ele>1008.3333333333333</ele><time>2026-03-22T12:39:30Z</time></trkpt><trkpt lat="41.38582501809085" lon="-3.4341403773803805"><ele>1008.0</ele><time>2026-03-22T12:39:33Z</time></trkpt><trkpt lat="41.38581782276613" lon="-3.434264927559126"><ele>1007.6666666666667</ele><time>2026-03-22T12:39:35Z</time></trkpt><trkpt lat="41.38580678887908" lon="-3.434400771036977"><ele>1007.3333333333334</ele><time>2026-03-22T12:39:37Z</time></trkpt><trkpt lat="41.38579785966418" lon="-3.434529838147492"><ele>1007.0</ele><time>2026-03-22T12:39:39Z</time></trkpt><trkpt lat="41.38579589587938" lon="-3.4346174099256026"><ele>1007.3333333333334</ele><time>2026-03-22T12:39:43Z</time></trkpt><trkpt lat="41.38579284998628" lon="-3.4347252383365214"><ele>1007.6666666666667</ele><time>2026-03-22T12:39:52Z</time></trkpt><trkpt lat="41.38578390875127" lon="-3.434814211084045"><ele>1008.0</ele><time>2026-03-22T12:39:55Z</time></trkpt><trkpt lat="41.38576518368804" lon="-3.4349193096993607"><ele>1008.3333333333333</ele><time>2026-03-22T12:39:58Z</time></trkpt><trkpt lat="41.38575038031547" lon="-3.4350159171873456"><ele>1008.6666666666666</ele><time>2026-03-22T12:40:00Z</time></trkpt><trkpt lat="41.38571859330053" lon="-3.435134406108663"><ele>1009.0</ele><time>2026-03-22T12:40:02Z</time></trkpt><trkpt lat="41.385679308738254" lon="-3.4352501631596226"><ele>1008.9999999999999</ele><time>2026-03-22T12:40:03.999Z</time></trkpt><trkpt lat="41.3856512044128" lon="-3.43533287330687"><ele>1009.0</ele><time>2026-03-22T12:40:05.999Z</time></trkpt><trkpt lat="41.385670271764454" lon="-3.4354459250333296"><ele>1009.0</ele><time>2026-03-22T12:40:08.999Z</time></trkpt><trkpt lat="41.38569050749489" lon="-3.435529489869094"><ele>1009.0</ele><time>2026-03-22T12:40:10.999Z</time></trkpt><trkpt lat="41.38569948214838" lon="-3.435633020714918"><ele>1008.9999999999999</ele><time>2026-03-22T12:40:12.999Z</time></trkpt><trkpt lat="41.38569110478224" lon="-3.4357636281729103"><ele>1009.0</ele><time>2026-03-22T12:40:14.999Z</time></trkpt><trkpt lat="41.385663845061636" lon="-3.435904830513367"><ele>1009.6</ele><time>2026-03-22T12:40:16.999Z</time></trkpt><trkpt lat="41.38562324583989" lon="-3.436043996783511"><ele>1010.2</ele><time>2026-03-22T12:40:18.999Z</time></trkpt><trkpt lat="41.3855877434837" lon="-3.43618644925939"><ele>1010.8000000000001</ele><time>2026-03-22T12:40:20.999Z</time></trkpt><trkpt lat="41.385553953457624" lon="-3.4363311322897805"><ele>1011.4000000000001</ele><time>2026-03-22T12:40:22.999Z</time></trkpt><trkpt lat="41.385515696406245" lon="-3.4364136905576093"><ele>1012.0</ele><time>2026-03-22T12:40:23.999Z</time></trkpt><trkpt lat="41.38548233359779" lon="-3.436497192459789"><ele>1012.0000000000001</ele><time>2026-03-22T12:40:24.999Z</time></trkpt><trkpt lat="41.38545218147599" lon="-3.4365770771902926"><ele>1012.0</ele><time>2026-03-22T12:40:25.999Z</time></trkpt><trkpt lat="41.38541739266136" lon="-3.436650484198315"><ele>1012.0000000000001</ele><time>2026-03-22T12:40:26.999Z</time></trkpt><trkpt lat="41.38538049086456" lon="-3.436725856785632"><ele>1012.0000000000001</ele><time>2026-03-22T12:40:27.999Z</time></trkpt><trkpt lat="41.38534145578514" lon="-3.436797445602621"><ele>1012.0</ele><time>2026-03-22T12:40:28.999Z</time></trkpt><trkpt lat="41.38529564478561" lon="-3.436857279929048"><ele>1012.0000000000001</ele><time>2026-03-22T12:40:29.999Z</time></trkpt><trkpt lat="41.385243190176226" lon="-3.4369164102377203"><ele>1012.0000000000001</ele><time>2026-03-22T12:40:30.999Z</time></trkpt><trkpt lat="41.385216348176485" lon="-3.436992842947058"><ele>1012.0000000000001</ele><time>2026-03-22T12:40:31.999Z</time></trkpt><trkpt lat="41.385186758708755" lon="-3.4370732505699855"><ele>1012.0</ele><time>2026-03-22T12:40:32.999Z</time></trkpt><trkpt lat="41.38514236145864" lon="-3.4371435654904197"><ele>1012.0000000000001</ele><time>2026-03-22T12:40:33.999Z</time></trkpt><trkpt lat="41.38509282650149" lon="-3.437199909027688"><ele>1012.0000000000001</ele><time>2026-03-22T12:40:34.999Z</time></trkpt><trkpt lat="41.3850446354588" lon="-3.437291788464278"><ele>1012.0</ele><time>2026-03-22T12:40:36.999Z</time></trkpt><trkpt lat="41.38501129752349" lon="-3.437372685014266"><ele>1012.0000000000001</ele><time>2026-03-22T12:40:38.999Z</time></trkpt><trkpt lat="41.38498457614442" lon="-3.437453550551735"><ele>1012.0000000000001</ele><time>2026-03-22T12:41:07.999Z</time></trkpt><trkpt lat="41.3849548391199" lon="-3.4375548696602984"><ele>1012.2</ele><time>2026-03-22T12:41:10.999Z</time></trkpt><trkpt lat="41.38492389106961" lon="-3.4376381682273327"><ele>1012.4000000000001</ele><time>2026-03-22T12:41:12.999Z</time></trkpt><trkpt lat="41.38488396105073" lon="-3.4377386673619235"><ele>1012.5999999999999</ele><time>2026-03-22T12:41:14.999Z</time></trkpt><trkpt lat="41.38483711565439" lon="-3.437856402671674"><ele>1012.8</ele><time>2026-03-22T12:41:16.999Z</time></trkpt><trkpt lat="41.38479351085232" lon="-3.4379725485745376"><ele>1013.0</ele><time>2026-03-22T12:41:18.998Z</time></trkpt><trkpt lat="41.38474666132612" lon="-3.4380974884412523"><ele>1013.5999999999999</ele><time>2026-03-22T12:41:20.998Z</time></trkpt><trkpt lat="41.38468827293268" lon="-3.4382225382909097"><ele>1014.1999999999999</ele><time>2026-03-22T12:41:22.998Z</time></trkpt><trkpt lat="41.384629286280585" lon="-3.4383387376473973"><ele>1014.8</ele><time>2026-03-22T12:41:25Z</time></trkpt><trkpt lat="41.38459134059548" lon="-3.4384698545375962"><ele>1015.4</ele><time>2026-03-22T12:41:27Z</time></trkpt><trkpt lat="41.384566652979835" lon="-3.438612534440406"><ele>1016.0</ele><time>2026-03-22T12:41:29Z</time></trkpt><trkpt lat="41.38452624173876" lon="-3.438747807852879"><ele>1016.0</ele><time>2026-03-22T12:41:31Z</time></trkpt><trkpt lat="41.384487205081435" lon="-3.4388916159918597"><ele>1015.9999999999999</ele><time>2026-03-22T12:41:33Z</time></trkpt><trkpt lat="41.384458538087536" lon="-3.439032329706761"><ele>1015.9999999999999</ele><time>2026-03-22T12:41:35Z</time></trkpt><trkpt lat="41.384441088516986" lon="-3.4391697284320344"><ele>1016.0</ele><time>2026-03-22T12:41:37Z</time></trkpt><trkpt lat="41.38442346587089" lon="-3.439302717097234"><ele>1016.0</ele><time>2026-03-22T12:41:39Z</time></trkpt><trkpt lat="41.3843952255526" lon="-3.4394325580599117"><ele>1016.0</ele><time>2026-03-22T12:41:41Z</time></trkpt><trkpt lat="41.38438174043819" lon="-3.4395541141716492"><ele>1015.9999999999999</ele><time>2026-03-22T12:41:43Z</time></trkpt><trkpt lat="41.38434014919364" lon="-3.4396850213031165"><ele>1015.9999999999999</ele><time>2026-03-22T12:41:45Z</time></trkpt><trkpt lat="41.38430063589044" lon="-3.4398183397718816"><ele>1016.0</ele><time>2026-03-22T12:41:47Z</time></trkpt><trkpt lat="41.38427227763314" lon="-3.4399451473546656"><ele>1016.0</ele><time>2026-03-22T12:41:49Z</time></trkpt><trkpt lat="41.384247397445115" lon="-3.4400620798395174"><ele>1016.3333333333334</ele><time>2026-03-22T12:41:51Z</time></trkpt><trkpt lat="41.384242020277405" lon="-3.4401860221911673"><ele>1016.6666666666667</ele><time>2026-03-22T12:41:53Z</time></trkpt><trkpt lat="41.38423383602089" lon="-3.440301888672576"><ele>1017.0</ele><time>2026-03-22T12:41:55Z</time></trkpt><trkpt lat="41.38422464831811" lon="-3.4404117209732585"><ele>1017.3333333333333</ele><time>2026-03-22T12:41:57Z</time></trkpt><trkpt lat="41.38421647902388" lon="-3.440509400005713"><ele>1017.6666666666666</ele><time>2026-03-22T12:42:00Z</time></trkpt><trkpt lat="41.38420451312526" lon="-3.440602128645292"><ele>1018.0</ele><time>2026-03-22T12:42:09.999Z</time></trkpt><trkpt lat="41.384190363029845" lon="-3.440686323298112"><ele>1017.9999999999999</ele><time>2026-03-22T12:42:11.999Z</time></trkpt><trkpt lat="41.38417034282248" lon="-3.4407825054851258"><ele>1018.0</ele><time>2026-03-22T12:42:13.999Z</time></trkpt><trkpt lat="41.384151423196485" lon="-3.440886529476293"><ele>1018.0</ele><time>2026-03-22T12:42:15.999Z</time></trkpt><trkpt lat="41.384131666847935" lon="-3.441001849920063"><ele>1018.0</ele><time>2026-03-22T12:42:17.999Z</time></trkpt><trkpt lat="41.38410204999599" lon="-3.4411234041120533"><ele>1017.9999999999999</ele><time>2026-03-22T12:42:19.999Z</time></trkpt><trkpt lat="41.3840707322091" lon="-3.441252855890031"><ele>1018.0</ele><time>2026-03-22T12:42:21.999Z</time></trkpt><trkpt lat="41.38403874262328" lon="-3.441362214651322"><ele>1018.4</ele><time>2026-03-22T12:42:23.999Z</time></trkpt><trkpt lat="41.38399991271875" lon="-3.441468326939942"><ele>1018.8</ele><time>2026-03-22T12:42:25.999Z</time></trkpt><trkpt lat="41.38395968749685" lon="-3.441577930987085"><ele>1019.2</ele><time>2026-03-22T12:42:27.999Z</time></trkpt><trkpt lat="41.383928665625774" lon="-3.4416921459967127"><ele>1019.6</ele><time>2026-03-22T12:42:29.999Z</time></trkpt><trkpt lat="41.38390352197232" lon="-3.4418131676501"><ele>1020.0</ele><time>2026-03-22T12:42:31.999Z</time></trkpt><trkpt lat="41.383881739070205" lon="-3.4419397056457894"><ele>1020.0</ele><time>2026-03-22T12:42:33.999Z</time></trkpt><trkpt lat="41.38385950504347" lon="-3.4420633793463953"><ele>1020.0</ele><time>2026-03-22T12:42:35.999Z</time></trkpt><trkpt lat="41.383831369829956" lon="-3.442193440148094"><ele>1020.0</ele><time>2026-03-22T12:42:37.999Z</time></trkpt><trkpt lat="41.38379893355577" lon="-3.442319927751413"><ele>1020.0</ele><time>2026-03-22T12:42:39.999Z</time></trkpt><trkpt lat="41.38376771577514" lon="-3.4424481420465654"><ele>1020.0</ele><time>2026-03-22T12:42:41.999Z</time></trkpt><trkpt lat="41.383741610005714" lon="-3.44256329147069"><ele>1020.4285714285714</ele><time>2026-03-22T12:42:43.999Z</time></trkpt><trkpt lat="41.38371727437124" lon="-3.442656874466664"><ele>1020.8571428571429</ele><time>2026-03-22T12:42:45.999Z</time></trkpt><trkpt lat="41.38369626517364" lon="-3.442745451422392"><ele>1021.2857142857143</ele><time>2026-03-22T12:42:48.999Z</time></trkpt><trkpt lat="41.383672575839235" lon="-3.442837577971103"><ele>1021.7142857142858</ele><time>2026-03-22T12:43:47Z</time></trkpt><trkpt lat="41.38365759044174" lon="-3.442928978629203"><ele>1022.1428571428571</ele><time>2026-03-22T12:43:50Z</time></trkpt><trkpt lat="41.383632075652955" lon="-3.4430174864482677"><ele>1022.5714285714287</ele><time>2026-03-22T12:43:54Z</time></trkpt><trkpt lat="41.38360076194235" lon="-3.443125128953344"><ele>1023.0</ele><time>2026-03-22T12:43:58Z</time></trkpt><trkpt lat="41.383553685372455" lon="-3.4432123423300727"><ele>1023.1666666666666</ele><time>2026-03-22T12:44:01Z</time></trkpt><trkpt lat="41.383496830560546" lon="-3.4432792248832724"><ele>1023.3333333333333</ele><time>2026-03-22T12:44:04Z</time></trkpt><trkpt lat="41.38341772415073" lon="-3.4433323848208346"><ele>1023.5</ele><time>2026-03-22T12:44:07Z</time></trkpt><trkpt lat="41.383356342802024" lon="-3.443377512711722"><ele>1023.6666666666666</ele><time>2026-03-22T12:44:10Z</time></trkpt><trkpt lat="41.38328708834713" lon="-3.4434196738736538"><ele>1023.8333333333333</ele><time>2026-03-22T12:44:15.999Z</time></trkpt><trkpt lat="41.38321471744577" lon="-3.4434811838370467"><ele>1024.0</ele><time>2026-03-22T12:44:33.999Z</time></trkpt><trkpt lat="41.38313561507808" lon="-3.4435233727893695"><ele>1024.0</ele><time>2026-03-22T12:44:36.999Z</time></trkpt><trkpt lat="41.38307148426687" lon="-3.4435507419295295"><ele>1023.9999999999999</ele><time>2026-03-22T12:44:38.999Z</time></trkpt><trkpt lat="41.38300110450829" lon="-3.443571879464904"><ele>1024.0</ele><time>2026-03-22T12:44:40.999Z</time></trkpt><trkpt lat="41.3829310803689" lon="-3.4435877344948604"><ele>1024.0</ele><time>2026-03-22T12:44:42.999Z</time></trkpt><trkpt lat="41.382866476453636" lon="-3.443617937420805"><ele>1023.9999999999999</ele><time>2026-03-22T12:44:44.999Z</time></trkpt><trkpt lat="41.38280571944827" lon="-3.4436709368557326"><ele>1024.0</ele><time>2026-03-22T12:44:46.999Z</time></trkpt><trkpt lat="41.38274346062749" lon="-3.4437311914977493"><ele>1024.0</ele><time>2026-03-22T12:44:48.999Z</time></trkpt><trkpt lat="41.38268007758123" lon="-3.443798422906065"><ele>1024.1666666666665</ele><time>2026-03-22T12:44:50.999Z</time></trkpt><trkpt lat="41.38261597141264" lon="-3.4438646702366267"><ele>1024.3333333333333</ele><time>2026-03-22T12:44:52.999Z</time></trkpt><trkpt lat="41.38254502193291" lon="-3.4439251094047285"><ele>1024.5</ele><time>2026-03-22T12:44:54.999Z</time></trkpt><trkpt lat="41.38247343026614" lon="-3.443996752104036"><ele>1024.6666666666667</ele><time>2026-03-22T12:44:56.999Z</time></trkpt><trkpt lat="41.3824049973441" lon="-3.444049465085762"><ele>1024.8333333333335</ele><time>2026-03-22T12:44:58.999Z</time></trkpt><trkpt lat="41.382338998265965" lon="-3.4441101272814594"><ele>1025.0</ele><time>2026-03-22T12:45:00.999Z</time></trkpt><trkpt lat="41.38226349841119" lon="-3.4441717601862494"><ele>1025.0</ele><time>2026-03-22T12:45:02.999Z</time></trkpt><trkpt lat="41.38219881153131" lon="-3.4442303820928797"><ele>1025.0</ele><time>2026-03-22T12:45:04.999Z</time></trkpt><trkpt lat="41.38212653793486" lon="-3.444286962994204"><ele>1025.0</ele><time>2026-03-22T12:45:06.999Z</time></trkpt><trkpt lat="41.382050923811306" lon="-3.4443422766649836"><ele>1025.0</ele><time>2026-03-22T12:45:08.999Z</time></trkpt><trkpt lat="41.38197476638485" lon="-3.444398026879166"><ele>1025.0</ele><time>2026-03-22T12:45:10.999Z</time></trkpt><trkpt lat="41.3818973643566" lon="-3.444459214544875"><ele>1025.0</ele><time>2026-03-22T12:45:12.999Z</time></trkpt><trkpt lat="41.38181973083866" lon="-3.444519405340084"><ele>1025.1666666666667</ele><time>2026-03-22T12:45:14.999Z</time></trkpt><trkpt lat="41.381747416114436" lon="-3.444579095127582"><ele>1025.3333333333335</ele><time>2026-03-22T12:45:16.999Z</time></trkpt><trkpt lat="41.381672998737095" lon="-3.444640963911237"><ele>1025.5</ele><time>2026-03-22T12:45:18.999Z</time></trkpt><trkpt lat="41.38160295692024" lon="-3.4446976817627055"><ele>1025.6666666666667</ele><time>2026-03-22T12:45:20.999Z</time></trkpt><trkpt lat="41.38153564383785" lon="-3.444759023953672"><ele>1025.8333333333333</ele><time>2026-03-22T12:45:22.999Z</time></trkpt><trkpt lat="41.381484917288276" lon="-3.4448236692542933"><ele>1026.0</ele><time>2026-03-22T12:45:24.999Z</time></trkpt><trkpt lat="41.38144093558716" lon="-3.4449005517938844"><ele>1026.0000000000002</ele><time>2026-03-22T12:45:26.999Z</time></trkpt><trkpt lat="41.38140650164314" lon="-3.444979206158264"><ele>1026.0</ele><time>2026-03-22T12:45:28.999Z</time></trkpt><trkpt lat="41.38137530492141" lon="-3.445071467190382"><ele>1026.0</ele><time>2026-03-22T12:45:30.999Z</time></trkpt><trkpt lat="41.381379321617224" lon="-3.445173567166014"><ele>1026.0</ele><time>2026-03-22T12:45:32.998Z</time></trkpt><trkpt lat="41.38139023441845" lon="-3.4452618956738448"><ele>1026.0</ele><time>2026-03-22T12:45:34.998Z</time></trkpt><trkpt lat="41.381404968253534" lon="-3.4453475720524582"><ele>1026.0000000000002</ele><time>2026-03-22T12:45:37Z</time></trkpt><trkpt lat="41.38142403665738" lon="-3.445437563442142"><ele>1026.0</ele><time>2026-03-22T12:45:39Z</time></trkpt><trkpt lat="41.38143865199394" lon="-3.4455215889826545"><ele>1026.0</ele><time>2026-03-22T12:45:41Z</time></trkpt><trkpt lat="41.381449271400996" lon="-3.445614836823613"><ele>1026.0</ele><time>2026-03-22T12:45:43Z</time></trkpt><trkpt lat="41.381468530384616" lon="-3.445715286150953"><ele>1026.0</ele><time>2026-03-22T12:45:45Z</time></trkpt><trkpt lat="41.38151529522676" lon="-3.4458323669873994"><ele>1026.0</ele><time>2026-03-22T12:45:47Z</time></trkpt><trkpt lat="41.38157888762558" lon="-3.445961531289824"><ele>1026.0</ele><time>2026-03-22T12:45:49Z</time></trkpt><trkpt lat="41.38160863410016" lon="-3.446116123103109"><ele>1026.0000000000002</ele><time>2026-03-22T12:45:51Z</time></trkpt><trkpt lat="41.38163432073638" lon="-3.446241607109322"><ele>1026.0</ele><time>2026-03-22T12:45:53Z</time></trkpt><trkpt lat="41.38168557467861" lon="-3.4462912886106407"><ele>1026.0</ele><time>2026-03-22T12:45:55Z</time></trkpt><trkpt lat="41.38163622205967" lon="-3.4463440117021524"><ele>1026.0</ele><time>2026-03-22T12:45:58Z</time></trkpt><trkpt lat="41.38164249984474" lon="-3.446246470073498"><ele>1026.0</ele><time>2026-03-22T12:46:00Z</time></trkpt><trkpt lat="41.381627451995975" lon="-3.446150173930909"><ele>1026.0000000000002</ele><time>2026-03-22T12:46:02Z</time></trkpt><trkpt lat="41.38160227068639" lon="-3.4460666623056473"><ele>1026.0</ele><time>2026-03-22T12:46:04Z</time></trkpt><trkpt lat="41.381579334665695" lon="-3.445970072484437"><ele>1026.0</ele><time>2026-03-22T12:46:07Z</time></trkpt><trkpt lat="41.38155664490158" lon="-3.4458830203397137"><ele>1026.0</ele><time>2026-03-22T12:46:10Z</time></trkpt><trkpt lat="41.3815097462006" lon="-3.445794389148317"><ele>1026.0</ele><time>2026-03-22T12:46:15Z</time></trkpt><trkpt lat="41.38153795361924" lon="-3.4458747470649165"><ele>1026.0</ele><time>2026-03-22T12:46:24.999Z</time></trkpt><trkpt lat="41.38157320316295" lon="-3.4459768076206965"><ele>1026.0</ele><time>2026-03-22T12:47:03.999Z</time></trkpt><trkpt lat="41.38159110580518" lon="-3.446059466651317"><ele>1026.0</ele><time>2026-03-22T12:47:10.999Z</time></trkpt><trkpt lat="41.38161932622361" lon="-3.446165909632142"><ele>1026.0</ele><time>2026-03-22T12:47:13.999Z</time></trkpt><trkpt lat="41.381644273676464" lon="-3.4462604859098454"><ele>1026.0</ele><time>2026-03-22T12:47:15.999Z</time></trkpt><trkpt lat="41.38166672328891" lon="-3.446355101987264"><ele>1026.0</ele><time>2026-03-22T12:47:17.999Z</time></trkpt><trkpt lat="41.38171012733708" lon="-3.4464513196565707"><ele>1026.0</ele><time>2026-03-22T12:47:19.999Z</time></trkpt><trkpt lat="41.38172688929809" lon="-3.44653799177284"><ele>1026.0</ele><time>2026-03-22T12:47:21.999Z</time></trkpt><trkpt lat="41.381746657097" lon="-3.4466390540325564"><ele>1026.0</ele><time>2026-03-22T12:47:24.999Z</time></trkpt><trkpt lat="41.381787381587515" lon="-3.446740545200715"><ele>1025.5</ele><time>2026-03-22T12:47:27.999Z</time></trkpt><trkpt lat="41.381829090532854" lon="-3.446845845783445"><ele>1025.0</ele><time>2026-03-22T12:47:30.999Z</time></trkpt><trkpt lat="41.381836585441725" lon="-3.4469500189140674"><ele>1024.5</ele><time>2026-03-22T12:47:33.999Z</time></trkpt><trkpt lat="41.38184689710576" lon="-3.447041542077374"><ele>1024.0</ele><time>2026-03-22T12:47:36.998Z</time></trkpt><trkpt lat="41.38186892145888" lon="-3.4471582503358498"><ele>1023.5</ele><time>2026-03-22T12:47:39.998Z</time></trkpt><trkpt lat="41.381901432888455" lon="-3.4472740962814146"><ele>1023.0</ele><time>2026-03-22T12:47:43Z</time></trkpt><trkpt lat="41.381933940110486" lon="-3.447372864843042"><ele>1023.0</ele><time>2026-03-22T12:47:46Z</time></trkpt><trkpt lat="41.381916166209365" lon="-3.4474545674142445"><ele>1023.0</ele><time>2026-03-22T12:47:48Z</time></trkpt><trkpt lat="41.38187573175599" lon="-3.447526958911521"><ele>1023.0</ele><time>2026-03-22T12:47:50Z</time></trkpt><trkpt lat="41.38180496086515" lon="-3.4475701238193306"><ele>1023.0</ele><time>2026-03-22T12:47:52Z</time></trkpt><trkpt lat="41.381724138451915" lon="-3.4475851109750737"><ele>1023.0</ele><time>2026-03-22T12:47:54Z</time></trkpt><trkpt lat="41.381642861923446" lon="-3.447604538529503"><ele>1023.0</ele><time>2026-03-22T12:47:56Z</time></trkpt><trkpt lat="41.38155640674637" lon="-3.447622421475615"><ele>1023.0</ele><time>2026-03-22T12:47:58Z</time></trkpt><trkpt lat="41.38145866640457" lon="-3.4476536136120632"><ele>1023.0</ele><time>2026-03-22T12:48:00Z</time></trkpt><trkpt lat="41.38134977665579" lon="-3.447673807970284"><ele>1023.0</ele><time>2026-03-22T12:48:02Z</time></trkpt><trkpt lat="41.38125146036475" lon="-3.4477058319800227"><ele>1023.0</ele><time>2026-03-22T12:48:04Z</time></trkpt><trkpt lat="41.38114739605366" lon="-3.4477261706585494"><ele>1023.0</ele><time>2026-03-22T12:48:06Z</time></trkpt><trkpt lat="41.381058275502056" lon="-3.4477479782736076"><ele>1022.5999999999999</ele><time>2026-03-22T12:48:08Z</time></trkpt><trkpt lat="41.3809650100768" lon="-3.4477760770442045"><ele>1022.1999999999999</ele><time>2026-03-22T12:48:10Z</time></trkpt><trkpt lat="41.38087554515664" lon="-3.4478003275953446"><ele>1021.8</ele><time>2026-03-22T12:48:12Z</time></trkpt><trkpt lat="41.380792253662094" lon="-3.447827432565335"><ele>1021.4</ele><time>2026-03-22T12:48:13.999Z</time></trkpt><trkpt lat="41.38070155689297" lon="-3.4478517895480456"><ele>1021.0</ele><time>2026-03-22T12:48:15.999Z</time></trkpt><trkpt lat="41.38060442876734" lon="-3.4478733133762667"><ele>1021.8</ele><time>2026-03-22T12:48:17.999Z</time></trkpt><trkpt lat="41.38050648159231" lon="-3.4478939485225832"><ele>1022.5999999999999</ele><time>2026-03-22T12:48:19.999Z</time></trkpt><trkpt lat="41.38040875839085" lon="-3.4479115915981913"><ele>1023.4</ele><time>2026-03-22T12:48:21.999Z</time></trkpt><trkpt lat="41.38032951155945" lon="-3.4479114866412806"><ele>1024.2</ele><time>2026-03-22T12:48:23.999Z</time></trkpt><trkpt lat="41.38017746088462" lon="-3.44790560352546"><ele>1025.0</ele><time>2026-03-22T12:48:26.999Z</time></trkpt><trkpt lat="41.38005984497561" lon="-3.4479217462259215"><ele>1025.0</ele><time>2026-03-22T12:48:28.999Z</time></trkpt><trkpt lat="41.37994684968984" lon="-3.4479581528232717"><ele>1025.0</ele><time>2026-03-22T12:48:30.999Z</time></trkpt><trkpt lat="41.379837417792864" lon="-3.4480234383086468"><ele>1025.0</ele><time>2026-03-22T12:48:32.999Z</time></trkpt><trkpt lat="41.37972230910516" lon="-3.4480684848849794"><ele>1025.0</ele><time>2026-03-22T12:48:34.999Z</time></trkpt><trkpt lat="41.37960230749348" lon="-3.4480897751055526"><ele>1025.6</ele><time>2026-03-22T12:48:36.999Z</time></trkpt><trkpt lat="41.37953918954367" lon="-3.4480985015222125"><ele>1026.2</ele><time>2026-03-22T12:48:37.999Z</time></trkpt><trkpt lat="41.3794210329203" lon="-3.448113797537932"><ele>1026.8</ele><time>2026-03-22T12:48:39.999Z</time></trkpt><trkpt lat="41.37930131719031" lon="-3.4481287148949638"><ele>1027.4</ele><time>2026-03-22T12:48:41.999Z</time></trkpt><trkpt lat="41.37917939282862" lon="-3.4481540429457627"><ele>1028.0</ele><time>2026-03-22T12:48:43.999Z</time></trkpt><trkpt lat="41.37910417178753" lon="-3.4482072778246375"><ele>1028.0</ele><time>2026-03-22T12:48:44.999Z</time></trkpt><trkpt lat="41.37904300591285" lon="-3.448231227891978"><ele>1028.0</ele><time>2026-03-22T12:48:45.999Z</time></trkpt><trkpt lat="41.37892872563964" lon="-3.4482738881257817"><ele>1028.0</ele><time>2026-03-22T12:48:47.999Z</time></trkpt><trkpt lat="41.3788612877018" lon="-3.4482926537054617"><ele>1028.0</ele><time>2026-03-22T12:48:48.999Z</time></trkpt><trkpt lat="41.37874607607315" lon="-3.448280736424679"><ele>1028.0</ele><time>2026-03-22T12:48:50.999Z</time></trkpt><trkpt lat="41.37862816315575" lon="-3.4483032387962957"><ele>1027.8</ele><time>2026-03-22T12:48:52.999Z</time></trkpt><trkpt lat="41.37856832572183" lon="-3.4483315095596"><ele>1027.6</ele><time>2026-03-22T12:48:53.999Z</time></trkpt><trkpt lat="41.37845469875109" lon="-3.4483757518409726"><ele>1027.4</ele><time>2026-03-22T12:48:55.999Z</time></trkpt><trkpt lat="41.37833622351432" lon="-3.448396184753323"><ele>1027.2</ele><time>2026-03-22T12:48:57.999Z</time></trkpt><trkpt lat="41.37821441905309" lon="-3.448415532453863"><ele>1027.0</ele><time>2026-03-22T12:48:59.999Z</time></trkpt><trkpt lat="41.37809669321325" lon="-3.448397865776258"><ele>1027.0</ele><time>2026-03-22T12:49:01.999Z</time></trkpt><trkpt lat="41.37803187245165" lon="-3.448387169840668"><ele>1027.0</ele><time>2026-03-22T12:49:02.999Z</time></trkpt><trkpt lat="41.377922998879015" lon="-3.448334884920982"><ele>1027.0</ele><time>2026-03-22T12:49:04.999Z</time></trkpt><trkpt lat="41.37779508516583" lon="-3.4483189843068494"><ele>1027.0</ele><time>2026-03-22T12:49:06.999Z</time></trkpt><trkpt lat="41.37773193643684" lon="-3.4483084223656992"><ele>1027.0</ele><time>2026-03-22T12:49:07.999Z</time></trkpt><trkpt lat="41.377609199966095" lon="-3.4482839131521117"><ele>1027.2857142857142</ele><time>2026-03-22T12:49:09.999Z</time></trkpt><trkpt lat="41.377546523457056" lon="-3.4482745111880377"><ele>1027.5714285714287</ele><time>2026-03-22T12:49:10.999Z</time></trkpt><trkpt lat="41.37748308342875" lon="-3.4482655822071315"><ele>1027.857142857143</ele><time>2026-03-22T12:49:11.999Z</time></trkpt><trkpt lat="41.377419033369236" lon="-3.448255999197294"><ele>1028.142857142857</ele><time>2026-03-22T12:49:12.999Z</time></trkpt><trkpt lat="41.37735552918042" lon="-3.448255420340541"><ele>1028.4285714285716</ele><time>2026-03-22T12:49:13.999Z</time></trkpt><trkpt lat="41.3772904040442" lon="-3.4482607685678115"><ele>1028.7142857142858</ele><time>2026-03-22T12:49:14.999Z</time></trkpt><trkpt lat="41.377226234307734" lon="-3.4482692619711286"><ele>1029.0</ele><time>2026-03-22T12:49:15.999Z</time></trkpt><trkpt lat="41.37710795807309" lon="-3.4483021758261847"><ele>1029.0</ele><time>2026-03-22T12:49:17.999Z</time></trkpt><trkpt lat="41.377014148092606" lon="-3.4483275454712032"><ele>1029.0</ele><time>2026-03-22T12:49:19.999Z</time></trkpt><trkpt lat="41.3769401369138" lon="-3.4483703045183125"><ele>1029.0</ele><time>2026-03-22T12:49:21.999Z</time></trkpt><trkpt lat="41.376875147844665" lon="-3.448434166658477"><ele>1029.0</ele><time>2026-03-22T12:49:24.999Z</time></trkpt><trkpt lat="41.376783786240885" lon="-3.4485352566458887"><ele>1029.0</ele><time>2026-03-22T12:49:26.999Z</time></trkpt><trkpt lat="41.37672421380501" lon="-3.4486111944454976"><ele>1029.0</ele><time>2026-03-22T12:49:28.999Z</time></trkpt><trkpt lat="41.376672757167036" lon="-3.448662738075931"><ele>1029.0</ele><time>2026-03-22T12:49:30.998Z</time></trkpt><trkpt lat="41.37659274261502" lon="-3.4487151069612785"><ele>1029.0</ele><time>2026-03-22T12:49:32.998Z</time></trkpt><trkpt lat="41.376519615358156" lon="-3.44875335763339"><ele>1029.0</ele><time>2026-03-22T12:49:35.998Z</time></trkpt><trkpt lat="41.37649053632485" lon="-3.4488470734187815"><ele>1029.0</ele><time>2026-03-22T12:49:38.998Z</time></trkpt><trkpt lat="41.37647745882774" lon="-3.448955954943024"><ele>1029.0</ele><time>2026-03-22T12:49:40.998Z</time></trkpt><trkpt lat="41.376456825419034" lon="-3.4490524951854926"><ele>1029.2857142857142</ele><time>2026-03-22T12:49:43.998Z</time></trkpt><trkpt lat="41.37646371999992" lon="-3.449139987366012"><ele>1029.5714285714284</ele><time>2026-03-22T12:49:53.999Z</time></trkpt><trkpt lat="41.37639076218307" lon="-3.449133951262227"><ele>1029.857142857143</ele><time>2026-03-22T12:49:58.999Z</time></trkpt><trkpt lat="41.3763334014668" lon="-3.449072882788257"><ele>1030.142857142857</ele><time>2026-03-22T12:50:02.999Z</time></trkpt><trkpt lat="41.37626982885216" lon="-3.4490170663936635"><ele>1030.4285714285713</ele><time>2026-03-22T12:50:05.999Z</time></trkpt><trkpt lat="41.37619497712418" lon="-3.448950142043756"><ele>1030.7142857142858</ele><time>2026-03-22T12:50:08.999Z</time></trkpt><trkpt lat="41.3761346341479" lon="-3.448902986635402"><ele>1031.0</ele><time>2026-03-22T12:50:10.999Z</time></trkpt><trkpt lat="41.37607815600535" lon="-3.4488550453286293"><ele>1031.1666666666667</ele><time>2026-03-22T12:50:12.999Z</time></trkpt><trkpt lat="41.376008666669605" lon="-3.4488316513795114"><ele>1031.3333333333335</ele><time>2026-03-22T12:50:14.999Z</time></trkpt><trkpt lat="41.37593669825231" lon="-3.4487989654047677"><ele>1031.5</ele><time>2026-03-22T12:50:16.999Z</time></trkpt><trkpt lat="41.37586364278711" lon="-3.4487623102320444"><ele>1031.6666666666667</ele><time>2026-03-22T12:50:18.999Z</time></trkpt><trkpt lat="41.375793005752584" lon="-3.4487285532521232"><ele>1031.8333333333333</ele><time>2026-03-22T12:50:20.999Z</time></trkpt><trkpt lat="41.37572202855178" lon="-3.448696634247676"><ele>1032.0</ele><time>2026-03-22T12:50:22.999Z</time></trkpt><trkpt lat="41.375647830111525" lon="-3.448661772528838"><ele>1031.8333333333333</ele><time>2026-03-22T12:50:24.999Z</time></trkpt><trkpt lat="41.37557766405332" lon="-3.448634986476269"><ele>1031.6666666666667</ele><time>2026-03-22T12:50:26.999Z</time></trkpt><trkpt lat="41.375513422371725" lon="-3.448603585648784"><ele>1031.5</ele><time>2026-03-22T12:50:28.999Z</time></trkpt><trkpt lat="41.37543108746966" lon="-3.4485573160425393"><ele>1031.3333333333335</ele><time>2026-03-22T12:50:31.999Z</time></trkpt><trkpt lat="41.375340834717626" lon="-3.448527510945827"><ele>1031.1666666666667</ele><time>2026-03-22T12:50:34.999Z</time></trkpt><trkpt lat="41.37525678539924" lon="-3.448492734807896"><ele>1031.0</ele><time>2026-03-22T12:50:37.999Z</time></trkpt><trkpt lat="41.37517866882085" lon="-3.4484633528474755"><ele>1031.0</ele><time>2026-03-22T12:50:40.999Z</time></trkpt><trkpt lat="41.375107369410166" lon="-3.4484223107211993"><ele>1031.0</ele><time>2026-03-22T12:50:43.999Z</time></trkpt><trkpt lat="41.375045188457555" lon="-3.4483872658235355"><ele>1031.0</ele><time>2026-03-22T12:50:46.999Z</time></trkpt><trkpt lat="41.374963725372666" lon="-3.448354044014725"><ele>1031.0</ele><time>2026-03-22T12:50:51.999Z</time></trkpt><trkpt lat="41.37489925874938" lon="-3.448330922278514"><ele>1031.0</ele><time>2026-03-22T12:50:54.999Z</time></trkpt><trkpt lat="41.37481258660875" lon="-3.4482956851746454"><ele>1031.0</ele><time>2026-03-22T12:50:57.999Z</time></trkpt><trkpt lat="41.37472413852334" lon="-3.4482626172189565"><ele>1031.0</ele><time>2026-03-22T12:51:00.999Z</time></trkpt><trkpt lat="41.374639342012856" lon="-3.448213979192727"><ele>1031.0</ele><time>2026-03-22T12:51:03.999Z</time></trkpt><trkpt lat="41.37455867951591" lon="-3.448173551470705"><ele>1031.0</ele><time>2026-03-22T12:51:06.999Z</time></trkpt><trkpt lat="41.374494234301864" lon="-3.4481773738443295"><ele>1031.0</ele><time>2026-03-22T12:51:10.999Z</time></trkpt><trkpt lat="41.374554379644884" lon="-3.448120712422255"><ele>1031.0</ele><time>2026-03-22T12:51:15.999Z</time></trkpt><trkpt lat="41.37462574807015" lon="-3.4481996994334994"><ele>1031.0</ele><time>2026-03-22T12:51:17.999Z</time></trkpt><trkpt lat="41.3747386876246" lon="-3.4482630430717305"><ele>1031.0</ele><time>2026-03-22T12:51:19.999Z</time></trkpt><trkpt lat="41.374802450829385" lon="-3.4482913267129915"><ele>1031.0</ele><time>2026-03-22T12:51:20.999Z</time></trkpt><trkpt lat="41.37487206834328" lon="-3.448318772616806"><ele>1031.0</ele><time>2026-03-22T12:51:21.999Z</time></trkpt><trkpt lat="41.37494472003801" lon="-3.44834660794312"><ele>1031.0</ele><time>2026-03-22T12:51:22.998Z</time></trkpt><trkpt lat="41.37501994309158" lon="-3.4483771962749796"><ele>1031.0</ele><time>2026-03-22T12:51:23.998Z</time></trkpt><trkpt lat="41.37509885936342" lon="-3.448411059971153"><ele>1031.0</ele><time>2026-03-22T12:51:24.998Z</time></trkpt><trkpt lat="41.37517631382085" lon="-3.4484488221549987"><ele>1031.0</ele><time>2026-03-22T12:51:25.998Z</time></trkpt><trkpt lat="41.37525470015475" lon="-3.4484909608442473"><ele>1031.0</ele><time>2026-03-22T12:51:26.998Z</time></trkpt><trkpt lat="41.37533896218062" lon="-3.4485316323847326"><ele>1031.0</ele><time>2026-03-22T12:51:27.998Z</time></trkpt><trkpt lat="41.37542599514602" lon="-3.4485663578151375"><ele>1031.0</ele><time>2026-03-22T12:51:28.998Z</time></trkpt><trkpt lat="41.37551637419849" lon="-3.448598167387084"><ele>1031.0</ele><time>2026-03-22T12:51:29.998Z</time></trkpt><trkpt lat="41.37560502427649" lon="-3.448631844707583"><ele>1030.8333333333335</ele><time>2026-03-22T12:51:30.998Z</time></trkpt><trkpt lat="41.375695051059324" lon="-3.448669860174498"><ele>1030.6666666666667</ele><time>2026-03-22T12:51:31.998Z</time></trkpt><trkpt lat="41.37577980168217" lon="-3.44871613364831"><ele>1030.5</ele><time>2026-03-22T12:51:32.998Z</time></trkpt><trkpt lat="41.37586388483966" lon="-3.4487593523546387"><ele>1030.3333333333333</ele><time>2026-03-22T12:51:33.998Z</time></trkpt><trkpt lat="41.375942324697036" lon="-3.448796131556447"><ele>1030.1666666666665</ele><time>2026-03-22T12:51:34.998Z</time></trkpt><trkpt lat="41.37601474440427" lon="-3.4488272695115354"><ele>1030.0</ele><time>2026-03-22T12:51:35.998Z</time></trkpt><trkpt lat="41.376078916486165" lon="-3.448856238365411"><ele>1030.25</ele><time>2026-03-22T12:51:36.998Z</time></trkpt><trkpt lat="41.376176465592614" lon="-3.448924937456669"><ele>1030.5</ele><time>2026-03-22T12:51:38.998Z</time></trkpt><trkpt lat="41.37625629313753" lon="-3.448978050133592"><ele>1030.75</ele><time>2026-03-22T12:51:40.998Z</time></trkpt><trkpt lat="41.376363219523725" lon="-3.449118897786552"><ele>1031.0</ele><time>2026-03-22T12:51:43.998Z</time></trkpt><trkpt lat="41.3764726809144" lon="-3.4488823590662037"><ele>1030.6666666666667</ele><time>2026-03-22T12:51:48.998Z</time></trkpt><trkpt lat="41.376504860924626" lon="-3.448723668981513"><ele>1030.3333333333335</ele><time>2026-03-22T12:51:50.998Z</time></trkpt><trkpt lat="41.37656557579869" lon="-3.4486782142241905"><ele>1030.0</ele><time>2026-03-22T12:51:51.998Z</time></trkpt><trkpt lat="41.37664284392419" lon="-3.44864967362831"><ele>1029.6666666666667</ele><time>2026-03-22T12:51:52.998Z</time></trkpt><trkpt lat="41.37671191520494" lon="-3.448611094393571"><ele>1029.3333333333333</ele><time>2026-03-22T12:51:53.998Z</time></trkpt><trkpt lat="41.37677402245968" lon="-3.4485450099892185"><ele>1029.0</ele><time>2026-03-22T12:51:54.999Z</time></trkpt><trkpt lat="41.37683467949005" lon="-3.4484698313412623"><ele>1029.0</ele><time>2026-03-22T12:51:55.999Z</time></trkpt><trkpt lat="41.376903098661366" lon="-3.448398281202087"><ele>1029.0</ele><time>2026-03-22T12:51:56.999Z</time></trkpt><trkpt lat="41.37697933413759" lon="-3.4483513624324273"><ele>1029.0</ele><time>2026-03-22T12:51:57.999Z</time></trkpt><trkpt lat="41.37706507710333" lon="-3.4482994083132987"><ele>1029.0</ele><time>2026-03-22T12:51:58.999Z</time></trkpt><trkpt lat="41.37715455272972" lon="-3.4482754654591514"><ele>1029.0</ele><time>2026-03-22T12:51:59.999Z</time></trkpt><trkpt lat="41.37724761635026" lon="-3.448262228762496"><ele>1029.0</ele><time>2026-03-22T12:52:00.999Z</time></trkpt><trkpt lat="41.37734105128177" lon="-3.4482521010844414"><ele>1029.0</ele><time>2026-03-22T12:52:01.999Z</time></trkpt><trkpt lat="41.37743487298639" lon="-3.4482554885677548"><ele>1029.0</ele><time>2026-03-22T12:52:02.999Z</time></trkpt><trkpt lat="41.377535976689984" lon="-3.4482656651035355"><ele>1029.0</ele><time>2026-03-22T12:52:03.999Z</time></trkpt><trkpt lat="41.37762975897079" lon="-3.4482940196469145"><ele>1029.0</ele><time>2026-03-22T12:52:04.999Z</time></trkpt><trkpt lat="41.37772835186397" lon="-3.448327347649161"><ele>1029.0</ele><time>2026-03-22T12:52:05.999Z</time></trkpt><trkpt lat="41.37782931244436" lon="-3.448342426755267"><ele>1029.0</ele><time>2026-03-22T12:52:06.999Z</time></trkpt><trkpt lat="41.37793222382182" lon="-3.448352021698167"><ele>1029.0</ele><time>2026-03-22T12:52:07.999Z</time></trkpt><trkpt lat="41.37803519493746" lon="-3.4483623142700495"><ele>1029.0</ele><time>2026-03-22T12:52:08.999Z</time></trkpt><trkpt lat="41.378138945044974" lon="-3.448396844758554"><ele>1029.0</ele><time>2026-03-22T12:52:09.999Z</time></trkpt><trkpt lat="41.37824274089702" lon="-3.4484249702248237"><ele>1028.6000000000001</ele><time>2026-03-22T12:52:10.999Z</time></trkpt><trkpt lat="41.37834918011202" lon="-3.448414333896949"><ele>1028.2</ele><time>2026-03-22T12:52:11.999Z</time></trkpt><trkpt lat="41.378457406482305" lon="-3.448386694126772"><ele>1027.8000000000002</ele><time>2026-03-22T12:52:12.999Z</time></trkpt><trkpt lat="41.37856162971779" lon="-3.4483515755505922"><ele>1027.4</ele><time>2026-03-22T12:52:13.999Z</time></trkpt><trkpt lat="41.37866412058775" lon="-3.4482995578297015"><ele>1027.0</ele><time>2026-03-22T12:52:14.999Z</time></trkpt><trkpt lat="41.37876828840466" lon="-3.448271577247195"><ele>1027.2</ele><time>2026-03-22T12:52:15.999Z</time></trkpt><trkpt lat="41.378877891120474" lon="-3.4482849407956526"><ele>1027.4</ele><time>2026-03-22T12:52:16.999Z</time></trkpt><trkpt lat="41.3789872609713" lon="-3.44827361719832"><ele>1027.6</ele><time>2026-03-22T12:52:17.999Z</time></trkpt><trkpt lat="41.37909191063477" lon="-3.448227754059381"><ele>1027.8</ele><time>2026-03-22T12:52:18.999Z</time></trkpt><trkpt lat="41.37919847161105" lon="-3.4481897353830897"><ele>1028.0</ele><time>2026-03-22T12:52:19.999Z</time></trkpt><trkpt lat="41.379309536251135" lon="-3.448164779400392"><ele>1028.0</ele><time>2026-03-22T12:52:20.999Z</time></trkpt><trkpt lat="41.379420787326076" lon="-3.4481526397613282"><ele>1028.0</ele><time>2026-03-22T12:52:21.999Z</time></trkpt><trkpt lat="41.37953081015852" lon="-3.4481445086241425"><ele>1028.0</ele><time>2026-03-22T12:52:22.999Z</time></trkpt><trkpt lat="41.37964120043166" lon="-3.448128144445809"><ele>1028.0</ele><time>2026-03-22T12:52:23.999Z</time></trkpt><trkpt lat="41.379754192552625" lon="-3.448109000465586"><ele>1028.0</ele><time>2026-03-22T12:52:24.999Z</time></trkpt><trkpt lat="41.37985868333528" lon="-3.4480623980202454"><ele>1028.0</ele><time>2026-03-22T12:52:25.999Z</time></trkpt><trkpt lat="41.379960858877716" lon="-3.4480067161098114"><ele>1028.0</ele><time>2026-03-22T12:52:26.999Z</time></trkpt><trkpt lat="41.38006835994802" lon="-3.4479644293364156"><ele>1028.0</ele><time>2026-03-22T12:52:27.999Z</time></trkpt><trkpt lat="41.3801791829183" lon="-3.4479336453593645"><ele>1028.0</ele><time>2026-03-22T12:52:28.999Z</time></trkpt><trkpt lat="41.38028964531705" lon="-3.447921565103103"><ele>1028.0</ele><time>2026-03-22T12:52:29.999Z</time></trkpt><trkpt lat="41.38040081810821" lon="-3.4479181558104175"><ele>1027.4</ele><time>2026-03-22T12:52:30.999Z</time></trkpt><trkpt lat="41.3805117835209" lon="-3.447899599055453"><ele>1026.8</ele><time>2026-03-22T12:52:31.999Z</time></trkpt><trkpt lat="41.38062306019028" lon="-3.4478797528125202"><ele>1026.2</ele><time>2026-03-22T12:52:32.999Z</time></trkpt><trkpt lat="41.380735049228186" lon="-3.447855790824352"><ele>1025.6</ele><time>2026-03-22T12:52:33.999Z</time></trkpt><trkpt lat="41.38084458482356" lon="-3.447825915384645"><ele>1025.0</ele><time>2026-03-22T12:52:34.999Z</time></trkpt><trkpt lat="41.38095608040477" lon="-3.447794013910281"><ele>1024.6</ele><time>2026-03-22T12:52:35.999Z</time></trkpt><trkpt lat="41.3810636174599" lon="-3.4477592060359212"><ele>1024.2</ele><time>2026-03-22T12:52:36.999Z</time></trkpt><trkpt lat="41.38117317357919" lon="-3.4477295971423585"><ele>1023.8</ele><time>2026-03-22T12:52:37.999Z</time></trkpt><trkpt lat="41.38128110988124" lon="-3.447694202292698"><ele>1023.4</ele><time>2026-03-22T12:52:38.999Z</time></trkpt><trkpt lat="41.38138073585982" lon="-3.4476669984677644"><ele>1023.0</ele><time>2026-03-22T12:52:39.999Z</time></trkpt><trkpt lat="41.38148179922073" lon="-3.4476420524200293"><ele>1023.0</ele><time>2026-03-22T12:52:40.999Z</time></trkpt><trkpt lat="41.38157905766953" lon="-3.4476158904602237"><ele>1023.0</ele><time>2026-03-22T12:52:41.999Z</time></trkpt><trkpt lat="41.38166876342528" lon="-3.447594620320964"><ele>1023.0</ele><time>2026-03-22T12:52:42.999Z</time></trkpt><trkpt lat="41.381753058003824" lon="-3.44758004156902"><ele>1023.0</ele><time>2026-03-22T12:52:43.999Z</time></trkpt><trkpt lat="41.38183244477846" lon="-3.447559894233411"><ele>1023.0</ele><time>2026-03-22T12:52:44.999Z</time></trkpt><trkpt lat="41.38190746197691" lon="-3.4475413419621423"><ele>1023.0</ele><time>2026-03-22T12:52:45.999Z</time></trkpt><trkpt lat="41.382017956773" lon="-3.447502296873616"><ele>1023.0</ele><time>2026-03-22T12:52:47.999Z</time></trkpt><trkpt lat="41.38208591465008" lon="-3.4474698430557584"><ele>1023.0</ele><time>2026-03-22T12:52:49.999Z</time></trkpt><trkpt lat="41.382165563262134" lon="-3.447446051881977"><ele>1023.0</ele><time>2026-03-22T12:53:03.999Z</time></trkpt><trkpt lat="41.38224317426632" lon="-3.4474347127148186"><ele>1023.0</ele><time>2026-03-22T12:53:05.999Z</time></trkpt><trkpt lat="41.38234021901548" lon="-3.4474231015286656"><ele>1023.0</ele><time>2026-03-22T12:53:07.999Z</time></trkpt><trkpt lat="41.382466537589195" lon="-3.4474065057241994"><ele>1023.1428571428571</ele><time>2026-03-22T12:53:09.999Z</time></trkpt><trkpt lat="41.382533075304536" lon="-3.4474021186804027"><ele>1023.2857142857142</ele><time>2026-03-22T12:53:10.999Z</time></trkpt><trkpt lat="41.38260567669039" lon="-3.447395547460472"><ele>1023.4285714285713</ele><time>2026-03-22T12:53:11.999Z</time></trkpt><trkpt lat="41.382678495943416" lon="-3.447391470912941"><ele>1023.5714285714286</ele><time>2026-03-22T12:53:12.999Z</time></trkpt><trkpt lat="41.38275322963918" lon="-3.447383884084901"><ele>1023.7142857142856</ele><time>2026-03-22T12:53:13.999Z</time></trkpt><trkpt lat="41.382829758805826" lon="-3.4473781271453294"><ele>1023.8571428571428</ele><time>2026-03-22T12:53:14.999Z</time></trkpt><trkpt lat="41.38290614223743" lon="-3.447369399647043"><ele>1024.0</ele><time>2026-03-22T12:53:15.999Z</time></trkpt><trkpt lat="41.382978197873015" lon="-3.447363763272479"><ele>1024.142857142857</ele><time>2026-03-22T12:53:16.999Z</time></trkpt><trkpt lat="41.38304492615218" lon="-3.447361083695443"><ele>1024.2857142857142</ele><time>2026-03-22T12:53:17.999Z</time></trkpt><trkpt lat="41.38311322994337" lon="-3.4473594402011427"><ele>1024.4285714285713</ele><time>2026-03-22T12:53:18.999Z</time></trkpt><trkpt lat="41.383181537171495" lon="-3.447357124824462"><ele>1024.5714285714284</ele><time>2026-03-22T12:53:19.999Z</time></trkpt><trkpt lat="41.38325072422279" lon="-3.447350802729751"><ele>1024.7142857142858</ele><time>2026-03-22T12:53:20.999Z</time></trkpt><trkpt lat="41.383321459745595" lon="-3.4473479597419674"><ele>1024.8571428571427</ele><time>2026-03-22T12:53:21.999Z</time></trkpt><trkpt lat="41.38339544359767" lon="-3.4473434330842854"><ele>1025.0</ele><time>2026-03-22T12:53:22.999Z</time></trkpt><trkpt lat="41.38346969597149" lon="-3.447337178014142"><ele>1025.0</ele><time>2026-03-22T12:53:23.999Z</time></trkpt><trkpt lat="41.38354919461419" lon="-3.447330150193395"><ele>1025.0</ele><time>2026-03-22T12:53:24.999Z</time></trkpt><trkpt lat="41.383627988768744" lon="-3.447324817694686"><ele>1025.0</ele><time>2026-03-22T12:53:25.999Z</time></trkpt><trkpt lat="41.383711664470326" lon="-3.447323377967402"><ele>1025.0</ele><time>2026-03-22T12:53:26.999Z</time></trkpt><trkpt lat="41.38379603082745" lon="-3.447324373085527"><ele>1025.0</ele><time>2026-03-22T12:53:27.999Z</time></trkpt><trkpt lat="41.38388097123484" lon="-3.4473215771832466"><ele>1025.0</ele><time>2026-03-22T12:53:28.999Z</time></trkpt><trkpt lat="41.3839720703961" lon="-3.447315665670388"><ele>1024.4</ele><time>2026-03-22T12:53:29.999Z</time></trkpt><trkpt lat="41.384060744451986" lon="-3.447316564843464"><ele>1023.8</ele><time>2026-03-22T12:53:30.999Z</time></trkpt><trkpt lat="41.38415052970563" lon="-3.4473203766974008"><ele>1023.2</ele><time>2026-03-22T12:53:31.999Z</time></trkpt><trkpt lat="41.384244727852675" lon="-3.447321264684087"><ele>1022.6</ele><time>2026-03-22T12:53:32.999Z</time></trkpt><trkpt lat="41.38433493047675" lon="-3.44732402559123"><ele>1022.0</ele><time>2026-03-22T12:53:33.999Z</time></trkpt><trkpt lat="41.38442858399256" lon="-3.447330598030023"><ele>1022.0</ele><time>2026-03-22T12:53:34.999Z</time></trkpt><trkpt lat="41.38452438101226" lon="-3.447343596283741"><ele>1022.0</ele><time>2026-03-22T12:53:35.999Z</time></trkpt><trkpt lat="41.38462037885933" lon="-3.447358961374331"><ele>1022.0</ele><time>2026-03-22T12:53:36.999Z</time></trkpt><trkpt lat="41.38471719639876" lon="-3.44737091693976"><ele>1022.0</ele><time>2026-03-22T12:53:37.999Z</time></trkpt><trkpt lat="41.3848152383742" lon="-3.447373772694149"><ele>1022.0</ele><time>2026-03-22T12:53:38.999Z</time></trkpt><trkpt lat="41.38491383590268" lon="-3.447374016756308"><ele>1022.2</ele><time>2026-03-22T12:53:39.998Z</time></trkpt><trkpt lat="41.38501207031678" lon="-3.4473719233928253"><ele>1022.4000000000001</ele><time>2026-03-22T12:53:40.998Z</time></trkpt><trkpt lat="41.38511097652587" lon="-3.4473659210845202"><ele>1022.5999999999999</ele><time>2026-03-22T12:53:41.998Z</time></trkpt><trkpt lat="41.38521008102923" lon="-3.4473588635629615"><ele>1022.8</ele><time>2026-03-22T12:53:42.998Z</time></trkpt><trkpt lat="41.38531016603674" lon="-3.447361529274106"><ele>1023.0</ele><time>2026-03-22T12:53:43.998Z</time></trkpt><trkpt lat="41.385409381746534" lon="-3.447373439450637"><ele>1023.0</ele><time>2026-03-22T12:53:44.998Z</time></trkpt><trkpt lat="41.38551000497298" lon="-3.4473873352737456"><ele>1023.0</ele><time>2026-03-22T12:53:45.998Z</time></trkpt><trkpt lat="41.38561003948675" lon="-3.447409882500997"><ele>1023.0</ele><time>2026-03-22T12:53:46.998Z</time></trkpt><trkpt lat="41.385711293486544" lon="-3.4474347401630854"><ele>1023.0</ele><time>2026-03-22T12:53:47.998Z</time></trkpt><trkpt lat="41.385812379508366" lon="-3.44746017451915"><ele>1023.0</ele><time>2026-03-22T12:53:48.998Z</time></trkpt><trkpt lat="41.38591461212099" lon="-3.4474876769713014"><ele>1023.0</ele><time>2026-03-22T12:53:49.998Z</time></trkpt><trkpt lat="41.38601640885553" lon="-3.4475146019989924"><ele>1023.0</ele><time>2026-03-22T12:53:50.998Z</time></trkpt><trkpt lat="41.38611954741247" lon="-3.44753794384155"><ele>1023.0</ele><time>2026-03-22T12:53:51.998Z</time></trkpt><trkpt lat="41.38622209056672" lon="-3.4475619399789914"><ele>1023.0</ele><time>2026-03-22T12:53:52.998Z</time></trkpt><trkpt lat="41.38632609335626" lon="-3.4475844248078706"><ele>1023.0</ele><time>2026-03-22T12:53:53.998Z</time></trkpt><trkpt lat="41.38642838077823" lon="-3.447603932415835"><ele>1022.5999999999999</ele><time>2026-03-22T12:53:54.998Z</time></trkpt><trkpt lat="41.38653326793305" lon="-3.447618161244204"><ele>1022.1999999999999</ele><time>2026-03-22T12:53:55.998Z</time></trkpt><trkpt lat="41.386636923307094" lon="-3.4476377270967498"><ele>1021.8</ele><time>2026-03-22T12:53:56.998Z</time></trkpt><trkpt lat="41.386742067366924" lon="-3.447663613046477"><ele>1021.4</ele><time>2026-03-22T12:53:57.998Z</time></trkpt><trkpt lat="41.3868433856514" lon="-3.4476996455751068"><ele>1021.0</ele><time>2026-03-22T12:53:58.998Z</time></trkpt><trkpt lat="41.38694641841803" lon="-3.4477358417425803"><ele>1021.0</ele><time>2026-03-22T12:53:59.998Z</time></trkpt><trkpt lat="41.38705054555371" lon="-3.447771559740366"><ele>1020.9999999999999</ele><time>2026-03-22T12:54:01Z</time></trkpt><trkpt lat="41.38715150883343" lon="-3.447803923269367"><ele>1020.9999999999999</ele><time>2026-03-22T12:54:02Z</time></trkpt><trkpt lat="41.38725472539636" lon="-3.4478368553050527"><ele>1021.0</ele><time>2026-03-22T12:54:03Z</time></trkpt><trkpt lat="41.387353355908274" lon="-3.4478913331492493"><ele>1021.0</ele><time>2026-03-22T12:54:04Z</time></trkpt><trkpt lat="41.387444906341955" lon="-3.4479442007245082"><ele>1020.3333333333333</ele><time>2026-03-22T12:54:05Z</time></trkpt><trkpt lat="41.38753389151011" lon="-3.447987491978308"><ele>1019.6666666666666</ele><time>2026-03-22T12:54:06Z</time></trkpt><trkpt lat="41.38761259161702" lon="-3.448021948401698"><ele>1019.0</ele><time>2026-03-22T12:54:07Z</time></trkpt><trkpt lat="41.38768025879195" lon="-3.4480615942700252"><ele>1018.3333333333333</ele><time>2026-03-22T12:54:08Z</time></trkpt><trkpt lat="41.387744975658656" lon="-3.4481085564548004"><ele>1017.6666666666666</ele><time>2026-03-22T12:54:09Z</time></trkpt><trkpt lat="41.38780433493487" lon="-3.448153583806647"><ele>1017.0</ele><time>2026-03-22T12:54:10Z</time></trkpt><trkpt lat="41.38786439064278" lon="-3.4481999822164"><ele>1017.0</ele><time>2026-03-22T12:54:11Z</time></trkpt><trkpt lat="41.38792513479197" lon="-3.4482428502905313"><ele>1016.9999999999999</ele><time>2026-03-22T12:54:12Z</time></trkpt><trkpt lat="41.3880006374905" lon="-3.4482970411571374"><ele>1017.0</ele><time>2026-03-22T12:54:13Z</time></trkpt><trkpt lat="41.38806172831851" lon="-3.448337312920407"><ele>1017.0</ele><time>2026-03-22T12:54:14Z</time></trkpt><trkpt lat="41.388116909175864" lon="-3.448385113427407"><ele>1016.9999999999999</ele><time>2026-03-22T12:54:15Z</time></trkpt><trkpt lat="41.38817692485124" lon="-3.4484288370521963"><ele>1017.0</ele><time>2026-03-22T12:54:16Z</time></trkpt><trkpt lat="41.38824115275205" lon="-3.448474483737679"><ele>1017.0</ele><time>2026-03-22T12:54:17Z</time></trkpt><trkpt lat="41.38835111694036" lon="-3.4485557587052393"><ele>1017.5</ele><time>2026-03-22T12:54:19Z</time></trkpt><trkpt lat="41.388451617024344" lon="-3.44864756691655"><ele>1018.0</ele><time>2026-03-22T12:54:21Z</time></trkpt><trkpt lat="41.388575245995824" lon="-3.4487693186732833"><ele>1018.5</ele><time>2026-03-22T12:54:24Z</time></trkpt><trkpt lat="41.388658062715784" lon="-3.448843482676779"><ele>1019.0</ele><time>2026-03-22T12:54:25.999Z</time></trkpt><trkpt lat="41.388744425040734" lon="-3.44892115810316"><ele>1018.6666666666667</ele><time>2026-03-22T12:54:27.999Z</time></trkpt><trkpt lat="41.38884345544296" lon="-3.4489961973963794"><ele>1018.3333333333334</ele><time>2026-03-22T12:54:29.999Z</time></trkpt><trkpt lat="41.38895034333836" lon="-3.449072925112153"><ele>1018.0</ele><time>2026-03-22T12:54:31.999Z</time></trkpt><trkpt lat="41.389009463665055" lon="-3.449104576739273"><ele>1017.6666666666667</ele><time>2026-03-22T12:54:32.999Z</time></trkpt><trkpt lat="41.389069013483976" lon="-3.449138582390141"><ele>1017.3333333333334</ele><time>2026-03-22T12:54:33.999Z</time></trkpt><trkpt lat="41.38913124335032" lon="-3.4491823497290324"><ele>1017.0</ele><time>2026-03-22T12:54:34.999Z</time></trkpt><trkpt lat="41.38919616162963" lon="-3.449207767291817"><ele>1017.0</ele><time>2026-03-22T12:54:35.999Z</time></trkpt><trkpt lat="41.389258950501166" lon="-3.4492556576613747"><ele>1016.9999999999999</ele><time>2026-03-22T12:54:36.999Z</time></trkpt><trkpt lat="41.389318195644094" lon="-3.449302435460759"><ele>1017.0</ele><time>2026-03-22T12:54:37.999Z</time></trkpt><trkpt lat="41.389383544956935" lon="-3.449342659040496"><ele>1017.0</ele><time>2026-03-22T12:54:38.999Z</time></trkpt><trkpt lat="41.38944996077091" lon="-3.44937989055318"><ele>1016.9999999999999</ele><time>2026-03-22T12:54:39.999Z</time></trkpt><trkpt lat="41.38951806114364" lon="-3.4494270277900845"><ele>1017.0</ele><time>2026-03-22T12:54:40.999Z</time></trkpt><trkpt lat="41.389587309115484" lon="-3.4494710890519387"><ele>1017.0</ele><time>2026-03-22T12:54:41.999Z</time></trkpt><trkpt lat="41.38966056507922" lon="-3.4495064271577136"><ele>1016.6666666666666</ele><time>2026-03-22T12:54:42.999Z</time></trkpt><trkpt lat="41.3897346319894" lon="-3.4495388167454775"><ele>1016.3333333333333</ele><time>2026-03-22T12:54:43.999Z</time></trkpt><trkpt lat="41.38981043327165" lon="-3.449567885710502"><ele>1016.0</ele><time>2026-03-22T12:54:44.999Z</time></trkpt><trkpt lat="41.38988229318508" lon="-3.4495954580493575"><ele>1015.6666666666666</ele><time>2026-03-22T12:54:45.999Z</time></trkpt><trkpt lat="41.38994588896983" lon="-3.449616753402596"><ele>1015.3333333333333</ele><time>2026-03-22T12:54:46.999Z</time></trkpt><trkpt lat="41.39004968671826" lon="-3.4496809221607427"><ele>1015.0</ele><time>2026-03-22T12:54:48.999Z</time></trkpt><trkpt lat="41.39013435083062" lon="-3.449763627131057"><ele>1014.8333333333333</ele><time>2026-03-22T12:54:50.999Z</time></trkpt><trkpt lat="41.39020289092138" lon="-3.449833260252288"><ele>1014.6666666666666</ele><time>2026-03-22T12:54:52.999Z</time></trkpt><trkpt lat="41.39024463970033" lon="-3.4499335178005492"><ele>1014.5</ele><time>2026-03-22T12:54:55.999Z</time></trkpt><trkpt lat="41.39022661510705" lon="-3.4500882369876353"><ele>1014.3333333333333</ele><time>2026-03-22T12:54:57.999Z</time></trkpt><trkpt lat="41.39020038962818" lon="-3.450172994776342"><ele>1014.1666666666666</ele><time>2026-03-22T12:54:58.999Z</time></trkpt><trkpt lat="41.39017409907827" lon="-3.4502649055977845"><ele>1014.0</ele><time>2026-03-22T12:54:59.999Z</time></trkpt><trkpt lat="41.39014903304714" lon="-3.4503675045208397"><ele>1013.8000000000001</ele><time>2026-03-22T12:55:00.999Z</time></trkpt><trkpt lat="41.39012416598842" lon="-3.450479588649893"><ele>1013.6000000000001</ele><time>2026-03-22T12:55:01.999Z</time></trkpt><trkpt lat="41.39009905068042" lon="-3.4505996860511385"><ele>1013.4</ele><time>2026-03-22T12:55:02.999Z</time></trkpt><trkpt lat="41.39007528951267" lon="-3.4507252377427386"><ele>1013.2</ele><time>2026-03-22T12:55:03.999Z</time></trkpt><trkpt lat="41.39005462156207" lon="-3.4508544849653915"><ele>1013.0</ele><time>2026-03-22T12:55:04.999Z</time></trkpt><trkpt lat="41.390061018491124" lon="-3.450988266451397"><ele>1013.0</ele><time>2026-03-22T12:55:05.999Z</time></trkpt><trkpt lat="41.39005708046503" lon="-3.451123170226343"><ele>1013.0</ele><time>2026-03-22T12:55:06.999Z</time></trkpt><trkpt lat="41.39003857157914" lon="-3.451259006649638"><ele>1013.0</ele><time>2026-03-22T12:55:07.999Z</time></trkpt><trkpt lat="41.390039265381525" lon="-3.451396763007928"><ele>1013.0</ele><time>2026-03-22T12:55:08.999Z</time></trkpt><trkpt lat="41.39003903299025" lon="-3.4515337314154486"><ele>1013.0</ele><time>2026-03-22T12:55:09.999Z</time></trkpt><trkpt lat="41.39003967661704" lon="-3.451668802311685"><ele>1013.2</ele><time>2026-03-22T12:55:10.999Z</time></trkpt><trkpt lat="41.390037400707065" lon="-3.451801401192208"><ele>1013.4</ele><time>2026-03-22T12:55:11.999Z</time></trkpt><trkpt lat="41.39005038424751" lon="-3.45193099224814"><ele>1013.6000000000001</ele><time>2026-03-22T12:55:12.999Z</time></trkpt><trkpt lat="41.39004933637344" lon="-3.4520598487229455"><ele>1013.8000000000001</ele><time>2026-03-22T12:55:13.999Z</time></trkpt><trkpt lat="41.39004826458163" lon="-3.452191646505325"><ele>1014.0</ele><time>2026-03-22T12:55:14.999Z</time></trkpt><trkpt lat="41.39004728203143" lon="-3.4523124699669316"><ele>1014.4000000000001</ele><time>2026-03-22T12:55:15.999Z</time></trkpt><trkpt lat="41.39003006199503" lon="-3.4524363527478363"><ele>1014.8000000000001</ele><time>2026-03-22T12:55:16.999Z</time></trkpt><trkpt lat="41.39003710713739" lon="-3.452560396431974"><ele>1015.1999999999999</ele><time>2026-03-22T12:55:17.999Z</time></trkpt><trkpt lat="41.39003825868229" lon="-3.4526828253501685"><ele>1015.5999999999999</ele><time>2026-03-22T12:55:18.999Z</time></trkpt><trkpt lat="41.39003960659621" lon="-3.452803925599252"><ele>1016.0</ele><time>2026-03-22T12:55:19.999Z</time></trkpt><trkpt lat="41.39003852478206" lon="-3.452923588635862"><ele>1016.5000000000001</ele><time>2026-03-22T12:55:20.999Z</time></trkpt><trkpt lat="41.39003533633879" lon="-3.4530426517747426"><ele>1017.0</ele><time>2026-03-22T12:55:21.999Z</time></trkpt><trkpt lat="41.39003237487345" lon="-3.4531594897694182"><ele>1017.5</ele><time>2026-03-22T12:55:22.999Z</time></trkpt><trkpt lat="41.3900316509877" lon="-3.4532746075505796"><ele>1018.0</ele><time>2026-03-22T12:55:23.999Z</time></trkpt><trkpt lat="41.39003171550808" lon="-3.453386512558403"><ele>1018.5000000000001</ele><time>2026-03-22T12:55:24.999Z</time></trkpt><trkpt lat="41.390032786443015" lon="-3.453496308768974"><ele>1019.0</ele><time>2026-03-22T12:55:25.999Z</time></trkpt><trkpt lat="41.39003430411487" lon="-3.4536046345710942"><ele>1019.0000000000001</ele><time>2026-03-22T12:55:26.999Z</time></trkpt><trkpt lat="41.390036018307576" lon="-3.4537106870840795"><ele>1019.0</ele><time>2026-03-22T12:55:27.999Z</time></trkpt><trkpt lat="41.390037045864574" lon="-3.453814020320381"><ele>1019.0000000000001</ele><time>2026-03-22T12:55:28.999Z</time></trkpt><trkpt lat="41.390038885883726" lon="-3.4539138953184167"><ele>1019.0000000000001</ele><time>2026-03-22T12:55:29.999Z</time></trkpt><trkpt lat="41.39004139701605" lon="-3.454011465081658"><ele>1019.0</ele><time>2026-03-22T12:55:30.999Z</time></trkpt><trkpt lat="41.39004485048726" lon="-3.4541066181602855"><ele>1019.0000000000001</ele><time>2026-03-22T12:55:31.999Z</time></trkpt><trkpt lat="41.3900485312931" lon="-3.4541987433048957"><ele>1019.0000000000001</ele><time>2026-03-22T12:55:32.999Z</time></trkpt><trkpt lat="41.39005068685841" lon="-3.454283163109867"><ele>1019.6</ele><time>2026-03-22T12:55:33.999Z</time></trkpt><trkpt lat="41.390052101830065" lon="-3.4543671378278535"><ele>1020.2</ele><time>2026-03-22T12:55:34.999Z</time></trkpt><trkpt lat="41.39005605005991" lon="-3.4545294825577573"><ele>1020.8000000000001</ele><time>2026-03-22T12:55:36.999Z</time></trkpt><trkpt lat="41.39006564378519" lon="-3.454688578156168"><ele>1021.4000000000001</ele><time>2026-03-22T12:55:38.999Z</time></trkpt><trkpt lat="41.39007508549675" lon="-3.4548482352132774"><ele>1022.0</ele><time>2026-03-22T12:55:40.999Z</time></trkpt><trkpt lat="41.39008604243171" lon="-3.4550104790817984"><ele>1022.2857142857142</ele><time>2026-03-22T12:55:42.999Z</time></trkpt><trkpt lat="41.39009569526458" lon="-3.4550946004409897"><ele>1022.5714285714286</ele><time>2026-03-22T12:55:43.999Z</time></trkpt><trkpt lat="41.39010828486474" lon="-3.455179363550657"><ele>1022.8571428571429</ele><time>2026-03-22T12:55:44.999Z</time></trkpt><trkpt lat="41.390124368513625" lon="-3.4552634267437248"><ele>1023.1428571428571</ele><time>2026-03-22T12:55:45.999Z</time></trkpt><trkpt lat="41.39014398222747" lon="-3.455346627586593"><ele>1023.4285714285713</ele><time>2026-03-22T12:55:46.999Z</time></trkpt><trkpt lat="41.39016637557825" lon="-3.455430677831388"><ele>1023.7142857142857</ele><time>2026-03-22T12:55:47.999Z</time></trkpt><trkpt lat="41.390189993440046" lon="-3.4555153355010244"><ele>1024.0</ele><time>2026-03-22T12:55:48.999Z</time></trkpt><trkpt lat="41.39021383139687" lon="-3.4556018159635227"><ele>1024.3333333333333</ele><time>2026-03-22T12:55:49.999Z</time></trkpt><trkpt lat="41.390238509670105" lon="-3.4556894936825358"><ele>1024.6666666666665</ele><time>2026-03-22T12:55:50.999Z</time></trkpt><trkpt lat="41.39026239299439" lon="-3.4557803171143235"><ele>1025.0</ele><time>2026-03-22T12:55:51.999Z</time></trkpt><trkpt lat="41.39028654127229" lon="-3.4558737121513854"><ele>1025.3333333333333</ele><time>2026-03-22T12:55:52.999Z</time></trkpt><trkpt lat="41.390312315567684" lon="-3.4559691333793605"><ele>1025.6666666666667</ele><time>2026-03-22T12:55:53.999Z</time></trkpt><trkpt lat="41.390340506718" lon="-3.456066279665236"><ele>1026.0</ele><time>2026-03-22T12:55:54.998Z</time></trkpt><trkpt lat="41.3903682364078" lon="-3.4561651640415767"><ele>1026.0</ele><time>2026-03-22T12:55:55.998Z</time></trkpt><trkpt lat="41.390397717108165" lon="-3.4562673831581248"><ele>1026.0</ele><time>2026-03-22T12:55:56.998Z</time></trkpt><trkpt lat="41.39042903669355" lon="-3.4563731114760157"><ele>1026.0</ele><time>2026-03-22T12:55:57.998Z</time></trkpt><trkpt lat="41.39046061652201" lon="-3.4564796307744956"><ele>1026.0</ele><time>2026-03-22T12:55:58.998Z</time></trkpt><trkpt lat="41.39049033932414" lon="-3.4565787196186504"><ele>1026.0</ele><time>2026-03-22T12:55:59.998Z</time></trkpt><trkpt lat="41.390517970916186" lon="-3.456676351162999"><ele>1026.0</ele><time>2026-03-22T12:56:00.998Z</time></trkpt><trkpt lat="41.39054805898497" lon="-3.4567718936882086"><ele>1026.1666666666667</ele><time>2026-03-22T12:56:01.998Z</time></trkpt><trkpt lat="41.39057771611115" lon="-3.4568659618857818"><ele>1026.3333333333333</ele><time>2026-03-22T12:56:02.998Z</time></trkpt><trkpt lat="41.39060728168447" lon="-3.456959284165934"><ele>1026.5</ele><time>2026-03-22T12:56:03.998Z</time></trkpt><trkpt lat="41.390633927553964" lon="-3.4570497298809895"><ele>1026.6666666666665</ele><time>2026-03-22T12:56:04.998Z</time></trkpt><trkpt lat="41.39065659479797" lon="-3.4571341338675246"><ele>1026.8333333333333</ele><time>2026-03-22T12:56:05.998Z</time></trkpt><trkpt lat="41.39067663198061" lon="-3.4572148466451416"><ele>1027.0</ele><time>2026-03-22T12:56:07Z</time></trkpt><trkpt lat="41.39070886946842" lon="-3.457366811993093"><ele>1027.0</ele><time>2026-03-22T12:56:09Z</time></trkpt><trkpt lat="41.390722640449546" lon="-3.4575231388574537"><ele>1027.0</ele><time>2026-03-22T12:56:11Z</time></trkpt><trkpt lat="41.390750375208576" lon="-3.4576804869766686"><ele>1027.0</ele><time>2026-03-22T12:56:13Z</time></trkpt><trkpt lat="41.39079876857779" lon="-3.4578313598415624"><ele>1027.0</ele><time>2026-03-22T12:56:15Z</time></trkpt><trkpt lat="41.390831870959175" lon="-3.457979477547495"><ele>1027.2</ele><time>2026-03-22T12:56:17Z</time></trkpt><trkpt lat="41.39081895771714" lon="-3.4581082658083937"><ele>1027.4</ele><time>2026-03-22T12:56:19Z</time></trkpt><trkpt lat="41.39079609735698" lon="-3.458226261342354"><ele>1027.6</ele><time>2026-03-22T12:56:21Z</time></trkpt><trkpt lat="41.39076751285227" lon="-3.4583218533263578"><ele>1027.8</ele><time>2026-03-22T12:56:23Z</time></trkpt><trkpt lat="41.39067949054318" lon="-3.4584354133753834"><ele>1028.0</ele><time>2026-03-22T12:56:25Z</time></trkpt><trkpt lat="41.390660567859726" lon="-3.458522681418242"><ele>1028.0</ele><time>2026-03-22T12:56:26Z</time></trkpt><trkpt lat="41.3906411435144" lon="-3.4586620302229627"><ele>1028.0</ele><time>2026-03-22T12:56:28Z</time></trkpt><trkpt lat="41.39061588679127" lon="-3.458802275787429"><ele>1028.0</ele><time>2026-03-22T12:56:30Z</time></trkpt><trkpt lat="41.39059512424213" lon="-3.4589398227147097"><ele>1028.0</ele><time>2026-03-22T12:56:32Z</time></trkpt><trkpt lat="41.39057910722153" lon="-3.459076544178942"><ele>1028.0</ele><time>2026-03-22T12:56:34Z</time></trkpt><trkpt lat="41.390564685257424" lon="-3.459216360487869"><ele>1028.0</ele><time>2026-03-22T12:56:35.999Z</time></trkpt><trkpt lat="41.39055580462069" lon="-3.4593604432167226"><ele>1028.0</ele><time>2026-03-22T12:56:37.999Z</time></trkpt><trkpt lat="41.39055185475038" lon="-3.459498717925425"><ele>1028.0</ele><time>2026-03-22T12:56:39.999Z</time></trkpt><trkpt lat="41.390541690734665" lon="-3.4596160717469027"><ele>1028.0</ele><time>2026-03-22T12:56:41.999Z</time></trkpt><trkpt lat="41.390568509504995" lon="-3.459706853420618"><ele>1028.0</ele><time>2026-03-22T12:56:43.999Z</time></trkpt><trkpt lat="41.39063942206663" lon="-3.4596532950582097"><ele>1027.6</ele><time>2026-03-22T12:56:44.999Z</time></trkpt><trkpt lat="41.39074298074404" lon="-3.4596546980166387"><ele>1027.1999999999998</ele><time>2026-03-22T12:56:46.999Z</time></trkpt><trkpt lat="41.390847246408704" lon="-3.459658679182384"><ele>1026.8</ele><time>2026-03-22T12:56:48.999Z</time></trkpt><trkpt lat="41.39095455414385" lon="-3.4596645281822624"><ele>1026.3999999999999</ele><time>2026-03-22T12:56:50.999Z</time></trkpt><trkpt lat="41.39106229840897" lon="-3.459674407054953"><ele>1026.0</ele><time>2026-03-22T12:56:52.999Z</time></trkpt><trkpt lat="41.39115672854451" lon="-3.459689024093052"><ele>1026.0</ele><time>2026-03-22T12:56:54.999Z</time></trkpt><trkpt lat="41.39123901859154" lon="-3.4597427577708015"><ele>1026.0</ele><time>2026-03-22T12:56:56.999Z</time></trkpt><trkpt lat="41.3913217085227" lon="-3.459755828741922"><ele>1026.0</ele><time>2026-03-22T12:56:58.999Z</time></trkpt><trkpt lat="41.391412789891" lon="-3.459756756672828"><ele>1026.0</ele><time>2026-03-22T12:57:00.999Z</time></trkpt><trkpt lat="41.39151397725991" lon="-3.4597607591503454"><ele>1026.0</ele><time>2026-03-22T12:57:02.999Z</time></trkpt><trkpt lat="41.3916196483586" lon="-3.4597357027016815"><ele>1026.0</ele><time>2026-03-22T12:57:04.999Z</time></trkpt><trkpt lat="41.391664606367975" lon="-3.4596745211608564"><ele>1026.0</ele><time>2026-03-22T12:57:05.999Z</time></trkpt><trkpt lat="41.39176659846019" lon="-3.459641833398812"><ele>1026.0</ele><time>2026-03-22T12:57:07.999Z</time></trkpt><trkpt lat="41.39187023335296" lon="-3.459620958241441"><ele>1026.0</ele><time>2026-03-22T12:57:09.999Z</time></trkpt><trkpt lat="41.39197113860426" lon="-3.4596060607157257"><ele>1026.0</ele><time>2026-03-22T12:57:11.999Z</time></trkpt><trkpt lat="41.3920780184037" lon="-3.4596006562289427"><ele>1026.0</ele><time>2026-03-22T12:57:13.999Z</time></trkpt><trkpt lat="41.392176618410666" lon="-3.4596087396247617"><ele>1026.0</ele><time>2026-03-22T12:57:15.999Z</time></trkpt><trkpt lat="41.39226471225462" lon="-3.4596217440402652"><ele>1026.0</ele><time>2026-03-22T12:57:17.999Z</time></trkpt><trkpt lat="41.39233812029467" lon="-3.45963581784344"><ele>1026.0</ele><time>2026-03-22T12:57:19.999Z</time></trkpt><trkpt lat="41.3924138758301" lon="-3.459665717811518"><ele>1026.0</ele><time>2026-03-22T12:57:22.999Z</time></trkpt><trkpt lat="41.39249186715757" lon="-3.459619232132068"><ele>1026.0</ele><time>2026-03-22T12:57:26.999Z</time></trkpt><trkpt lat="41.3925025102477" lon="-3.459505409264281"><ele>1026.0000000000002</ele><time>2026-03-22T12:57:27.999Z</time></trkpt><trkpt lat="41.392598732186144" lon="-3.4594981371366726"><ele>1026.0</ele><time>2026-03-22T12:57:30.999Z</time></trkpt><trkpt lat="41.39266873783445" lon="-3.4594737667688666"><ele>1026.0</ele><time>2026-03-22T12:57:32.999Z</time></trkpt><trkpt lat="41.39271849407604" lon="-3.459414797385729"><ele>1026.0</ele><time>2026-03-22T12:57:34.999Z</time></trkpt><trkpt lat="41.392761402378504" lon="-3.459342461709305"><ele>1026.0</ele><time>2026-03-22T12:58:36Z</time></trkpt><trkpt lat="41.39280925029777" lon="-3.459286829509839"><ele>1026.0000000000002</ele><time>2026-03-22T12:58:43Z</time></trkpt><trkpt lat="41.39287221467431" lon="-3.4592924129408438"><ele>1026.0</ele><time>2026-03-22T12:59:01.999Z</time></trkpt><trkpt lat="41.39292639177565" lon="-3.4592479829770792"><ele>1026.0000000000002</ele><time>2026-03-22T12:59:22.999Z</time></trkpt><trkpt lat="41.39298041813839" lon="-3.459199228723488"><ele>1026.0</ele><time>2026-03-22T12:59:29.999Z</time></trkpt><trkpt lat="41.39301607001528" lon="-3.459116937111964"><ele>1026.0</ele><time>2026-03-22T12:59:37.999Z</time></trkpt><trkpt lat="41.39306797443039" lon="-3.4590581553961774"><ele>1026.0</ele><time>2026-03-22T12:59:44.999Z</time></trkpt><trkpt lat="41.39312877710459" lon="-3.4590278630068556"><ele>1026.0</ele><time>2026-03-22T12:59:51.999Z</time></trkpt><trkpt lat="41.393195338898494" lon="-3.459042085614286"><ele>1026.0000000000002</ele><time>2026-03-22T12:59:59.999Z</time></trkpt><trkpt lat="41.39325066794544" lon="-3.4590012079147474"><ele>1026.0</ele><time>2026-03-22T13:00:15.999Z</time></trkpt><trkpt lat="41.39331895296472" lon="-3.4589661812830252"><ele>1025.5714285714287</ele><time>2026-03-22T13:00:23Z</time></trkpt><trkpt lat="41.39336383196412" lon="-3.4589015885433927"><ele>1025.142857142857</ele><time>2026-03-22T13:00:46Z</time></trkpt><trkpt lat="41.39342025803943" lon="-3.4589512322943037"><ele>1024.7142857142858</ele><time>2026-03-22T13:01:13Z</time></trkpt><trkpt lat="41.39348105150153" lon="-3.4589871830532535"><ele>1024.2857142857142</ele><time>2026-03-22T13:01:22Z</time></trkpt><trkpt lat="41.393546471323496" lon="-3.459005276884545"><ele>1023.8571428571429</ele><time>2026-03-22T13:01:27Z</time></trkpt><trkpt lat="41.39349465950927" lon="-3.4590534102303647"><ele>1023.4285714285714</ele><time>2026-03-22T13:01:41Z</time></trkpt><trkpt lat="41.39342308318708" lon="-3.4590243677044064"><ele>1023.0</ele><time>2026-03-22T13:01:47Z</time></trkpt><trkpt lat="41.39337649747619" lon="-3.458967380762458"><ele>1023.0</ele><time>2026-03-22T13:01:53.999Z</time></trkpt><trkpt lat="41.3933099515759" lon="-3.458991657448928"><ele>1023.0</ele><time>2026-03-22T13:02:02.999Z</time></trkpt><trkpt lat="41.39323895376154" lon="-3.459005333892104"><ele>1023.0</ele><time>2026-03-22T13:02:07.999Z</time></trkpt><trkpt lat="41.39316905974221" lon="-3.459026601719708"><ele>1023.0</ele><time>2026-03-22T13:02:18.999Z</time></trkpt><trkpt lat="41.39310124770876" lon="-3.4590639032791906"><ele>1023.0</ele><time>2026-03-22T13:02:25.001Z</time></trkpt><trkpt lat="41.39303859281299" lon="-3.4591055404697246"><ele>1023.0</ele><time>2026-03-22T13:02:29.001Z</time></trkpt><trkpt lat="41.39299364926016" lon="-3.459170279127982"><ele>1023.0</ele><time>2026-03-22T13:02:34.001Z</time></trkpt><trkpt lat="41.39292818500741" lon="-3.459192289388845"><ele>1023.5</ele><time>2026-03-22T13:02:40.001Z</time></trkpt><trkpt lat="41.392876741672126" lon="-3.459244795541644"><ele>1024.0</ele><time>2026-03-22T13:02:46Z</time></trkpt><trkpt lat="41.39281597243271" lon="-3.459273926924381"><ele>1024.5</ele><time>2026-03-22T13:02:51Z</time></trkpt><trkpt lat="41.39275441561752" lon="-3.4593221220794983"><ele>1025.0</ele><time>2026-03-22T13:02:58Z</time></trkpt><trkpt lat="41.39272135280333" lon="-3.4593950520985066"><ele>1025.5</ele><time>2026-03-22T13:03:08Z</time></trkpt><trkpt lat="41.39284946700799" lon="-3.4594440000411772"><ele>1026.0</ele><time>2026-03-22T13:04:49.001Z</time></trkpt><trkpt lat="41.392921013219656" lon="-3.4594294968174495"><ele>1026.0</ele><time>2026-03-22T13:04:50.001Z</time></trkpt><trkpt lat="41.39298324789392" lon="-3.4594099676703927"><ele>1026.0</ele><time>2026-03-22T13:04:51.001Z</time></trkpt><trkpt lat="41.39309983309479" lon="-3.4593419470618962"><ele>1026.0</ele><time>2026-03-22T13:04:53.001Z</time></trkpt><trkpt lat="41.39316873288445" lon="-3.459322331050345"><ele>1026.0</ele><time>2026-03-22T13:04:54Z</time></trkpt><trkpt lat="41.39323983672809" lon="-3.459302087536263"><ele>1026.0</ele><time>2026-03-22T13:04:55Z</time></trkpt><trkpt lat="41.39331576154972" lon="-3.4592804714692837"><ele>1026.0</ele><time>2026-03-22T13:04:56Z</time></trkpt><trkpt lat="41.39338971791688" lon="-3.4592869182727592"><ele>1025.3999999999999</ele><time>2026-03-22T13:04:57Z</time></trkpt><trkpt lat="41.39345640195734" lon="-3.4593028289007712"><ele>1024.8</ele><time>2026-03-22T13:04:58Z</time></trkpt><trkpt lat="41.39351993097907" lon="-3.4593090226813707"><ele>1024.1999999999998</ele><time>2026-03-22T13:04:59Z</time></trkpt><trkpt lat="41.39362464130926" lon="-3.459319231445204"><ele>1023.5999999999999</ele><time>2026-03-22T13:05:01Z</time></trkpt><trkpt lat="41.39365240739517" lon="-3.4590379679080794"><ele>1023.0</ele><time>2026-03-22T13:05:03Z</time></trkpt><trkpt lat="41.39366819275751" lon="-3.4588868271836217"><ele>1023.0</ele><time>2026-03-22T13:05:05Z</time></trkpt><trkpt lat="41.39357657595239" lon="-3.4588052498450854"><ele>1023.0</ele><time>2026-03-22T13:05:07Z</time></trkpt><trkpt lat="41.39351158250736" lon="-3.4587844581418903"><ele>1023.0</ele><time>2026-03-22T13:05:08Z</time></trkpt><trkpt lat="41.393446139245356" lon="-3.458741464897568"><ele>1023.0</ele><time>2026-03-22T13:05:09Z</time></trkpt><trkpt lat="41.39337924596975" lon="-3.4587421230801407"><ele>1023.0</ele><time>2026-03-22T13:05:10Z</time></trkpt><trkpt lat="41.39330736155405" lon="-3.458719126930654"><ele>1023.0</ele><time>2026-03-22T13:05:11Z</time></trkpt><trkpt lat="41.39322918809253" lon="-3.4586670614024992"><ele>1023.1666666666666</ele><time>2026-03-22T13:05:12Z</time></trkpt><trkpt lat="41.39316729403973" lon="-3.458632526609695"><ele>1023.3333333333333</ele><time>2026-03-22T13:05:13Z</time></trkpt><trkpt lat="41.39310005332836" lon="-3.458580056715542"><ele>1023.5</ele><time>2026-03-22T13:05:14Z</time></trkpt><trkpt lat="41.39303521976619" lon="-3.45852847209489"><ele>1023.6666666666666</ele><time>2026-03-22T13:05:15Z</time></trkpt><trkpt lat="41.39293529853186" lon="-3.4584792065102716"><ele>1023.8333333333333</ele><time>2026-03-22T13:05:17Z</time></trkpt><trkpt lat="41.39286230258768" lon="-3.458478026700686"><ele>1024.0</ele><time>2026-03-22T13:05:19Z</time></trkpt><trkpt lat="41.39279554245598" lon="-3.458514211574204"><ele>1024.1666666666665</ele><time>2026-03-22T13:05:22Z</time></trkpt><trkpt lat="41.392799603412605" lon="-3.4584110616951773"><ele>1024.3333333333333</ele><time>2026-03-22T13:05:24Z</time></trkpt><trkpt lat="41.3928258635701" lon="-3.45830091894249"><ele>1024.5</ele><time>2026-03-22T13:05:26Z</time></trkpt><trkpt lat="41.39283148456833" lon="-3.4581936178166446"><ele>1024.6666666666667</ele><time>2026-03-22T13:05:28Z</time></trkpt><trkpt lat="41.3928085429869" lon="-3.458090718523395"><ele>1024.8333333333335</ele><time>2026-03-22T13:05:30Z</time></trkpt><trkpt lat="41.39278150202864" lon="-3.4580051250742097"><ele>1025.0</ele><time>2026-03-22T13:05:32Z</time></trkpt><trkpt lat="41.39274262389333" lon="-3.4579104527457787"><ele>1025.0</ele><time>2026-03-22T13:05:35Z</time></trkpt><trkpt lat="41.39271016719501" lon="-3.457819262983693"><ele>1025.0</ele><time>2026-03-22T13:05:40Z</time></trkpt><trkpt lat="41.39267869363135" lon="-3.4577278199337598"><ele>1025.0</ele><time>2026-03-22T13:05:46Z</time></trkpt><trkpt lat="41.39264491187077" lon="-3.4576214630616025"><ele>1025.0</ele><time>2026-03-22T13:06:08.999Z</time></trkpt><trkpt lat="41.392612524989055" lon="-3.4575207973895603"><ele>1025.0</ele><time>2026-03-22T13:06:11.999Z</time></trkpt><trkpt lat="41.39258332901536" lon="-3.457430112006192"><ele>1025.0</ele><time>2026-03-22T13:06:15.999Z</time></trkpt><trkpt lat="41.392525084130114" lon="-3.457383482012562"><ele>1025.0</ele><time>2026-03-22T13:06:18.999Z</time></trkpt><trkpt lat="41.39245037669572" lon="-3.4573725670235356"><ele>1025.0</ele><time>2026-03-22T13:06:21.999Z</time></trkpt><trkpt lat="41.392366206473504" lon="-3.457354408732716"><ele>1025.0</ele><time>2026-03-22T13:06:24.999Z</time></trkpt><trkpt lat="41.39227685138979" lon="-3.457330415800111"><ele>1025.0</ele><time>2026-03-22T13:06:27.999Z</time></trkpt><trkpt lat="41.39220854881438" lon="-3.4573027902953326"><ele>1025.0</ele><time>2026-03-22T13:06:31.999Z</time></trkpt><trkpt lat="41.392136180886304" lon="-3.457250481489721"><ele>1025.0</ele><time>2026-03-22T13:06:51.001Z</time></trkpt><trkpt lat="41.392006359886075" lon="-3.4572360528768264"><ele>1025.3333333333335</ele><time>2026-03-22T13:06:55Z</time></trkpt><trkpt lat="41.39191988989404" lon="-3.45721729967484"><ele>1025.6666666666667</ele><time>2026-03-22T13:06:57Z</time></trkpt><trkpt lat="41.39181963740064" lon="-3.4572023852387064"><ele>1026.0</ele><time>2026-03-22T13:06:59Z</time></trkpt><trkpt lat="41.39170497070926" lon="-3.457191120388977"><ele>1026.3333333333333</ele><time>2026-03-22T13:07:01Z</time></trkpt><trkpt lat="41.39163373631502" lon="-3.457210157353313"><ele>1026.6666666666665</ele><time>2026-03-22T13:07:02Z</time></trkpt><trkpt lat="41.39156813899369" lon="-3.4572080157400067"><ele>1027.0</ele><time>2026-03-22T13:07:03Z</time></trkpt><trkpt lat="41.39149984687403" lon="-3.4572107921467965"><ele>1027.0</ele><time>2026-03-22T13:07:04Z</time></trkpt><trkpt lat="41.39143231172151" lon="-3.457217024115663"><ele>1027.0</ele><time>2026-03-22T13:07:05Z</time></trkpt><trkpt lat="41.39136730468377" lon="-3.45722897937933"><ele>1027.0</ele><time>2026-03-22T13:07:06Z</time></trkpt><trkpt lat="41.391259259151624" lon="-3.45726259571134"><ele>1027.0</ele><time>2026-03-22T13:07:08Z</time></trkpt><trkpt lat="41.39116095674701" lon="-3.457302627804362"><ele>1027.0</ele><time>2026-03-22T13:07:10Z</time></trkpt><trkpt lat="41.39123881386208" lon="-3.457354473916731"><ele>1027.0</ele><time>2026-03-22T13:07:13Z</time></trkpt><trkpt lat="41.391267199476395" lon="-3.4572720915108226"><ele>1027.0</ele><time>2026-03-22T13:07:16Z</time></trkpt><trkpt lat="41.39135188641497" lon="-3.4572390294730067"><ele>1027.0</ele><time>2026-03-22T13:07:20Z</time></trkpt><trkpt lat="41.39147182194737" lon="-3.4572208981861636"><ele>1027.0</ele><time>2026-03-22T13:08:35.999Z</time></trkpt><trkpt lat="41.39158461062421" lon="-3.4572150739726553"><ele>1027.0</ele><time>2026-03-22T13:09:09Z</time></trkpt><trkpt lat="41.39166874204915" lon="-3.4572063286375925"><ele>1027.0</ele><time>2026-03-22T13:09:12Z</time></trkpt><trkpt lat="41.39174511563028" lon="-3.4571741221531966"><ele>1027.0</ele><time>2026-03-22T13:09:15Z</time></trkpt><trkpt lat="41.391728085734215" lon="-3.457092188275195"><ele>1027.0</ele><time>2026-03-22T13:09:17Z</time></trkpt><trkpt lat="41.39163787554413" lon="-3.4571894157261482"><ele>1027.0</ele><time>2026-03-22T13:09:23Z</time></trkpt><trkpt lat="41.39152406984281" lon="-3.457209298945971"><ele>1027.0</ele><time>2026-03-22T13:09:25Z</time></trkpt><trkpt lat="41.391419460318986" lon="-3.4572188445015715"><ele>1027.0</ele><time>2026-03-22T13:09:27Z</time></trkpt><trkpt lat="41.39129900159724" lon="-3.457238017532753"><ele>1027.0</ele><time>2026-03-22T13:09:29Z</time></trkpt><trkpt lat="41.39118855843538" lon="-3.4572990814045466"><ele>1027.0</ele><time>2026-03-22T13:09:31Z</time></trkpt><trkpt lat="41.39112905463734" lon="-3.457327937185627"><ele>1027.0</ele><time>2026-03-22T13:09:32Z</time></trkpt><trkpt lat="41.39105692773045" lon="-3.4573154149938703"><ele>1027.0</ele><time>2026-03-22T13:09:33Z</time></trkpt><trkpt lat="41.39099249053667" lon="-3.45734703834367"><ele>1027.0</ele><time>2026-03-22T13:09:34Z</time></trkpt><trkpt lat="41.390924968147004" lon="-3.45735915259583"><ele>1027.0</ele><time>2026-03-22T13:09:35Z</time></trkpt><trkpt lat="41.39085591885407" lon="-3.4573715407905827"><ele>1027.0</ele><time>2026-03-22T13:09:36Z</time></trkpt><trkpt lat="41.390786331535715" lon="-3.45738402551253"><ele>1027.0</ele><time>2026-03-22T13:09:37Z</time></trkpt><trkpt lat="41.39071591063854" lon="-3.457396659788138"><ele>1027.0</ele><time>2026-03-22T13:09:38Z</time></trkpt><trkpt lat="41.39064673762494" lon="-3.457409070185278"><ele>1027.0</ele><time>2026-03-22T13:09:39Z</time></trkpt><trkpt lat="41.39057463954007" lon="-3.4574141761733164"><ele>1027.0</ele><time>2026-03-22T13:09:40Z</time></trkpt><trkpt lat="41.39050032880976" lon="-3.457383404311006"><ele>1027.0</ele><time>2026-03-22T13:09:41Z</time></trkpt><trkpt lat="41.39042739910176" lon="-3.4574041944012217"><ele>1027.0</ele><time>2026-03-22T13:09:42Z</time></trkpt><trkpt lat="41.39035350409447" lon="-3.457405039286932"><ele>1027.0</ele><time>2026-03-22T13:09:43Z</time></trkpt><trkpt lat="41.390279396338535" lon="-3.457407265020335"><ele>1027.0</ele><time>2026-03-22T13:09:44Z</time></trkpt><trkpt lat="41.390206980494895" lon="-3.4574138530227474"><ele>1027.0</ele><time>2026-03-22T13:09:45Z</time></trkpt><trkpt lat="41.3901382063919" lon="-3.457427487161276"><ele>1027.0</ele><time>2026-03-22T13:09:46Z</time></trkpt><trkpt lat="41.39006686269405" lon="-3.457445042071277"><ele>1027.0</ele><time>2026-03-22T13:09:47Z</time></trkpt><trkpt lat="41.38999531995951" lon="-3.4574653222951044"><ele>1027.0</ele><time>2026-03-22T13:09:48Z</time></trkpt><trkpt lat="41.38992582658401" lon="-3.45748518394861"><ele>1027.0</ele><time>2026-03-22T13:09:49Z</time></trkpt><trkpt lat="41.38986249989754" lon="-3.4575080443802833"><ele>1027.0</ele><time>2026-03-22T13:09:50Z</time></trkpt><trkpt lat="41.389794287752046" lon="-3.4575227817944785"><ele>1027.0</ele><time>2026-03-22T13:09:51Z</time></trkpt><trkpt lat="41.389756772613765" lon="-3.457602610277435"><ele>1027.0</ele><time>2026-03-22T13:09:52Z</time></trkpt><trkpt lat="41.38969110979687" lon="-3.4577127072496414"><ele>1027.0</ele><time>2026-03-22T13:09:54Z</time></trkpt><trkpt lat="41.38955658335867" lon="-3.4576082087167257"><ele>1027.0</ele><time>2026-03-22T13:09:55Z</time></trkpt><trkpt lat="41.38949466743499" lon="-3.4575854335127185"><ele>1027.142857142857</ele><time>2026-03-22T13:09:56Z</time></trkpt><trkpt lat="41.38942978000674" lon="-3.457562615466786"><ele>1027.2857142857144</ele><time>2026-03-22T13:09:56.999Z</time></trkpt><trkpt lat="41.389363064876" lon="-3.4575414758681227"><ele>1027.4285714285716</ele><time>2026-03-22T13:09:57.999Z</time></trkpt><trkpt lat="41.389295928246945" lon="-3.457524286088582"><ele>1027.5714285714287</ele><time>2026-03-22T13:09:58.999Z</time></trkpt><trkpt lat="41.38922841085229" lon="-3.4575038165298264"><ele>1027.7142857142858</ele><time>2026-03-22T13:09:59.999Z</time></trkpt><trkpt lat="41.38915988130151" lon="-3.457480149673932"><ele>1027.857142857143</ele><time>2026-03-22T13:10:00.999Z</time></trkpt><trkpt lat="41.38909298673341" lon="-3.457454764273113"><ele>1028.0</ele><time>2026-03-22T13:10:01.999Z</time></trkpt><trkpt lat="41.38902219203679" lon="-3.4574304993403944"><ele>1028.0</ele><time>2026-03-22T13:10:02.999Z</time></trkpt><trkpt lat="41.38895881318312" lon="-3.457414205778391"><ele>1028.0</ele><time>2026-03-22T13:10:03.999Z</time></trkpt><trkpt lat="41.388889080130454" lon="-3.4573886041453763"><ele>1028.0</ele><time>2026-03-22T13:10:04.999Z</time></trkpt><trkpt lat="41.38881763726262" lon="-3.45736343444239"><ele>1028.0</ele><time>2026-03-22T13:10:05.999Z</time></trkpt><trkpt lat="41.38874640452552" lon="-3.457341914142979"><ele>1028.0</ele><time>2026-03-22T13:10:06.999Z</time></trkpt><trkpt lat="41.38867643370521" lon="-3.4573208256897034"><ele>1028.0</ele><time>2026-03-22T13:10:07.999Z</time></trkpt><trkpt lat="41.38861127577056" lon="-3.4572945568445874"><ele>1028.0</ele><time>2026-03-22T13:10:08.999Z</time></trkpt><trkpt lat="41.388478476969716" lon="-3.4572653019674613"><ele>1028.0</ele><time>2026-03-22T13:10:10.999Z</time></trkpt><trkpt lat="41.388406399818216" lon="-3.4572461517280253"><ele>1028.0</ele><time>2026-03-22T13:10:11.999Z</time></trkpt><trkpt lat="41.38833853006261" lon="-3.457221217502677"><ele>1028.0</ele><time>2026-03-22T13:10:12.999Z</time></trkpt><trkpt lat="41.3882651961857" lon="-3.457199061093212"><ele>1028.0</ele><time>2026-03-22T13:10:13.999Z</time></trkpt><trkpt lat="41.38818843748471" lon="-3.457177471934724"><ele>1028.0</ele><time>2026-03-22T13:10:14.999Z</time></trkpt><trkpt lat="41.388113458396276" lon="-3.457154963112388"><ele>1028.0</ele><time>2026-03-22T13:10:15.999Z</time></trkpt><trkpt lat="41.38804264912869" lon="-3.4571307228563755"><ele>1028.0</ele><time>2026-03-22T13:10:16.999Z</time></trkpt><trkpt lat="41.387977683848526" lon="-3.4571113074318074"><ele>1028.1666666666667</ele><time>2026-03-22T13:10:17.999Z</time></trkpt><trkpt lat="41.387862451706226" lon="-3.457079057944698"><ele>1028.3333333333335</ele><time>2026-03-22T13:10:19.999Z</time></trkpt><trkpt lat="41.38777075041327" lon="-3.457046178212582"><ele>1028.5</ele><time>2026-03-22T13:10:21.999Z</time></trkpt><trkpt lat="41.3876992722438" lon="-3.457033085216069"><ele>1028.6666666666667</ele><time>2026-03-22T13:10:23.999Z</time></trkpt><trkpt lat="41.38763171221788" lon="-3.456999052691325"><ele>1028.8333333333333</ele><time>2026-03-22T13:10:25.999Z</time></trkpt><trkpt lat="41.38756522857686" lon="-3.456962116363652"><ele>1029.0</ele><time>2026-03-22T13:10:27.999Z</time></trkpt><trkpt lat="41.387499123934774" lon="-3.4569531236336113"><ele>1029.0</ele><time>2026-03-22T13:10:29.999Z</time></trkpt><trkpt lat="41.38742081237065" lon="-3.4569546807408202"><ele>1029.0</ele><time>2026-03-22T13:10:31.999Z</time></trkpt><trkpt lat="41.387309307769335" lon="-3.456961869978034"><ele>1029.0</ele><time>2026-03-22T13:10:33.999Z</time></trkpt><trkpt lat="41.38724458634784" lon="-3.456974191277833"><ele>1029.0</ele><time>2026-03-22T13:10:34.999Z</time></trkpt><trkpt lat="41.38718307279519" lon="-3.457035178237047"><ele>1029.0</ele><time>2026-03-22T13:10:35.999Z</time></trkpt><trkpt lat="41.387109565366885" lon="-3.457047327034448"><ele>1029.0</ele><time>2026-03-22T13:10:36.999Z</time></trkpt><trkpt lat="41.3870339134525" lon="-3.457058618349272"><ele>1028.857142857143</ele><time>2026-03-22T13:10:37.999Z</time></trkpt><trkpt lat="41.386955656588526" lon="-3.457070221103774"><ele>1028.7142857142858</ele><time>2026-03-22T13:10:38.999Z</time></trkpt><trkpt lat="41.38688049996786" lon="-3.4570828808967744"><ele>1028.5714285714284</ele><time>2026-03-22T13:10:39.999Z</time></trkpt><trkpt lat="41.38681342968066" lon="-3.457098101516248"><ele>1028.4285714285716</ele><time>2026-03-22T13:10:40.999Z</time></trkpt><trkpt lat="41.38675052330255" lon="-3.4571139166302776"><ele>1028.2857142857142</ele><time>2026-03-22T13:10:41.999Z</time></trkpt><trkpt lat="41.3866858696337" lon="-3.4571397217262336"><ele>1028.142857142857</ele><time>2026-03-22T13:10:42.999Z</time></trkpt><trkpt lat="41.38661965942584" lon="-3.4571634846006503"><ele>1028.0</ele><time>2026-03-22T13:10:43.999Z</time></trkpt><trkpt lat="41.38654872968625" lon="-3.45719028158448"><ele>1027.8333333333335</ele><time>2026-03-22T13:10:44.999Z</time></trkpt><trkpt lat="41.38647375316835" lon="-3.4572215888683004"><ele>1027.6666666666667</ele><time>2026-03-22T13:10:45.999Z</time></trkpt><trkpt lat="41.386397000939894" lon="-3.4572573505852744"><ele>1027.5</ele><time>2026-03-22T13:10:46.999Z</time></trkpt><trkpt lat="41.38632208366565" lon="-3.457293807144031"><ele>1027.3333333333333</ele><time>2026-03-22T13:10:48Z</time></trkpt><trkpt lat="41.38624866660493" lon="-3.457303800847879"><ele>1027.1666666666665</ele><time>2026-03-22T13:10:49Z</time></trkpt><trkpt lat="41.38618853627984" lon="-3.457336965487824"><ele>1027.0</ele><time>2026-03-22T13:10:50Z</time></trkpt><trkpt lat="41.38609935528271" lon="-3.457381765614034"><ele>1027.75</ele><time>2026-03-22T13:10:52Z</time></trkpt><trkpt lat="41.386102289356366" lon="-3.457699115460743"><ele>1028.5</ele><time>2026-03-22T13:10:55Z</time></trkpt><trkpt lat="41.386082494817124" lon="-3.457798286863186"><ele>1029.25</ele><time>2026-03-22T13:11:02Z</time></trkpt><trkpt lat="41.386093108413704" lon="-3.457893221945094"><ele>1030.0</ele><time>2026-03-22T13:11:05Z</time></trkpt><trkpt lat="41.38608658864878" lon="-3.4579950675315807"><ele>1030.142857142857</ele><time>2026-03-22T13:11:08Z</time></trkpt><trkpt lat="41.38607529434823" lon="-3.458101159072151"><ele>1030.2857142857142</ele><time>2026-03-22T13:11:11Z</time></trkpt><trkpt lat="41.386064645886975" lon="-3.458205387726313"><ele>1030.4285714285713</ele><time>2026-03-22T13:11:14Z</time></trkpt><trkpt lat="41.38603936135376" lon="-3.458291274773373"><ele>1030.5714285714284</ele><time>2026-03-22T13:11:24Z</time></trkpt><trkpt lat="41.38597366437025" lon="-3.4583397809034655"><ele>1030.7142857142856</ele><time>2026-03-22T13:11:32Z</time></trkpt><trkpt lat="41.38591028859868" lon="-3.4583508780200476"><ele>1030.857142857143</ele><time>2026-03-22T13:11:36Z</time></trkpt><trkpt lat="41.3858366176314" lon="-3.458364516253718"><ele>1031.0</ele><time>2026-03-22T13:11:43Z</time></trkpt><trkpt lat="41.38577723342113" lon="-3.458303108254799"><ele>1031.0</ele><time>2026-03-22T13:11:52Z</time></trkpt><trkpt lat="41.38577386157028" lon="-3.4581673385396514"><ele>1031.0</ele><time>2026-03-22T13:11:55Z</time></trkpt><trkpt lat="41.38580437642899" lon="-3.4580547056735558"><ele>1031.0</ele><time>2026-03-22T13:11:56.999Z</time></trkpt><trkpt lat="41.38586343392642" lon="-3.4579675474550613"><ele>1031.0</ele><time>2026-03-22T13:11:58.999Z</time></trkpt><trkpt lat="41.38590438332167" lon="-3.457878837504906"><ele>1031.0</ele><time>2026-03-22T13:12:00.999Z</time></trkpt><trkpt lat="41.38596840745294" lon="-3.457825283530408"><ele>1031.0</ele><time>2026-03-22T13:12:02.999Z</time></trkpt><trkpt lat="41.386044680264604" lon="-3.4578444645908117"><ele>1030.8</ele><time>2026-03-22T13:12:04.999Z</time></trkpt><trkpt lat="41.38611049188573" lon="-3.4577742645575795"><ele>1030.6</ele><time>2026-03-22T13:12:08.999Z</time></trkpt><trkpt lat="41.38611088354708" lon="-3.457644151091197"><ele>1030.4</ele><time>2026-03-22T13:12:12.999Z</time></trkpt><trkpt lat="41.38609436623977" lon="-3.4575050117848263"><ele>1030.2</ele><time>2026-03-22T13:12:14.999Z</time></trkpt><trkpt lat="41.386025104666665" lon="-3.4573829173265596"><ele>1030.0</ele><time>2026-03-22T13:12:16.999Z</time></trkpt><trkpt lat="41.38596295410428" lon="-3.4573572040018155"><ele>1030.0</ele><time>2026-03-22T13:12:17.999Z</time></trkpt><trkpt lat="41.38588919604104" lon="-3.4574009096849743"><ele>1030.0</ele><time>2026-03-22T13:12:18.999Z</time></trkpt><trkpt lat="41.38582003056153" lon="-3.457371097226955"><ele>1030.0</ele><time>2026-03-22T13:12:19.999Z</time></trkpt><trkpt lat="41.38575315677294" lon="-3.457351583532938"><ele>1030.0</ele><time>2026-03-22T13:12:20.999Z</time></trkpt><trkpt lat="41.38568004464743" lon="-3.4573378805422093"><ele>1030.0</ele><time>2026-03-22T13:12:21.999Z</time></trkpt><trkpt lat="41.38560176291106" lon="-3.4573238420588175"><ele>1030.0</ele><time>2026-03-22T13:12:22.999Z</time></trkpt><trkpt lat="41.38552001141931" lon="-3.4573133977831008"><ele>1029.6</ele><time>2026-03-22T13:12:23.999Z</time></trkpt><trkpt lat="41.38543402104492" lon="-3.457304389225308"><ele>1029.2</ele><time>2026-03-22T13:12:24.999Z</time></trkpt><trkpt lat="41.385345299421424" lon="-3.4573059199172946"><ele>1028.8</ele><time>2026-03-22T13:12:25.999Z</time></trkpt><trkpt lat="41.385255146064736" lon="-3.4573069996242896"><ele>1028.4</ele><time>2026-03-22T13:12:26.999Z</time></trkpt><trkpt lat="41.38516267193936" lon="-3.457312570966598"><ele>1028.0</ele><time>2026-03-22T13:12:27.999Z</time></trkpt><trkpt lat="41.38506784396434" lon="-3.457321940908356"><ele>1028.0</ele><time>2026-03-22T13:12:28.999Z</time></trkpt><trkpt lat="41.3849717703897" lon="-3.4573383322495426"><ele>1028.0</ele><time>2026-03-22T13:12:29.999Z</time></trkpt><trkpt lat="41.38488087830679" lon="-3.4573874375424802"><ele>1028.0</ele><time>2026-03-22T13:12:30.999Z</time></trkpt><trkpt lat="41.384794055262454" lon="-3.457422247953504"><ele>1028.0</ele><time>2026-03-22T13:12:31.999Z</time></trkpt><trkpt lat="41.38471290454477" lon="-3.457450773312617"><ele>1028.0</ele><time>2026-03-22T13:12:32.999Z</time></trkpt><trkpt lat="41.38464273573913" lon="-3.4574684417393455"><ele>1028.0</ele><time>2026-03-22T13:12:33.999Z</time></trkpt><trkpt lat="41.38453703819632" lon="-3.457480528082204"><ele>1028.3333333333335</ele><time>2026-03-22T13:12:35.999Z</time></trkpt><trkpt lat="41.38445473404838" lon="-3.457476727898601"><ele>1028.6666666666667</ele><time>2026-03-22T13:12:37.999Z</time></trkpt><trkpt lat="41.38437490573426" lon="-3.4574516668015107"><ele>1029.0</ele><time>2026-03-22T13:12:39.999Z</time></trkpt><trkpt lat="41.38428153207261" lon="-3.4574416845026334"><ele>1029.3333333333333</ele><time>2026-03-22T13:12:41.999Z</time></trkpt><trkpt lat="41.3841926444658" lon="-3.4574326683504633"><ele>1029.6666666666665</ele><time>2026-03-22T13:12:43.999Z</time></trkpt><trkpt lat="41.384105142650164" lon="-3.457438242657768"><ele>1030.0</ele><time>2026-03-22T13:12:45.999Z</time></trkpt><trkpt lat="41.384020586448166" lon="-3.457450798463002"><ele>1030.0</ele><time>2026-03-22T13:12:47.999Z</time></trkpt><trkpt lat="41.38396169193089" lon="-3.457525715788298"><ele>1030.0</ele><time>2026-03-22T13:12:49.999Z</time></trkpt><trkpt lat="41.38392163249925" lon="-3.4576099320642406"><ele>1030.0</ele><time>2026-03-22T13:12:51.999Z</time></trkpt><trkpt lat="41.38390939085939" lon="-3.4577192583813035"><ele>1030.0</ele><time>2026-03-22T13:12:54Z</time></trkpt><trkpt lat="41.38389139126496" lon="-3.4578133398131126"><ele>1030.0</ele><time>2026-03-22T13:12:57Z</time></trkpt><trkpt lat="41.38388911368466" lon="-3.457899143067779"><ele>1030.0</ele><time>2026-03-22T13:13:02Z</time></trkpt><trkpt lat="41.3839039783898" lon="-3.458005697968707"><ele>1030.1666666666665</ele><time>2026-03-22T13:13:07Z</time></trkpt><trkpt lat="41.38394234023827" lon="-3.4581176613611007"><ele>1030.3333333333333</ele><time>2026-03-22T13:13:10Z</time></trkpt><trkpt lat="41.38397159124252" lon="-3.458194058066981"><ele>1030.5</ele><time>2026-03-22T13:13:13Z</time></trkpt><trkpt lat="41.38402253254717" lon="-3.458291416899871"><ele>1030.6666666666667</ele><time>2026-03-22T13:13:25Z</time></trkpt><trkpt lat="41.384038433215125" lon="-3.4583948580803723"><ele>1030.8333333333335</ele><time>2026-03-22T13:13:28Z</time></trkpt><trkpt lat="41.384088835124885" lon="-3.4584699928600777"><ele>1031.0</ele><time>2026-03-22T13:13:31Z</time></trkpt><trkpt lat="41.384149352389905" lon="-3.4585285868037148"><ele>1031.0</ele><time>2026-03-22T13:13:34Z</time></trkpt><trkpt lat="41.38421470172538" lon="-3.4585339098417633"><ele>1031.0</ele><time>2026-03-22T13:14:55.999Z</time></trkpt><trkpt lat="41.38427646495123" lon="-3.4585957943092405"><ele>1031.0</ele><time>2026-03-22T13:15:17Z</time></trkpt><trkpt lat="41.38434053194375" lon="-3.4586343394199885"><ele>1031.0</ele><time>2026-03-22T13:16:05.999Z</time></trkpt><trkpt lat="41.38427502721399" lon="-3.4586091150507374"><ele>1031.0</ele><time>2026-03-22T13:16:18.999Z</time></trkpt><trkpt lat="41.384210120388886" lon="-3.4585855607267177"><ele>1031.0</ele><time>2026-03-22T13:16:25.999Z</time></trkpt><trkpt lat="41.384141775991196" lon="-3.4585876108402513"><ele>1031.0</ele><time>2026-03-22T13:16:32.999Z</time></trkpt><trkpt lat="41.384192692552965" lon="-3.45852848899094"><ele>1031.0</ele><time>2026-03-22T13:16:43.999Z</time></trkpt><trkpt lat="41.384130974591365" lon="-3.458554800758476"><ele>1031.0</ele><time>2026-03-22T13:17:13Z</time></trkpt><trkpt lat="41.384070468767895" lon="-3.458524466440329"><ele>1031.0</ele><time>2026-03-22T13:17:31Z</time></trkpt><trkpt lat="41.384028732154384" lon="-3.4584613113345957"><ele>1031.0</ele><time>2026-03-22T13:17:33Z</time></trkpt><trkpt lat="41.383981612735525" lon="-3.4583566199939115"><ele>1031.0</ele><time>2026-03-22T13:17:36Z</time></trkpt><trkpt lat="41.38395943923627" lon="-3.4582505526926886"><ele>1031.0</ele><time>2026-03-22T13:17:39Z</time></trkpt><trkpt lat="41.38394422390619" lon="-3.458142388373772"><ele>1031.0</ele><time>2026-03-22T13:17:42Z</time></trkpt><trkpt lat="41.38394102851486" lon="-3.458050173168965"><ele>1031.0</ele><time>2026-03-22T13:17:45Z</time></trkpt><trkpt lat="41.38393479635711" lon="-3.4579559002892086"><ele>1031.0</ele><time>2026-03-22T13:17:48Z</time></trkpt><trkpt lat="41.383911317253784" lon="-3.4578410430758963"><ele>1031.0</ele><time>2026-03-22T13:17:51Z</time></trkpt><trkpt lat="41.38390148120331" lon="-3.45775623489682"><ele>1031.0</ele><time>2026-03-22T13:17:54Z</time></trkpt><trkpt lat="41.38397198324505" lon="-3.457727896643121"><ele>1031.0</ele><time>2026-03-22T13:17:58Z</time></trkpt><trkpt lat="41.38400254782247" lon="-3.4578320736572192"><ele>1031.0</ele><time>2026-03-22T13:18:01Z</time></trkpt><trkpt lat="41.3839593964873" lon="-3.4577318333694738"><ele>1030.8333333333335</ele><time>2026-03-22T13:18:25.999Z</time></trkpt><trkpt lat="41.383988266806135" lon="-3.457846831202075"><ele>1030.6666666666667</ele><time>2026-03-22T13:18:29.999Z</time></trkpt><trkpt lat="41.383919068548195" lon="-3.457855668967373"><ele>1030.5</ele><time>2026-03-22T13:18:57.999Z</time></trkpt><trkpt lat="41.38398242436025" lon="-3.457859149341323"><ele>1030.3333333333333</ele><time>2026-03-22T13:20:17.999Z</time></trkpt><trkpt lat="41.383957536654016" lon="-3.457737353351966"><ele>1030.1666666666665</ele><time>2026-03-22T13:21:13.999Z</time></trkpt><trkpt lat="41.38397084375973" lon="-3.457598165267778"><ele>1030.0</ele><time>2026-03-22T13:21:15.999Z</time></trkpt><trkpt lat="41.383965575589286" lon="-3.457462134607782"><ele>1030.0</ele><time>2026-03-22T13:21:18Z</time></trkpt><trkpt lat="41.38408798419737" lon="-3.457415131718315"><ele>1030.0</ele><time>2026-03-22T13:21:20Z</time></trkpt><trkpt lat="41.38416885676196" lon="-3.4574432849374244"><ele>1030.0</ele><time>2026-03-22T13:21:21Z</time></trkpt><trkpt lat="41.38425201474284" lon="-3.457449999931133"><ele>1030.0</ele><time>2026-03-22T13:21:22Z</time></trkpt><trkpt lat="41.38433540657589" lon="-3.4574409058316338"><ele>1030.0</ele><time>2026-03-22T13:21:23Z</time></trkpt><trkpt lat="41.384420872331724" lon="-3.457426346406833"><ele>1030.0</ele><time>2026-03-22T13:21:24Z</time></trkpt><trkpt lat="41.3845032765665" lon="-3.4574359728957686"><ele>1030.0</ele><time>2026-03-22T13:21:25Z</time></trkpt><trkpt lat="41.38456683015861" lon="-3.4574347858580525"><ele>1030.0</ele><time>2026-03-22T13:21:26Z</time></trkpt><trkpt lat="41.384643248355786" lon="-3.457422903956083"><ele>1030.0</ele><time>2026-03-22T13:21:27Z</time></trkpt><trkpt lat="41.384719736100216" lon="-3.4574040366027385"><ele>1030.0</ele><time>2026-03-22T13:21:28Z</time></trkpt><trkpt lat="41.38478725082458" lon="-3.457378020932828"><ele>1030.0</ele><time>2026-03-22T13:21:29Z</time></trkpt><trkpt lat="41.38485820278155" lon="-3.4573499387734365"><ele>1030.0</ele><time>2026-03-22T13:21:30Z</time></trkpt><trkpt lat="41.38492794083631" lon="-3.457328203615578"><ele>1029.6666666666665</ele><time>2026-03-22T13:21:31Z</time></trkpt><trkpt lat="41.3849974203623" lon="-3.4573090559828894"><ele>1029.3333333333333</ele><time>2026-03-22T13:21:32Z</time></trkpt><trkpt lat="41.38506944427365" lon="-3.457308361269186"><ele>1029.0</ele><time>2026-03-22T13:21:33Z</time></trkpt><trkpt lat="41.38513621221675" lon="-3.457288253299348"><ele>1028.6666666666667</ele><time>2026-03-22T13:21:34Z</time></trkpt><trkpt lat="41.385207646498735" lon="-3.45729546458828"><ele>1028.3333333333335</ele><time>2026-03-22T13:21:35Z</time></trkpt><trkpt lat="41.38529633574344" lon="-3.4572747641259918"><ele>1028.0</ele><time>2026-03-22T13:21:36Z</time></trkpt><trkpt lat="41.385383583542115" lon="-3.4572747366041954"><ele>1028.0</ele><time>2026-03-22T13:21:37Z</time></trkpt><trkpt lat="41.3854757047177" lon="-3.457276698178392"><ele>1028.0</ele><time>2026-03-22T13:21:38Z</time></trkpt><trkpt lat="41.38556909153939" lon="-3.457306695668374"><ele>1028.0</ele><time>2026-03-22T13:21:39Z</time></trkpt><trkpt lat="41.385661863037065" lon="-3.457323722280589"><ele>1028.0</ele><time>2026-03-22T13:21:40Z</time></trkpt><trkpt lat="41.385745376755864" lon="-3.4573408070565255"><ele>1028.0</ele><time>2026-03-22T13:21:41Z</time></trkpt><trkpt lat="41.385823647033504" lon="-3.457350999391633"><ele>1028.0</ele><time>2026-03-22T13:21:42Z</time></trkpt><trkpt lat="41.38590315024955" lon="-3.4573583572236415"><ele>1027.8</ele><time>2026-03-22T13:21:43Z</time></trkpt><trkpt lat="41.385990492926844" lon="-3.4573571359515314"><ele>1027.6</ele><time>2026-03-22T13:21:44Z</time></trkpt><trkpt lat="41.38608164308835" lon="-3.457346315406225"><ele>1027.4</ele><time>2026-03-22T13:21:45Z</time></trkpt><trkpt lat="41.38617380892988" lon="-3.457320719022697"><ele>1027.2</ele><time>2026-03-22T13:21:46Z</time></trkpt><trkpt lat="41.38626595032715" lon="-3.4572880655774374"><ele>1027.0</ele><time>2026-03-22T13:21:47Z</time></trkpt><trkpt lat="41.386360061354935" lon="-3.4572478804062765"><ele>1027.0</ele><time>2026-03-22T13:21:48Z</time></trkpt><trkpt lat="41.386450966232374" lon="-3.4572033432151197"><ele>1027.0</ele><time>2026-03-22T13:21:49Z</time></trkpt><trkpt lat="41.38654833693813" lon="-3.457160308205953"><ele>1027.0</ele><time>2026-03-22T13:21:50Z</time></trkpt><trkpt lat="41.38663989765466" lon="-3.4571239268827485"><ele>1027.0</ele><time>2026-03-22T13:21:51Z</time></trkpt><trkpt lat="41.386726063202445" lon="-3.4570933103277537"><ele>1027.0</ele><time>2026-03-22T13:21:52Z</time></trkpt><trkpt lat="41.38681250241469" lon="-3.4570519308112106"><ele>1027.0</ele><time>2026-03-22T13:21:53Z</time></trkpt><trkpt lat="41.38690008632741" lon="-3.457033955499703"><ele>1027.0</ele><time>2026-03-22T13:21:54Z</time></trkpt><trkpt lat="41.38700512296585" lon="-3.4572358802052965"><ele>1027.0</ele><time>2026-03-22T13:21:55Z</time></trkpt><trkpt lat="41.38709246193153" lon="-3.4572990939133956"><ele>1027.0</ele><time>2026-03-22T13:21:56Z</time></trkpt><trkpt lat="41.38718379241916" lon="-3.457363063103341"><ele>1027.6</ele><time>2026-03-22T13:21:57Z</time></trkpt><trkpt lat="41.38727565680071" lon="-3.45743539191292"><ele>1028.2</ele><time>2026-03-22T13:21:57.999Z</time></trkpt><trkpt lat="41.38738377438421" lon="-3.4574630291778625"><ele>1028.8</ele><time>2026-03-22T13:21:58.999Z</time></trkpt><trkpt lat="41.38748095861593" lon="-3.457530343327136"><ele>1029.4</ele><time>2026-03-22T13:21:59.999Z</time></trkpt><trkpt lat="41.38757910105138" lon="-3.4575983211692436"><ele>1030.0</ele><time>2026-03-22T13:22:00.999Z</time></trkpt><trkpt lat="41.387675944965046" lon="-3.4576653995964546"><ele>1030.0</ele><time>2026-03-22T13:22:01.999Z</time></trkpt><trkpt lat="41.38777527192226" lon="-3.457734197897077"><ele>1030.0</ele><time>2026-03-22T13:22:02.999Z</time></trkpt><trkpt lat="41.387874854231036" lon="-3.4578031730601277"><ele>1030.0</ele><time>2026-03-22T13:22:03.999Z</time></trkpt><trkpt lat="41.38797491746695" lon="-3.4578721914744532"><ele>1030.0</ele><time>2026-03-22T13:22:04.999Z</time></trkpt><trkpt lat="41.38807528117881" lon="-3.4579405959464973"><ele>1030.0</ele><time>2026-03-22T13:22:05.999Z</time></trkpt><trkpt lat="41.38817560724043" lon="-3.4580089747596214"><ele>1030.0</ele><time>2026-03-22T13:22:06.999Z</time></trkpt><trkpt lat="41.388276742983045" lon="-3.458077905421924"><ele>1030.0</ele><time>2026-03-22T13:22:07.999Z</time></trkpt><trkpt lat="41.38837808504549" lon="-3.458149321150108"><ele>1030.0</ele><time>2026-03-22T13:22:08.999Z</time></trkpt><trkpt lat="41.388473338506145" lon="-3.4582207267535563"><ele>1030.0</ele><time>2026-03-22T13:22:09.999Z</time></trkpt><trkpt lat="41.38856130862035" lon="-3.458290041849588"><ele>1030.0</ele><time>2026-03-22T13:22:10.999Z</time></trkpt><trkpt lat="41.38864375583266" lon="-3.4583571523075154"><ele>1030.0</ele><time>2026-03-22T13:22:11.999Z</time></trkpt><trkpt lat="41.38871406063759" lon="-3.458436326357787"><ele>1030.0</ele><time>2026-03-22T13:22:12.999Z</time></trkpt><trkpt lat="41.38878979882171" lon="-3.458497942366076"><ele>1030.0</ele><time>2026-03-22T13:22:13.999Z</time></trkpt><trkpt lat="41.388842863194675" lon="-3.4585817551209423"><ele>1029.8333333333333</ele><time>2026-03-22T13:22:14.999Z</time></trkpt><trkpt lat="41.388899905297016" lon="-3.458650293830879"><ele>1029.6666666666665</ele><time>2026-03-22T13:22:15.999Z</time></trkpt><trkpt lat="41.38896461359958" lon="-3.458697111287474"><ele>1029.5</ele><time>2026-03-22T13:22:16.999Z</time></trkpt><trkpt lat="41.38901888681027" lon="-3.4587500237169424"><ele>1029.3333333333333</ele><time>2026-03-22T13:22:17.999Z</time></trkpt><trkpt lat="41.38906171709778" lon="-3.458815461339366"><ele>1029.1666666666667</ele><time>2026-03-22T13:22:18.999Z</time></trkpt><trkpt lat="41.38916940009244" lon="-3.458883872839706"><ele>1029.0</ele><time>2026-03-22T13:22:20.999Z</time></trkpt><trkpt lat="41.38925176347677" lon="-3.4589795967144727"><ele>1029.0</ele><time>2026-03-22T13:22:22.999Z</time></trkpt><trkpt lat="41.38926044635354" lon="-3.4590681644219425"><ele>1029.0</ele><time>2026-03-22T13:22:23.999Z</time></trkpt><trkpt lat="41.389317068705566" lon="-3.459132951119999"><ele>1029.0</ele><time>2026-03-22T13:22:25.999Z</time></trkpt><trkpt lat="41.38940988320444" lon="-3.45919597813076"><ele>1029.0</ele><time>2026-03-22T13:22:27.999Z</time></trkpt><trkpt lat="41.38951324849338" lon="-3.4592650590693994"><ele>1029.0</ele><time>2026-03-22T13:22:29.999Z</time></trkpt><trkpt lat="41.389619584909966" lon="-3.4593318079671054"><ele>1028.8</ele><time>2026-03-22T13:22:31.999Z</time></trkpt><trkpt lat="41.389726990804924" lon="-3.4593919674823064"><ele>1028.6000000000001</ele><time>2026-03-22T13:22:33.999Z</time></trkpt><trkpt lat="41.389830016853864" lon="-3.4594391960782946"><ele>1028.4</ele><time>2026-03-22T13:22:35.999Z</time></trkpt><trkpt lat="41.38993516510598" lon="-3.459484108640747"><ele>1028.2</ele><time>2026-03-22T13:22:37.999Z</time></trkpt><trkpt lat="41.39003142732278" lon="-3.4595269058477043"><ele>1028.0</ele><time>2026-03-22T13:22:39.999Z</time></trkpt><trkpt lat="41.39013592746427" lon="-3.4595748887779605"><ele>1028.0</ele><time>2026-03-22T13:22:41.999Z</time></trkpt><trkpt lat="41.39023703179937" lon="-3.459610000122341"><ele>1028.0</ele><time>2026-03-22T13:22:43.999Z</time></trkpt><trkpt lat="41.39034900289063" lon="-3.4596327351902"><ele>1028.0</ele><time>2026-03-22T13:22:45.999Z</time></trkpt><trkpt lat="41.39044710769498" lon="-3.4596457482509564"><ele>1028.0</ele><time>2026-03-22T13:22:47.999Z</time></trkpt><trkpt lat="41.390513827617575" lon="-3.4596506315900792"><ele>1028.0</ele><time>2026-03-22T13:22:48.999Z</time></trkpt><trkpt lat="41.39063159402623" lon="-3.459653188990022"><ele>1027.6</ele><time>2026-03-22T13:22:50.999Z</time></trkpt><trkpt lat="41.39074797015073" lon="-3.4596547655907357"><ele>1027.1999999999998</ele><time>2026-03-22T13:22:52.999Z</time></trkpt><trkpt lat="41.39086001155161" lon="-3.459659143722737"><ele>1026.8</ele><time>2026-03-22T13:22:54.999Z</time></trkpt><trkpt lat="41.390971981953996" lon="-3.45966612608561"><ele>1026.3999999999999</ele><time>2026-03-22T13:22:56.999Z</time></trkpt><trkpt lat="41.3910770135311" lon="-3.459675756213869"><ele>1026.0</ele><time>2026-03-22T13:22:58.999Z</time></trkpt><trkpt lat="41.39118470412477" lon="-3.4596929786094472"><ele>1026.0</ele><time>2026-03-22T13:23:00.999Z</time></trkpt><trkpt lat="41.39128845692469" lon="-3.4597068042750347"><ele>1026.0</ele><time>2026-03-22T13:23:02.999Z</time></trkpt><trkpt lat="41.3913955283094" lon="-3.459718152856628"><ele>1026.0</ele><time>2026-03-22T13:23:04.999Z</time></trkpt><trkpt lat="41.39150661017161" lon="-3.4597141492741263"><ele>1026.0</ele><time>2026-03-22T13:23:06.999Z</time></trkpt><trkpt lat="41.391620165271384" lon="-3.4596887642030945"><ele>1026.0</ele><time>2026-03-22T13:23:08.999Z</time></trkpt><trkpt lat="41.39174563275804" lon="-3.4596683620363025"><ele>1026.0</ele><time>2026-03-22T13:23:10.999Z</time></trkpt><trkpt lat="41.39181416456302" lon="-3.4596471144653864"><ele>1026.0</ele><time>2026-03-22T13:23:11.999Z</time></trkpt><trkpt lat="41.39188693659196" lon="-3.459633793022346"><ele>1026.0</ele><time>2026-03-22T13:23:12.999Z</time></trkpt><trkpt lat="41.39196253940122" lon="-3.459625167709708"><ele>1026.0</ele><time>2026-03-22T13:23:13.998Z</time></trkpt><trkpt lat="41.39204345739631" lon="-3.459601861823466"><ele>1026.0</ele><time>2026-03-22T13:23:14.998Z</time></trkpt><trkpt lat="41.39212881907389" lon="-3.459605144666458"><ele>1026.0</ele><time>2026-03-22T13:23:15.998Z</time></trkpt><trkpt lat="41.39220983492653" lon="-3.459611237779272"><ele>1026.0</ele><time>2026-03-22T13:23:16.998Z</time></trkpt><trkpt lat="41.392286875529805" lon="-3.4596258271322373"><ele>1026.0</ele><time>2026-03-22T13:23:17.998Z</time></trkpt><trkpt lat="41.39235436637405" lon="-3.459639303565141"><ele>1026.0</ele><time>2026-03-22T13:23:18.998Z</time></trkpt><trkpt lat="41.39245689671069" lon="-3.4596518606995086"><ele>1026.0</ele><time>2026-03-22T13:23:20.998Z</time></trkpt><trkpt lat="41.392509925019695" lon="-3.4595447133633495"><ele>1026.0</ele><time>2026-03-22T13:23:22.998Z</time></trkpt><trkpt lat="41.39253815522698" lon="-3.4594253717469035"><ele>1026.0</ele><time>2026-03-22T13:23:25Z</time></trkpt><trkpt lat="41.392621348804454" lon="-3.4594669764663175"><ele>1026.0</ele><time>2026-03-22T13:23:26Z</time></trkpt><trkpt lat="41.39273874332069" lon="-3.4594409263600103"><ele>1026.0</ele><time>2026-03-22T13:23:28Z</time></trkpt><trkpt lat="41.392802192404766" lon="-3.4594245042437564"><ele>1026.0</ele><time>2026-03-22T13:23:29Z</time></trkpt><trkpt lat="41.3928738726937" lon="-3.459405056463673"><ele>1026.0</ele><time>2026-03-22T13:23:30Z</time></trkpt><trkpt lat="41.39294412435396" lon="-3.459408256445468"><ele>1026.0</ele><time>2026-03-22T13:23:31Z</time></trkpt><trkpt lat="41.39301457802937" lon="-3.459386783980358"><ele>1026.0</ele><time>2026-03-22T13:23:32Z</time></trkpt><trkpt lat="41.39308993631289" lon="-3.459362433742194"><ele>1025.5</ele><time>2026-03-22T13:23:33Z</time></trkpt><trkpt lat="41.39316979360576" lon="-3.4593421938806297"><ele>1025.0</ele><time>2026-03-22T13:23:34Z</time></trkpt><trkpt lat="41.39325345570123" lon="-3.4593166442419836"><ele>1024.5</ele><time>2026-03-22T13:23:35Z</time></trkpt><trkpt lat="41.39333291980216" lon="-3.4592755864840425"><ele>1024.0</ele><time>2026-03-22T13:23:36Z</time></trkpt><trkpt lat="41.39341389430158" lon="-3.4592986845914244"><ele>1023.5</ele><time>2026-03-22T13:23:37Z</time></trkpt><trkpt lat="41.39348660112838" lon="-3.459259023543672"><ele>1023.0</ele><time>2026-03-22T13:23:38Z</time></trkpt><trkpt lat="41.39355189638285" lon="-3.4592419275576294"><ele>1023.0</ele><time>2026-03-22T13:23:39Z</time></trkpt><trkpt lat="41.393653645968186" lon="-3.4591752740211383"><ele>1023.0</ele><time>2026-03-22T13:23:41Z</time></trkpt><trkpt lat="41.39366767641482" lon="-3.4593023632259547"><ele>1023.0</ele><time>2026-03-22T13:23:42Z</time></trkpt><trkpt lat="41.393652251850966" lon="-3.459051773018293"><ele>1023.0</ele><time>2026-03-22T13:23:43Z</time></trkpt><trkpt lat="41.3936381071853" lon="-3.458935244785373"><ele>1023.0</ele><time>2026-03-22T13:23:45Z</time></trkpt><trkpt lat="41.39361369213322" lon="-3.458817123511097"><ele>1023.0</ele><time>2026-03-22T13:23:46Z</time></trkpt><trkpt lat="41.393542322023684" lon="-3.4587942918700687"><ele>1023.0</ele><time>2026-03-22T13:23:48Z</time></trkpt><trkpt lat="41.39347925385522" lon="-3.458774116077028"><ele>1023.0</ele><time>2026-03-22T13:23:55Z</time></trkpt><trkpt lat="41.39344203323492" lon="-3.4589824271641065"><ele>1023.0</ele><time>2026-03-22T13:23:58Z</time></trkpt><trkpt lat="41.393516673757695" lon="-3.4591055605897747"><ele>1023.0</ele><time>2026-03-22T13:25:39Z</time></trkpt><trkpt lat="41.393454207356" lon="-3.4590532945573726"><ele>1023.0</ele><time>2026-03-22T13:27:18.999Z</time></trkpt><trkpt lat="41.39339236065103" lon="-3.4590375442994423"><ele>1023.0</ele><time>2026-03-22T13:27:24.999Z</time></trkpt><trkpt lat="41.39332490087796" lon="-3.459036614389014"><ele>1023.0</ele><time>2026-03-22T13:27:29.998Z</time></trkpt><trkpt lat="41.39326198728813" lon="-3.459014361170692"><ele>1023.0</ele><time>2026-03-22T13:27:36Z</time></trkpt><trkpt lat="41.393197457506396" lon="-3.458990939685026"><ele>1023.0</ele><time>2026-03-22T13:27:42Z</time></trkpt><trkpt lat="41.393263005578405" lon="-3.4589987138538922"><ele>1023.0</ele><time>2026-03-22T13:28:01Z</time></trkpt><trkpt lat="41.39333084544661" lon="-3.4590127496670404"><ele>1023.0</ele><time>2026-03-22T13:28:07Z</time></trkpt><trkpt lat="41.39339119197475" lon="-3.4590566041813258"><ele>1023.0</ele><time>2026-03-22T13:28:13Z</time></trkpt><trkpt lat="41.39346457476196" lon="-3.4590488775435246"><ele>1023.0</ele><time>2026-03-22T13:28:17Z</time></trkpt><trkpt lat="41.39352476400151" lon="-3.459101231959906"><ele>1023.0</ele><time>2026-03-22T13:28:40.999Z</time></trkpt><trkpt lat="41.39359246753269" lon="-3.459197712457158"><ele>1023.0</ele><time>2026-03-22T13:28:41.999Z</time></trkpt><trkpt lat="41.393541987204884" lon="-3.45910393937012"><ele>1023.0</ele><time>2026-03-22T13:28:49.999Z</time></trkpt><trkpt lat="41.393581771093885" lon="-3.459018557414467"><ele>1023.0</ele><time>2026-03-22T13:28:57.999Z</time></trkpt><trkpt lat="41.39360897648941" lon="-3.4588682457308804"><ele>1023.0</ele><time>2026-03-22T13:28:59.999Z</time></trkpt><trkpt lat="41.39357406717529" lon="-3.4587859231664826"><ele>1023.0</ele><time>2026-03-22T13:29:01.999Z</time></trkpt><trkpt lat="41.39350129044236" lon="-3.4587716830271873"><ele>1023.0</ele><time>2026-03-22T13:29:03.999Z</time></trkpt><trkpt lat="41.39342643319144" lon="-3.458747084454074"><ele>1023.0</ele><time>2026-03-22T13:29:05.999Z</time></trkpt><trkpt lat="41.39335124644632" lon="-3.4587437093451046"><ele>1023.0</ele><time>2026-03-22T13:29:07.999Z</time></trkpt><trkpt lat="41.39328388332663" lon="-3.4587430187890376"><ele>1024.0</ele><time>2026-03-22T13:29:16.999Z</time></trkpt></trkseg></trk></gpx>